[[{"header":{"parameterUnit":"m.s-1","parameterCategory":1,"la1":30.6,"la2":29.2853,"lo1":-89.7004,"lo2":-87.6739,"dy":0.0162,"dx":0.0183,"nx":112,"ny":82,"refTime":"2026-02-20T12:00:00:Z","depth":0,"parameterNumber":2,"parameterNumberName":"U-component_of_WINDS"},"data":[0.0,0.0,0.0,0.0,0.0,0.0,0.0,0.0,0.0,0.0,0.0,0.0,0.0,0.0,0.0,0.0,0.0,0.0,0.0,0.0,0.0,0.0,0.0,0.0,0.0,0.0,0.0,0.0,0.0,0.0,0.0,0.0,0.0,0.0,0.0,0.0,0.0,0.0,0.0,0.0,0.0,0.0,0.0,0.0,0.0,0.0,0.0,0.0,0.0,0.0,0.0,0.0,0.0,0.0,0.0,0.0,0.0,0.0,0.0,0.0,0.0,0.0,0.0,0.0,0.0,0.0,0.0,0.0,0.0,0.0,0.0,0.0,0.0,0.0,0.0,0.0,0.0,0.0,0.0,0.0,0.0,0.0,0.0,0.0,0.0,0.0,0.0,0.0,0.0,0.0,0.0,5.9515,6.3817,6.6769,6.7467,6.6659,6.4758,6.1433,0.0,0.0,0.0,0.0,0.0,0.0,0.0,0.0,0.0,0.0,0.0,0.0,0.0,0.0,0.0,0.0,0.0,0.0,0.0,0.0,0.0,0.0,0.0,0.0,0.0,0.0,0.0,0.0,0.0,0.0,0.0,0.0,0.0,0.0,0.0,0.0,0.0,0.0,0.0,0.0,0.0,0.0,0.0,0.0,0.0,0.0,0.0,0.0,0.0,0.0,0.0,0.0,0.0,0.0,0.0,0.0,0.0,0.0,0.0,0.0,0.0,0.0,0.0,0.0,0.0,0.0,0.0,0.0,0.0,0.0,0.0,0.0,0.0,0.0,0.0,0.0,0.0,0.0,0.0,0.0,0.0,0.0,0.0,0.0,0.0,0.0,0.0,0.0,0.0,0.0,0.0,0.0,0.0,0.0,0.0,0.0,0.0,0.0,0.0,0.0,0.0,0.0,0.0,0.0,5.7379,6.1781,6.4816,6.6549,6.6659,6.5301,6.3648,6.173,0.0,0.0,0.0,0.0,0.0,0.0,0.0,0.0,0.0,0.0,0.0,0.0,0.0,0.0,0.0,0.0,0.0,0.0,0.0,0.0,0.0,0.0,0.0,0.0,0.0,0.0,0.0,0.0,0.0,0.0,0.0,0.0,0.0,0.0,0.0,0.0,0.0,0.0,0.0,0.0,0.0,0.0,0.0,0.0,0.0,0.0,0.0,0.0,0.0,0.0,0.0,0.0,0.0,0.0,0.0,0.0,0.0,0.0,0.0,0.0,0.0,0.0,0.0,0.0,0.0,0.0,0.0,0.0,0.0,0.0,0.0,0.0,0.0,0.0,0.0,0.0,0.0,0.0,0.0,0.0,0.0,0.0,0.0,0.0,0.0,0.0,0.0,0.0,0.0,0.0,0.0,0.0,0.0,0.0,0.0,0.0,0.0,0.0,0.0,0.0,0.0,0.0,0.0,5.6262,5.8538,6.3015,6.4897,6.6035,6.6476,6.5411,6.3918,6.1845,5.8574,0.0,0.0,0.0,0.0,0.0,0.0,0.0,0.0,0.0,0.0,0.0,0.0,0.0,0.0,0.0,0.0,0.0,0.0,0.0,0.0,0.0,0.0,0.0,0.0,0.0,0.0,0.0,0.0,0.0,0.0,0.0,0.0,0.0,0.0,0.0,0.0,0.0,0.0,0.0,0.0,0.0,0.0,0.0,0.0,0.0,0.0,0.0,0.0,0.0,0.0,0.0,0.0,0.0,0.0,0.0,0.0,0.0,0.0,0.0,0.0,0.0,0.0,0.0,0.0,0.0,0.0,0.0,0.0,0.0,0.0,0.0,0.0,0.0,0.0,0.0,0.0,0.0,0.0,0.0,0.0,0.0,0.0,0.0,0.0,0.0,0.0,0.0,0.0,0.0,0.0,0.0,0.0,0.0,0.0,0.0,0.0,0.0,0.0,0.0,0.0,0.0,0.0,5.8203,5.9942,6.3419,6.4714,6.5558,6.6145,6.5301,6.3712,6.1428,5.775,0.0,0.0,0.0,0.0,0.0,0.0,0.0,0.0,0.0,0.0,0.0,0.0,0.0,0.0,0.0,0.0,0.0,0.0,0.0,0.0,0.0,0.0,0.0,0.0,0.0,0.0,0.0,0.0,0.0,0.0,0.0,0.0,0.0,0.0,0.0,0.0,0.0,0.0,0.0,0.0,0.0,0.0,0.0,0.0,0.0,0.0,0.0,0.0,0.0,0.0,0.0,0.0,0.0,0.0,0.0,0.0,0.0,0.0,0.0,0.0,0.0,0.0,0.0,0.0,0.0,0.0,0.0,0.0,0.0,0.0,0.0,0.0,0.0,0.0,0.0,0.0,0.0,0.0,0.0,0.0,0.0,0.0,0.0,0.0,0.0,0.0,0.0,0.0,0.0,0.0,0.0,0.0,0.0,0.0,0.0,0.0,0.0,0.0,0.0,0.0,0.0,0.0,5.8842,6.0919,6.2695,6.4347,6.5338,6.5375,6.3906,6.2129,6.0157,5.6176,0.0,0.0,0.0,0.0,0.0,0.0,0.0,0.0,0.0,0.0,0.0,0.0,0.0,0.0,0.0,0.0,0.0,0.0,0.0,0.0,0.0,0.0,0.0,0.0,0.0,0.0,0.0,0.0,0.0,0.0,0.0,0.0,0.0,0.0,0.0,0.0,0.0,0.0,0.0,0.0,0.0,0.0,0.0,0.0,0.0,0.0,0.0,0.0,0.0,0.0,0.0,0.0,0.0,0.0,0.0,0.0,0.0,0.0,0.0,0.0,0.0,0.0,0.0,0.0,0.0,0.0,0.0,0.0,0.0,0.0,0.0,0.0,0.0,0.0,0.0,0.0,0.0,0.0,0.0,0.0,0.0,0.0,0.0,0.0,0.0,0.0,0.0,0.0,0.0,0.0,0.0,0.0,0.0,0.0,0.0,0.0,0.0,0.0,0.0,0.0,0.0,0.0,5.9011,6.1117,0.0,6.4934,6.5521,6.5999,6.4567,6.264,6.0374,0.0,0.0,0.0,0.0,0.0,0.0,0.0,0.0,0.0,0.0,0.0,0.0,0.0,0.0,0.0,0.0,0.0,0.0,0.0,0.0,0.0,0.0,0.0,0.0,0.0,0.0,0.0,0.0,0.0,0.0,0.0,0.0,0.0,0.0,0.0,0.0,0.0,0.0,0.0,0.0,0.0,0.0,0.0,0.0,0.0,0.0,0.0,0.0,0.0,0.0,0.0,0.0,0.0,0.0,0.0,0.0,0.0,0.0,0.0,0.0,0.0,0.0,0.0,0.0,0.0,0.0,0.0,0.0,0.0,0.0,0.0,0.0,0.0,0.0,0.0,0.0,0.0,0.0,0.0,0.0,0.0,0.0,0.0,0.0,0.0,0.0,0.0,0.0,0.0,0.0,0.0,0.0,0.0,0.0,0.0,0.0,0.0,0.0,0.0,0.0,0.0,0.0,5.7592,5.9384,6.1643,0.0,6.5521,6.5888,6.6439,6.4751,6.2604,6.0001,0.0,0.0,0.0,0.0,0.0,0.0,0.0,0.0,0.0,0.0,0.0,0.0,0.0,0.0,0.0,0.0,0.0,0.0,0.0,0.0,0.0,0.0,0.0,0.0,0.0,0.0,0.0,0.0,0.0,0.0,0.0,0.0,0.0,0.0,0.0,0.0,0.0,0.0,0.0,0.0,0.0,0.0,0.0,0.0,0.0,0.0,0.0,0.0,0.0,0.0,0.0,0.0,0.0,0.0,0.0,0.0,0.0,0.0,0.0,0.0,0.0,0.0,0.0,0.0,0.0,0.0,0.0,0.0,0.0,0.0,0.0,0.0,0.0,0.0,0.0,0.0,0.0,0.0,0.0,0.0,0.0,0.0,0.0,0.0,0.0,0.0,0.0,0.0,0.0,0.0,0.0,0.0,0.0,0.0,0.0,0.0,0.0,0.0,0.0,0.0,0.0,0.0,5.7707,6.0135,6.2585,6.5081,6.6035,6.6512,6.6512,6.4237,6.1603,0.0,0.0,0.0,0.0,0.0,0.0,0.0,0.0,0.0,0.0,0.0,0.0,0.0,0.0,0.0,0.0,0.0,0.0,0.0,0.0,0.0,0.0,0.0,0.0,0.0,0.0,0.0,0.0,0.0,0.0,0.0,0.0,0.0,0.0,0.0,0.0,0.0,0.0,0.0,0.0,0.0,0.0,0.0,0.0,0.0,0.0,0.0,0.0,0.0,0.0,0.0,0.0,0.0,0.0,0.0,0.0,0.0,0.0,0.0,0.0,0.0,0.0,0.0,0.0,0.0,0.0,0.0,0.0,0.0,0.0,0.0,0.0,0.0,0.0,0.0,0.0,0.0,0.0,0.0,0.0,0.0,0.0,0.0,0.0,0.0,0.0,0.0,0.0,0.0,0.0,0.0,0.0,0.0,0.0,0.0,0.0,0.0,0.0,0.0,0.0,0.0,0.0,0.0,0.0,6.1471,6.4251,6.6733,6.668,6.6753,6.7283,6.5154,6.2376,5.9213,0.0,0.0,0.0,0.0,0.0,0.0,0.0,0.0,0.0,0.0,0.0,0.0,0.0,0.0,0.0,0.0,0.0,0.0,0.0,0.0,0.0,0.0,0.0,0.0,0.0,0.0,0.0,0.0,0.0,0.0,0.0,0.0,0.0,0.0,0.0,0.0,0.0,0.0,0.0,0.0,0.0,0.0,0.0,0.0,0.0,0.0,0.0,0.0,0.0,0.0,0.0,0.0,0.0,0.0,0.0,0.0,0.0,0.0,0.0,0.0,0.0,0.0,0.0,0.0,0.0,0.0,0.0,0.0,0.0,0.0,0.0,0.0,0.0,0.0,0.0,0.0,0.0,0.0,0.0,0.0,0.0,0.0,0.0,0.0,0.0,0.0,0.0,0.0,0.0,0.0,0.0,0.0,0.0,0.0,0.0,0.0,0.0,0.0,0.0,0.0,0.0,0.0,5.8756,6.2079,6.5147,6.7888,6.7467,6.7266,6.8108,6.5983,6.3122,5.9642,0.0,0.0,0.0,0.0,0.0,0.0,0.0,0.0,0.0,0.0,0.0,0.0,0.0,0.0,0.0,0.0,0.0,0.0,0.0,0.0,0.0,0.0,0.0,0.0,0.0,0.0,0.0,0.0,0.0,0.0,0.0,0.0,0.0,0.0,0.0,0.0,0.0,0.0,0.0,0.0,0.0,0.0,0.0,0.0,0.0,0.0,0.0,0.0,0.0,0.0,0.0,0.0,0.0,0.0,0.0,0.0,0.0,0.0,0.0,0.0,0.0,0.0,0.0,0.0,0.0,0.0,0.0,0.0,0.0,0.0,0.0,0.0,0.0,0.0,0.0,0.0,0.0,0.0,0.0,0.0,0.0,0.0,0.0,0.0,0.0,0.0,0.0,0.0,0.0,0.0,0.0,0.0,0.0,0.0,0.0,0.0,0.0,0.0,0.0,0.0,0.0,0.0,5.8774,6.2122,6.5382,6.8472,6.8145,6.8017,6.884,6.6736,6.3872,6.0243,0.0,0.0,0.0,0.0,0.0,0.0,0.0,0.0,0.0,0.0,0.0,0.0,0.0,0.0,0.0,0.0,0.0,0.0,0.0,0.0,0.0,0.0,0.0,0.0,0.0,0.0,0.0,0.0,0.0,0.0,0.0,0.0,0.0,0.0,0.0,0.0,0.0,0.0,0.0,0.0,0.0,0.0,0.0,0.0,0.0,0.0,0.0,0.0,0.0,0.0,0.0,0.0,0.0,0.0,0.0,0.0,0.0,0.0,0.0,0.0,5.3452,0.0,0.0,0.0,0.0,0.0,0.0,0.0,0.0,0.0,0.0,0.0,0.0,0.0,0.0,0.0,0.0,0.0,0.0,0.0,0.0,0.0,0.0,0.0,0.0,0.0,0.0,0.0,0.0,0.0,0.0,0.0,0.0,0.0,0.0,0.0,0.0,0.0,0.0,0.0,0.0,0.0,5.8883,6.2612,6.5801,6.7741,6.778,6.8036,6.8823,6.7266,6.4911,6.1894,0.0,0.0,0.0,0.0,0.0,0.0,0.0,0.0,0.0,0.0,0.0,0.0,0.0,0.0,0.0,0.0,0.0,0.0,0.0,0.0,0.0,0.0,0.0,0.0,0.0,0.0,0.0,0.0,0.0,0.0,0.0,0.0,0.0,0.0,0.0,0.0,0.0,0.0,0.0,0.0,0.0,0.0,0.0,0.0,0.0,0.0,0.0,0.0,0.0,0.0,0.0,0.0,0.0,0.0,0.0,0.0,0.0,0.0,0.0,0.0,0.0,5.4087,0.0,0.0,0.0,0.0,0.0,0.0,0.0,0.0,0.0,0.0,0.0,0.0,0.0,0.0,0.0,0.0,0.0,0.0,0.0,0.0,0.0,0.0,0.0,0.0,0.0,0.0,0.0,0.0,0.0,0.0,0.0,0.0,0.0,0.0,0.0,0.0,0.0,0.0,0.0,0.0,5.8905,6.2767,6.6198,6.862,6.8513,6.877,6.9979,6.8202,6.5953,6.3274,6.0247,0.0,0.0,0.0,0.0,0.0,0.0,0.0,0.0,0.0,0.0,0.0,0.0,0.0,0.0,0.0,0.0,0.0,0.0,0.0,0.0,0.0,0.0,0.0,0.0,0.0,0.0,0.0,0.0,0.0,0.0,0.0,0.0,0.0,0.0,0.0,0.0,0.0,0.0,0.0,0.0,0.0,0.0,0.0,0.0,0.0,0.0,0.0,0.0,0.0,0.0,0.0,0.0,0.0,5.6367,5.693,5.7641,5.7791,5.8719,6.0209,5.7976,5.693,5.6774,0.0,0.0,0.0,0.0,0.0,0.0,0.0,0.0,0.0,0.0,0.0,0.0,0.0,0.0,0.0,0.0,0.0,0.0,0.0,0.0,0.0,0.0,0.0,0.0,0.0,5.7955,5.8603,0.0,0.0,0.0,0.0,0.0,0.0,0.0,0.0,0.0,0.0,0.0,0.0,5.9197,6.2939,6.6516,6.9556,6.9319,6.9522,7.1175,6.9189,6.7008,6.4858,6.1275,5.8088,0.0,0.0,0.0,0.0,0.0,0.0,0.0,0.0,0.0,0.0,0.0,0.0,0.0,0.0,0.0,0.0,0.0,0.0,0.0,0.0,0.0,0.0,0.0,0.0,0.0,0.0,0.0,0.0,0.0,0.0,0.0,0.0,5.4496,5.4138,0.0,0.0,0.0,0.0,0.0,0.0,0.0,0.0,0.0,0.0,0.0,0.0,0.0,5.5555,5.6466,5.7528,5.8077,5.8189,5.9952,6.083,6.0977,6.1677,6.2144,6.2426,6.2769,0.0,5.926,5.8452,0.0,0.0,0.0,0.0,0.0,0.0,0.0,0.0,0.0,0.0,0.0,0.0,0.0,0.0,0.0,0.0,0.0,0.0,0.0,0.0,0.0,0.0,6.0078,6.0678,6.155,6.1936,0.0,5.7936,5.5184,5.4073,5.3396,0.0,0.0,0.0,0.0,0.0,0.0,0.0,6.0404,6.3429,6.6279,6.8803,6.8953,6.9535,7.1191,6.9754,6.8309,6.7303,6.409,6.1275,5.9173,5.5735,0.0,0.0,0.0,0.0,0.0,0.0,0.0,0.0,0.0,0.0,0.0,0.0,0.0,0.0,0.0,0.0,0.0,0.0,0.0,0.0,0.0,0.0,0.0,0.0,0.0,0.0,0.0,0.0,0.0,5.3807,5.4362,5.4646,5.4318,5.3527,0.0,0.0,0.0,0.0,0.0,0.0,0.0,0.0,0.0,5.7192,5.7677,5.8418,5.951,6.0433,6.1191,6.1708,6.2573,6.3246,6.3686,6.4053,6.4457,6.4897,6.5264,6.4756,6.3405,6.1471,5.9206,5.6882,0.0,0.0,0.0,0.0,5.4496,5.5152,5.6817,5.7117,0.0,5.6962,0.0,0.0,0.0,0.0,0.0,0.0,0.0,0.0,0.0,0.0,6.1603,6.216,6.3248,6.4119,6.3774,6.1506,5.8908,0.0,5.5977,5.5047,5.2404,0.0,0.0,0.0,0.0,0.0,6.0774,6.392,6.6883,6.9336,6.9558,7.0229,7.1851,7.0506,6.9226,6.8402,6.5763,6.3599,6.2254,5.9127,5.6551,0.0,0.0,0.0,0.0,0.0,0.0,0.0,0.0,0.0,0.0,0.0,0.0,0.0,0.0,0.0,0.0,0.0,0.0,0.0,0.0,0.0,0.0,0.0,0.0,0.0,0.0,0.0,0.0,5.441,5.4971,5.5446,5.5493,5.478,0.0,0.0,0.0,0.0,0.0,0.0,5.6215,5.629,5.7303,5.961,6.027,6.12,6.2511,6.3135,6.3759,6.442,6.4604,6.5044,6.5632,6.5815,6.6256,6.6806,6.6806,6.6696,6.6345,6.4018,6.1656,5.9413,5.8091,5.7373,5.7068,5.6476,5.6815,5.7829,5.9632,5.998,5.9647,5.9579,0.0,5.7566,5.5898,0.0,0.0,0.0,0.0,5.7604,5.9253,6.1207,6.2921,6.3565,6.489,6.586,6.5677,6.4558,6.2659,0.0,5.8702,5.762,5.4318,0.0,0.0,0.0,0.0,6.0525,6.1638,6.4542,6.743,6.9868,7.0091,7.0653,7.2071,7.093,6.9758,6.8934,6.6809,6.5327,6.4728,6.2274,5.998,5.7883,0.0,0.0,0.0,0.0,0.0,0.0,0.0,0.0,0.0,0.0,0.0,0.0,0.0,0.0,0.0,0.0,0.0,0.0,0.0,0.0,0.0,0.0,0.0,0.0,0.0,0.0,0.0,0.0,0.0,5.6903,5.8864,0.0,0.0,0.0,0.0,5.5409,5.5409,5.6328,5.8334,5.8446,5.9715,6.2487,6.2622,6.3429,6.5118,6.5154,6.5191,6.5264,6.5999,6.6402,6.6476,6.721,6.7577,6.7614,6.7614,6.721,6.6439,6.5485,6.3959,6.1937,6.0301,5.8949,5.7973,5.8308,5.8967,5.985,6.1089,6.1982,6.2523,6.224,6.0799,5.9099,5.856,5.7569,0.0,0.0,5.848,5.9127,6.1887,6.3297,6.4377,6.5962,6.6936,6.7393,6.6626,6.6133,6.5197,0.0,6.1315,5.9615,5.751,0.0,5.8081,5.7302,5.9292,6.1666,6.3653,6.5404,6.743,6.9868,7.0091,7.047,7.1259,7.058,6.9758,6.8934,6.734,6.6443,6.6406,6.4765,6.2923,6.0797,5.806,0.0,0.0,0.0,0.0,0.0,0.0,0.0,0.0,0.0,0.0,0.0,0.0,0.0,0.0,0.0,0.0,0.0,0.0,0.0,0.0,0.0,0.0,0.0,0.0,0.0,0.0,0.0,0.0,5.8495,6.0301,0.0,0.0,5.8428,5.8609,5.831,5.8995,6.0219,6.2029,6.214,6.2855,6.4347,6.4934,6.5485,6.6072,6.6586,6.6843,6.6843,6.7136,6.7247,6.7283,6.7577,6.7687,6.7687,6.7687,6.754,6.7247,6.6953,6.5809,6.4132,6.3025,6.265,6.2641,6.2281,6.264,6.3453,6.4451,6.4595,6.4214,6.3002,6.1468,5.9993,5.9806,5.9479,5.9324,6.0263,6.0567,6.098,6.3062,6.4273,6.516,6.626,6.712,6.7614,6.7303,6.6773,6.6118,6.5322,6.328,6.0885,5.8592,5.9069,5.9547,5.9051,6.1263,6.3456,6.4709,6.6279,6.776,6.9171,6.9319,6.966,7.047,6.9778,6.921,6.8951,6.7888,6.7266,6.7266,6.6206,6.4819,6.3033,6.0957,5.7617,0.0,0.0,0.0,0.0,0.0,0.0,0.0,0.0,0.0,0.0,0.0,0.0,0.0,0.0,0.0,0.0,0.0,0.0,0.0,0.0,0.0,0.0,0.0,0.0,0.0,0.0,5.976,5.9739,6.1805,6.248,6.0449,6.0858,6.1217,6.1217,6.1971,6.3062,6.442,6.4494,6.4861,6.5705,6.6219,6.6623,6.688,6.743,6.7687,6.7687,6.7687,6.7687,6.7687,6.7687,6.7687,6.7687,6.7687,6.7687,6.7687,6.7687,6.7063,6.6035,6.5212,6.5044,6.5257,6.4706,6.5014,6.5801,6.6617,6.6182,6.5139,6.3994,6.2549,6.1224,6.1189,6.1213,6.1323,6.1812,6.2008,6.2388,6.4094,6.4882,6.555,6.6663,6.7303,6.7687,6.7687,6.7266,6.6809,6.6553,6.4736,6.2608,6.0418,6.1153,6.1739,6.0847,6.3071,6.5081,6.5494,6.6773,6.7998,6.884,6.8917,6.9116,6.9612,6.8862,6.8218,6.8108,6.6973,6.6316,6.6516,6.5603,6.4383,6.2893,6.0923,5.8007,5.3983,0.0,0.0,0.0,0.0,0.0,0.0,0.0,0.0,0.0,0.0,0.0,0.0,0.0,0.0,0.0,0.0,0.0,0.0,0.0,0.0,0.0,0.0,0.0,5.6952,5.8648,6.0133,6.0567,6.3474,6.4586,6.2591,6.3516,6.4214,6.4163,6.4163,6.453,6.5338,6.5375,6.5742,6.6512,6.6549,6.6916,6.7687,6.7687,6.7687,6.7687,6.7687,6.7687,6.7687,6.7687,6.7687,6.7687,6.7687,6.7687,6.7687,6.7687,6.7687,6.7614,6.6809,6.6056,6.5353,6.5338,6.5867,6.6654,6.7447,6.6663,6.5311,6.5308,6.4168,6.2842,6.2805,6.2805,6.2805,6.2805,6.2842,6.3222,6.4843,6.5301,6.575,6.7303,6.7687,6.7687,6.7687,6.7687,6.7467,6.6699,6.5919,6.4843,6.3172,6.4241,6.4659,6.2792,6.4824,0.0,6.6096,6.7046,6.7998,6.8803,6.8877,6.8877,6.8877,6.7888,6.6973,6.6512,6.4672,6.3746,6.4091,6.2983,6.1768,6.052,5.8145,5.6493,5.5694,0.0,0.0,0.0,0.0,0.0,0.0,0.0,0.0,0.0,0.0,0.0,0.0,0.0,0.0,0.0,0.0,0.0,0.0,0.0,0.0,0.0,0.0,5.8385,5.8122,6.1172,6.3565,6.3955,6.6123,6.7012,6.5483,6.6001,6.626,6.5867,6.5852,6.6182,6.699,6.7026,6.7136,6.7357,6.7357,6.7467,6.7687,6.7687,6.7687,6.7687,6.7687,6.7687,6.7687,6.7687,6.7687,6.7687,6.7687,6.7687,6.7687,6.7687,6.7687,6.7687,6.7467,6.7247,6.7043,6.7026,6.7173,6.741,6.7614,6.7046,6.6076,6.5506,6.4586,6.364,6.2989,6.2805,6.2805,6.2805,6.3259,6.397,6.5041,6.572,6.6389,6.7467,6.7687,6.7687,6.7687,6.7687,6.7614,6.743,6.7226,6.6476,6.4888,6.4985,6.5322,6.5396,6.6008,0.0,6.7163,6.7504,6.7687,6.765,6.765,6.7924,6.8492,6.7687,6.6982,6.6554,6.5403,6.4572,6.4118,6.3774,6.3427,6.3103,6.0093,5.8107,0.0,0.0,0.0,0.0,0.0,0.0,0.0,0.0,0.0,0.0,0.0,0.0,0.0,0.0,0.0,0.0,0.0,0.0,0.0,0.0,0.0,0.0,5.951,6.1192,6.1651,6.3622,6.5249,6.6051,6.7321,6.7975,6.737,6.7407,6.7331,6.7043,6.699,6.721,6.765,6.7687,6.7687,6.7687,6.7687,6.7687,6.7687,6.7687,6.7687,6.7687,6.7687,6.7687,6.7687,6.7687,6.7687,0.0,6.7687,6.7687,6.7687,6.7687,6.7687,0.0,0.0,0.0,0.0,0.0,6.7687,6.7687,6.7687,6.7156,6.6406,6.5941,6.5,6.402,6.3479,6.3062,6.2879,6.3259,6.3713,6.4388,6.5515,6.6145,6.6699,6.7504,6.7687,6.7687,6.7687,6.7687,6.7687,6.7687,6.7687,0.0,6.6479,6.6345,6.6323,6.6296,6.6724,6.7109,6.7458,6.7924,6.8108,6.7961,6.8222,6.8579,6.9073,6.7963,0.0,0.0,0.0,6.4044,6.2889,6.2314,0.0,0.0,0.0,0.0,0.0,0.0,0.0,0.0,5.664,5.5812,0.0,0.0,0.0,0.0,0.0,0.0,0.0,0.0,0.0,0.0,0.0,0.0,0.0,0.0,0.0,0.0,6.2253,6.4857,6.6275,6.6063,6.622,6.7364,6.7875,6.8282,6.8642,6.8272,6.801,6.7851,6.7851,6.776,6.7687,0.0,0.0,0.0,0.0,6.7687,6.7687,6.7687,6.7687,6.7687,6.7687,6.7687,6.7687,6.7687,6.7687,6.7687,6.7687,6.7687,6.7687,6.7687,6.7687,6.7687,6.7687,6.7687,6.7687,6.7687,6.7687,6.7687,6.7687,0.0,0.0,6.6553,6.5558,6.4338,6.4278,6.3713,6.3259,6.4057,6.4315,6.4692,6.6113,6.6589,6.6809,6.754,6.7687,6.7687,6.7687,6.7687,6.7687,6.7687,6.7687,6.7724,6.7851,6.7724,6.7393,6.6316,6.7046,6.7614,6.743,6.8255,6.8951,6.897,0.0,0.0,7.0153,6.853,6.7283,6.6809,6.4906,6.3184,6.1629,6.0688,6.0724,6.1812,6.1469,6.2288,6.4485,6.4485,6.4903,6.5557,5.9516,5.8234,0.0,0.0,0.0,0.0,0.0,0.0,0.0,0.0,0.0,0.0,0.0,0.0,0.0,0.0,0.0,5.9996,6.2497,6.52,6.8254,6.8788,6.882,6.8631,7.0042,7.0721,6.9887,7.0079,6.9827,6.8746,6.864,6.8382,6.7724,6.7687,0.0,6.7687,6.7687,6.7687,6.7687,6.7687,6.7687,6.7687,0.0,0.0,6.7687,6.7687,6.7687,6.7687,6.7687,6.7687,6.7687,6.7687,6.7687,6.7687,6.7687,6.7687,6.7687,6.7687,6.7687,6.7687,6.7687,6.7614,6.7393,6.6699,6.6296,6.5909,6.5285,6.4967,0.0,6.5041,6.5551,6.6076,6.6443,6.701,6.7504,6.765,6.7687,6.7687,6.7687,6.7687,6.7687,6.7687,6.7687,6.7924,6.8566,6.8108,6.7614,6.743,6.7577,6.7924,6.8492,6.8803,6.9063,6.9409,6.961,6.9962,7.062,6.9706,6.8913,6.8439,6.6859,6.5463,6.4549,6.5496,6.6173,6.6445,6.6323,6.6549,6.7006,6.7006,6.7426,6.8104,6.494,6.3722,0.0,0.0,0.0,0.0,0.0,0.0,0.0,0.0,0.0,0.0,0.0,5.5087,0.0,0.0,6.0292,6.24,6.4935,6.7467,6.962,7.0768,7.1109,7.0422,7.0976,7.1291,7.0979,7.0938,7.0671,7.0018,6.9944,6.963,6.8951,6.8914,6.8713,6.8345,6.8309,6.8309,6.8309,6.8309,6.8492,6.8914,6.8914,6.8914,6.8914,6.8914,6.8914,6.8877,6.8492,6.8529,6.8914,6.8914,6.8914,6.8877,6.8456,6.8035,6.7687,6.7687,6.7687,6.7687,6.7687,6.7687,6.7614,6.723,6.6809,6.6406,6.6051,6.5647,6.5375,6.5794,6.6219,6.6589,6.701,6.743,6.7687,6.7687,6.7998,6.8309,6.8309,6.8309,6.8419,6.884,6.8566,6.8566,6.9372,6.9155,6.8917,6.8897,6.8914,6.9061,6.9446,6.9853,7.0201,7.0433,7.0799,7.1186,7.161,7.0543,6.9775,6.954,6.8,6.712,6.712,6.745,6.7871,6.8292,6.8312,6.8513,6.8935,6.8935,6.9301,7.0073,6.8843,6.8092,0.0,0.0,0.0,0.0,0.0,0.0,0.0,0.0,5.385,5.5221,5.6015,5.6814,5.8003,6.037,6.2861,6.5049,6.7614,6.9758,7.1066,7.2259,7.2865,7.2478,7.1988,7.1727,7.2074,7.1726,7.1383,7.1235,7.1246,7.0937,7.033,7.0293,6.9981,6.9338,6.9208,6.9098,6.9098,6.9117,6.9448,7.0091,7.0091,7.0091,7.0091,7.0091,7.0091,7.0054,6.9392,6.9466,7.0091,7.0091,7.0091,7.0018,6.9412,6.8733,6.8108,6.7851,6.7687,6.7687,6.7687,6.7687,6.7687,6.7687,6.723,6.6736,6.6736,6.6279,6.5896,6.6553,6.6736,6.6846,6.754,6.7851,6.7961,6.7961,6.8529,6.9135,6.9154,6.91,6.9301,6.9979,6.9576,6.9412,7.0165,7.0311,7.0271,7.011,7.0091,7.0128,7.033,7.0881,7.139,7.1537,7.2218,7.2716,7.2716,7.1537,7.0726,7.058,6.9504,6.9174,6.9827,6.9347,6.9383,7.0047,7.0083,7.0397,7.104,7.104,7.139,7.1998,7.1998,7.1574,5.2548,5.215,0.0,5.3836,5.4113,5.4859,0.0,0.0,5.7417,5.9331,5.9804,6.0115,6.0974,6.2406,6.429,6.6654,6.8357,7.0378,7.315,7.3207,7.346,7.4549,7.4273,7.3757,7.3276,7.3181,7.2843,7.2122,7.2069,7.1704,7.0951,7.0914,7.0877,7.0747,7.022,6.9979,6.9979,6.9981,7.0031,7.0104,7.0104,7.0104,7.0104,7.0104,7.0104,7.0067,6.9963,7.0037,7.0104,7.0104,7.0104,7.0104,6.9994,6.987,6.963,6.8218,6.7687,6.7687,6.7687,6.7687,6.7687,6.7687,6.765,6.7577,6.7577,6.7504,6.7467,6.754,6.7577,6.7577,6.7687,6.8218,6.8803,6.8803,6.9372,6.9944,6.9978,6.9994,6.9998,7.0072,7.0036,7.0214,7.1024,7.117,7.093,7.0214,7.0104,7.0381,7.106,7.1244,7.1574,7.2312,7.3067,7.3566,7.3566,7.3419,7.2994,7.2255,7.2737,7.3088,7.3141,7.375,7.4139,7.4212,7.4212,7.4249,7.438,7.438,7.4417,7.4491,7.4491,7.4065,5.5695,0.0,0.0,0.0,5.6482,5.7152,5.8529,5.8446,5.8569,6.0056,6.0756,6.1449,6.2609,6.407,6.5875,0.0,7.0118,7.1788,7.3185,7.388,7.4139,7.3868,7.4431,7.4664,7.4396,7.4384,7.427,7.3928,7.3898,7.3564,7.2986,7.2611,7.2182,7.1704,7.1101,7.0826,7.0826,7.0804,7.104,7.15,7.15,7.15,7.15,7.15,7.1223,7.0857,7.1248,7.1248,7.0799,7.1259,7.15,7.1464,7.1003,7.0804,7.068,6.9539,6.8803,6.8492,6.8951,6.8803,6.8492,6.8951,6.8803,6.8419,6.8419,6.8071,6.776,6.8255,6.8419,6.8492,6.8987,6.9372,6.9576,6.9577,7.0201,7.0807,7.0783,7.0762,7.0951,7.1377,7.1118,7.104,7.1888,7.1998,7.2034,7.2181,7.1757,7.161,7.1961,7.2422,7.2994,7.3844,7.4221,7.4395,7.4395,7.4412,7.4212,7.3918,7.4221,7.4395,7.4395,7.4749,7.4895,7.4895,7.4895,7.4895,7.4895,7.4895,7.4895,7.4895,7.4895,7.4969,5.6668,0.0,0.0,5.7601,5.8777,5.9536,5.9987,6.0124,6.038,6.1419,6.2093,6.2925,6.4291,6.5642,0.0,6.9894,7.165,7.2967,7.3726,7.4231,7.425,7.3565,7.4029,7.4591,7.4947,7.5062,7.5119,7.5084,7.5097,7.4935,7.4512,7.3957,7.3384,7.2794,7.2034,7.1684,7.1888,7.1888,7.2144,7.2716,7.2716,7.2642,7.2496,7.2496,7.2181,7.1647,7.2218,7.2144,7.1684,7.2218,7.2496,7.2459,7.1888,7.161,7.1594,7.0956,7.0073,6.932,6.9888,6.9723,6.9357,6.9926,6.9742,6.9247,6.9245,6.884,6.8492,6.9061,6.9228,6.9394,6.9963,7.0275,7.0441,7.0454,7.104,7.161,7.161,7.161,7.1757,7.2422,7.2034,7.1924,7.2679,7.2847,7.3104,7.3918,7.3523,7.3135,7.3141,7.3692,7.4353,7.511,7.5202,7.5263,7.5263,7.5249,7.5242,7.5242,7.5202,7.5336,7.5519,7.5556,7.5556,7.5556,7.5556,7.5556,7.5556,7.5556,7.5556,7.5556,7.5556,7.5873,0.0,0.0,5.5747,5.8953,6.0624,6.1934,6.3564,6.3938,6.4095,6.4574,6.4659,6.5114,6.6445,6.7165,6.8636,7.1964,7.2563,7.3389,7.563,7.4305,7.3442,7.4517,7.3447,7.3196,0.0,7.4947,7.5071,7.5118,7.5118,7.508,7.5062,7.4601,7.4258,7.4253,7.3067,7.2716,7.3345,7.3345,7.3382,7.3382,7.3382,7.3067,7.2496,7.2496,7.2496,7.2459,7.2496,7.2496,7.2459,7.2496,7.2496,7.2496,7.2459,7.2459,7.2459,7.2422,7.1427,7.0067,7.0091,7.0092,7.0047,7.0083,7.0083,7.0031,7.0054,7.0052,7.0015,7.0052,7.0036,7.0047,7.0083,7.0653,7.128,7.1223,7.1888,7.2459,7.2459,7.2459,7.2459,7.2496,7.2496,7.2716,7.3529,7.3639,7.3955,7.4712,7.4822,7.4811,7.4859,7.4859,7.519,7.5947,7.602,7.6056,7.6056,7.602,7.6081,7.6081,7.602,7.6411,7.7169,7.7268,7.7268,7.7268,7.7268,7.7268,7.7268,7.7268,7.7268,7.7268,7.7268,7.7268,0.0,0.0,5.9434,6.1348,6.2962,6.4177,6.4742,6.4906,6.4771,6.4401,6.3709,6.355,6.4947,6.5299,6.6611,7.0333,7.1881,7.3127,7.4657,7.4951,7.4557,7.3418,7.3686,0.0,0.0,0.0,0.0,7.5668,7.5707,7.5707,7.5707,7.5139,7.4829,7.4826,7.4102,7.3807,7.3991,7.3996,7.3801,7.3421,7.2964,7.2679,7.2496,7.2496,7.2496,7.2496,7.2496,7.2496,7.2496,7.2496,7.2496,7.2496,7.2496,7.2496,7.2496,7.2496,7.2144,7.1704,7.1708,7.1301,7.1003,7.1537,7.1354,7.0893,7.0897,7.0494,7.0237,7.077,7.0877,7.104,7.1537,7.1924,7.2218,7.2753,7.3104,7.3456,7.3991,7.4102,7.4102,7.4102,7.4102,7.4175,7.4454,7.4478,7.4762,7.5616,7.5251,7.508,7.5592,7.5715,7.5983,7.6839,7.6913,7.6913,7.6913,7.6913,7.6913,7.6913,7.6913,7.7023,7.7304,7.7304,7.7304,7.7304,7.7304,7.7304,7.7304,7.7304,7.7304,7.7304,7.7304,7.7304,0.0,5.8743,6.1255,6.3242,6.4706,6.5799,6.6109,6.5941,6.5551,6.4912,6.3584,6.2883,6.3962,6.4064,6.5053,6.8481,7.027,7.1886,7.3775,7.418,7.3986,7.3014,7.3185,0.0,0.0,0.0,0.0,7.5476,7.5553,7.5668,7.5976,7.5408,7.5119,7.5098,7.4591,7.4404,7.4591,7.459,7.4293,7.3723,7.3112,7.2679,7.2496,7.2496,7.2496,7.2496,7.2496,7.2496,7.2496,7.2496,7.2496,7.2496,7.2496,7.2496,7.2496,7.2496,7.2496,7.2496,7.2496,7.2144,7.1851,7.2349,7.2144,7.172,7.172,7.139,7.1076,7.1574,7.1961,7.2255,7.281,7.3141,7.3492,7.4028,7.4096,7.4258,7.4794,7.4904,7.4904,7.4904,7.4904,7.4978,7.5294,7.5555,7.5947,7.6448,7.6056,7.5947,7.6448,7.6521,7.6766,7.7268,7.7304,7.7304,7.7304,7.7304,7.7304,7.7304,7.7304,7.7304,7.7304,7.7304,7.7304,7.7304,7.7304,7.7304,7.7304,7.7304,7.7304,7.7304,7.7304,7.7304,5.7051,5.9355,6.1396,6.4535,6.5941,6.6736,6.7467,6.7046,6.6316,6.5913,6.4207,6.2984,0.0,0.0,6.4038,6.663,6.8073,7.0029,7.3137,7.24,7.2054,0.0,0.0,0.0,0.0,0.0,0.0,7.4562,0.0,7.5062,7.5938,7.5447,7.5139,7.5139,7.4678,7.4639,7.5139,7.5101,7.4828,7.4293,7.366,7.3067,7.2496,7.2496,7.2532,7.2532,7.2532,7.2532,7.2532,7.2532,7.2532,7.2569,7.2532,7.2532,7.2569,7.2569,7.2569,7.2569,7.2569,7.2532,7.2496,7.2496,7.2496,7.2496,7.2496,7.2532,7.2569,7.2569,7.3141,7.375,7.375,7.4322,7.4896,7.4932,7.4992,7.4982,7.4982,7.5019,7.5019,7.5019,7.5019,7.5299,7.602,7.6803,7.7304,7.7304,7.7304,7.7304,7.7304,7.7304,7.7304,7.7304,7.7304,7.7304,7.7304,7.7304,7.7304,7.7304,7.7304,7.7304,7.7304,7.7304,7.7304,7.7304,7.7304,7.7304,7.7304,7.7304,7.7304,7.7304,7.7304,7.7304,5.9564,6.2071,6.4375,6.5852,6.6843,6.7266,6.6883,6.617,6.5164,6.3584,6.1652,6.0189,0.0,0.0,0.0,6.6009,6.8864,0.0,7.4312,7.4745,0.0,0.0,0.0,7.3597,7.3185,7.3147,0.0,0.0,7.4707,7.5062,7.5938,7.5861,7.5784,7.5784,7.5668,7.563,7.5784,7.5293,7.4811,7.4293,7.3727,7.3067,7.2496,7.2496,7.2716,7.3141,7.3141,7.3141,7.3141,7.3141,7.3251,7.3345,7.2716,7.2884,7.3419,7.3419,7.3419,7.3419,7.3419,7.2994,7.2496,7.2496,7.2496,7.2496,7.2496,7.292,7.3419,7.3419,7.3991,7.458,7.4579,7.4738,7.5055,7.5666,7.5788,7.5947,7.6558,7.6668,7.6668,7.6668,7.6668,7.6766,7.6949,7.7133,7.7304,7.7304,7.7304,7.7304,7.7304,7.7304,7.7304,7.7304,7.7304,7.7304,7.7304,7.7304,7.7304,7.7304,7.7304,7.7304,7.7304,7.7304,7.7304,7.7304,7.7304,7.7304,7.7304,7.7304,7.7304,7.7304,7.7304,7.7304,6.1263,6.3796,6.5941,6.637,6.6809,6.6936,6.5896,6.4799,6.3496,6.1863,5.9924,0.0,0.0,0.0,0.0,0.0,0.0,0.0,7.3542,7.4476,7.4861,0.0,7.4389,0.0,7.3514,7.3476,7.385,0.0,7.4707,7.5062,7.5938,7.6015,7.6015,7.6015,7.6361,7.6583,7.6583,7.5861,7.5216,7.4649,7.4335,7.3676,7.292,7.3141,7.3529,7.3938,0.0,7.4072,7.4477,7.4088,7.4065,7.4175,7.3722,7.3817,7.4212,7.4212,7.4264,7.4235,7.4235,7.3891,7.3492,7.3141,7.3251,7.3529,7.3529,7.3881,7.4249,7.4221,7.4808,7.5455,7.5434,7.5727,7.6056,7.6521,7.6594,7.6766,7.7169,7.7304,7.7304,7.7304,7.7304,7.7304,7.7304,7.7304,7.7304,7.7304,7.7304,7.7304,7.7304,7.7304,7.7304,7.7304,7.7304,7.7304,7.7304,7.7304,7.7304,7.7304,7.7304,7.7304,7.7304,7.7304,7.7304,7.7304,7.7304,7.7304,7.7304,7.7304,7.7304,7.7304,7.7304,7.7304,6.2865,6.483,6.6553,6.6626,6.6589,6.617,6.4855,6.3309,6.1781,6.0401,0.0,0.0,5.7247,0.0,6.1065,6.2375,0.0,7.0383,7.24,7.3351,7.4072,7.4793,7.4264,7.3841,7.3841,7.3841,7.411,7.4832,7.4985,7.5293,7.5976,7.6015,7.6053,7.6169,7.7006,7.7468,7.7429,7.6736,7.6015,7.5447,7.5426,7.49,7.3865,7.4403,7.4792,7.5023,7.4826,0.0,7.6087,7.5309,7.508,7.5169,7.5031,7.5042,7.508,7.508,7.5065,7.5055,7.5055,7.5115,7.508,7.4154,7.4301,7.4874,7.4874,7.5006,7.5037,7.5068,7.5629,7.6265,7.6265,7.6803,7.7304,7.7304,7.7304,7.7304,7.7304,7.7304,7.7304,7.7304,7.7414,7.7488,7.7488,7.7561,7.7598,7.7598,7.7598,7.7598,7.7598,7.7451,7.7304,7.7304,7.7304,7.7304,7.7304,7.7304,7.7304,7.7304,7.7304,7.7304,7.7304,7.7304,7.7304,7.7304,7.7414,7.7488,7.7488,7.7561,7.7598,7.7598,7.7598,7.7598,6.5433,6.6186,6.6663,6.7303,6.701,6.6003,6.4163,6.2447,0.0,0.0,0.0,5.6417,5.6071,5.8038,0.0,6.4615,0.0,0.0,0.0,0.0,0.0,0.0,0.0,0.0,0.0,0.0,0.0,0.0,0.0,7.6621,7.6015,7.6015,7.6322,7.7044,7.7869,7.8292,7.8267,7.8151,7.7805,7.7237,7.7226,7.6863,7.622,7.6293,7.6642,7.7165,7.7099,0.0,7.7385,7.7237,7.6998,7.6644,7.6008,7.5764,7.5922,7.5922,7.5898,7.591,7.591,7.6362,7.6644,7.5178,7.4751,7.4921,7.4921,7.5385,7.5861,7.5873,7.6484,7.7059,7.7059,7.7169,7.7304,7.7304,7.7304,7.7304,7.7304,7.7304,7.7304,7.7304,7.788,7.8382,7.8382,7.8958,7.9388,7.9388,7.9388,7.9388,7.9388,7.8137,7.7304,7.7304,7.7304,7.7304,7.7304,7.7304,7.7304,7.7304,7.7304,7.7304,7.7304,7.7304,7.7304,7.7304,7.8027,7.8382,7.8382,7.9032,7.9388,7.9388,7.9388,7.9388,6.6186,6.6809,6.7193,6.7614,6.6479,6.4799,6.2961,0.0,0.0,0.0,0.0,5.5934,5.5742,0.0,0.0,0.0,0.0,0.0,0.0,0.0,0.0,0.0,0.0,0.0,0.0,0.0,0.0,0.0,0.0,7.7574,7.6736,7.7083,7.7699,7.8554,7.8531,7.8723,7.9199,7.8746,7.8361,7.81,7.81,7.7831,7.7301,7.7528,7.7912,7.8323,7.8185,0.0,7.8915,7.8508,7.8255,7.8154,7.7752,7.7451,7.7268,7.7268,7.7023,7.6766,7.6766,7.6986,7.7133,7.6411,7.613,7.613,7.613,7.6411,7.6766,7.6766,7.6986,7.7304,7.7304,7.7304,7.7304,7.7304,7.7304,7.7304,7.7304,7.7635,7.799,7.799,7.8639,7.9191,7.9187,7.9517,7.98,7.98,7.98,7.98,7.98,7.9113,7.8636,7.8603,7.8603,7.8603,7.8603,7.8603,7.8603,7.8603,7.8603,7.8603,7.8603,7.8603,7.8603,7.8603,7.9032,7.9228,7.926,7.959,7.98,7.98,7.98,7.98,6.6663,6.7303,6.7687,6.7687,6.6096,6.3998,6.2168,6.0028,0.0,0.0,0.0,0.0,5.5703,0.0,0.0,0.0,0.0,0.0,0.0,0.0,0.0,0.0,0.0,0.0,0.0,0.0,0.0,0.0,0.0,0.0,7.7622,7.8314,7.9084,7.9792,7.93,7.9377,8.0061,7.9377,7.9069,7.9069,7.9069,7.8838,7.8423,7.8877,7.9184,7.9338,7.9146,0.0,0.0,7.9638,7.9377,7.9363,7.9365,7.8945,7.8313,7.827,7.788,7.7304,7.7304,7.7304,7.7304,7.7304,7.7304,7.7304,7.7304,7.7304,7.7304,7.7304,7.7304,7.7304,7.7304,7.7414,7.7561,7.7708,7.7806,7.7806,7.7843,7.8603,7.9179,7.8908,7.9595,8.0257,8.0085,8.0166,8.0377,8.0524,8.0524,8.0634,8.0955,8.0707,8.0617,8.0787,8.0173,7.9779,7.9779,7.9779,7.9779,7.9779,7.9779,7.9779,7.9779,7.9779,7.9779,7.9779,7.9989,8.0084,8.0056,8.0202,8.0341,8.0341,8.0487,8.0487,6.7888,6.7998,6.7687,6.7687,6.6736,6.5087,6.2324,0.0,0.0,0.0,0.0,5.5703,5.5703,0.0,0.0,0.0,0.0,0.0,0.0,0.0,0.0,0.0,0.0,0.0,0.0,0.0,0.0,0.0,0.0,0.0,7.8454,7.9215,7.9715,7.9792,8.0484,8.09,8.0977,8.09,8.0862,8.0862,8.0862,8.0862,8.0785,8.0862,8.0862,8.09,8.0862,0.0,0.0,8.0939,8.0523,7.9992,8.0016,7.9301,7.829,7.8312,7.788,7.7304,7.7304,7.7304,7.7304,7.7304,7.7304,7.7304,7.7304,7.7304,7.7304,7.7304,7.7304,7.7304,7.7304,7.777,7.8419,7.9106,7.929,7.9326,7.9535,8.0579,8.107,7.9929,8.0809,8.1636,8.0992,8.1497,8.2186,8.2802,8.2876,8.3345,8.469,8.3742,8.3162,8.3917,8.1489,7.9763,7.9763,7.9763,7.9763,7.9763,7.9763,7.9763,7.9763,7.9763,7.9763,7.9763,8.0516,8.0882,8.0919,8.1607,8.2003,8.2003,8.2729,8.2692,6.759,6.8456,6.864,6.864,6.6809,6.4535,6.2634,0.0,0.0,5.6109,5.5703,5.5703,5.5703,5.5994,0.0,0.0,0.0,0.0,0.0,0.0,0.0,0.0,0.0,0.0,0.0,0.0,0.0,0.0,0.0,0.0,8.0061,8.0369,8.0561,8.0561,8.0939,8.1093,8.1093,8.1093,8.1093,8.1093,8.1093,8.1093,8.1093,8.1093,8.1093,8.1093,8.1093,0.0,0.0,8.1093,8.0939,8.0708,8.0708,8.0138,7.9335,7.8996,7.8639,7.8419,7.8027,7.8137,7.8456,7.8456,7.8456,7.8382,7.8027,7.7598,7.7378,7.7806,7.7916,7.7916,7.7916,7.8746,7.9735,8.0052,8.0467,8.0836,8.0934,8.1418,8.1733,8.1215,8.2034,8.2876,8.3051,8.3742,8.4469,8.5198,8.5317,8.5515,8.6093,8.5659,8.5296,8.5133,8.2802,8.1212,8.1212,8.1212,8.1212,8.1212,8.1212,8.1212,8.1212,8.1212,8.1497,8.1966,8.226,8.2692,8.3198,8.3456,8.3382,8.2913,8.3778,8.3684,6.7208,6.8585,6.9303,6.9303,6.7104,6.4528,0.0,0.0,5.7692,5.6032,5.5703,5.5703,5.5703,5.5895,5.6571,0.0,0.0,0.0,0.0,0.0,0.0,0.0,0.0,0.0,0.0,0.0,0.0,0.0,0.0,0.0,0.0,8.1093,8.1093,8.1093,8.1093,8.1093,8.1093,8.1093,8.1093,8.1093,8.1093,8.1093,8.1093,8.1093,8.1093,8.1093,8.1093,0.0,0.0,8.1093,8.1093,8.1093,8.1093,8.0708,8.0049,7.9595,7.9354,7.9117,7.8739,7.882,7.9209,7.9209,7.9209,7.9172,7.8895,7.8357,7.7974,7.844,7.8775,7.897,7.9209,8.003,8.0988,8.1407,8.1921,8.2383,8.2413,8.2854,8.3089,8.2792,8.3563,8.4367,8.4669,8.5386,8.62,8.693,8.7014,8.7137,8.7594,8.7295,8.6885,8.6647,8.4583,8.3141,8.2913,8.2876,8.2876,8.2876,8.2876,8.2876,8.2876,8.2876,8.3198,8.3742,8.3757,8.4051,8.4632,8.4632,8.4308,8.3765,8.4551,8.4639,6.6907,6.8405,6.9278,6.9278,6.7791,6.5613,0.0,6.0949,5.8753,5.6225,5.5703,5.5703,5.5703,5.6379,5.7247,5.8154,0.0,0.0,0.0,0.0,0.0,0.0,0.0,0.0,0.0,0.0,0.0,0.0,0.0,0.0,0.0,8.1093,8.1093,8.1093,8.1093,8.1093,8.1093,8.1093,8.1093,8.1093,8.1093,8.1093,8.1093,8.1093,8.1093,0.0,0.0,0.0,0.0,8.1093,8.1093,8.1093,8.1093,8.0708,8.01,8.0068,7.9734,7.9194,7.9209,7.9191,7.9191,7.9191,7.9191,7.9307,7.9915,7.9684,7.9201,7.9224,7.9793,8.06,8.1215,8.1516,8.2054,8.3528,8.3879,8.3917,8.4143,8.5176,8.5702,8.4582,8.5447,8.6193,8.5715,8.6216,8.6921,8.7609,8.7686,8.8221,8.9675,8.8602,8.799,8.8759,8.6874,8.5275,8.4653,8.458,8.458,8.458,8.458,8.458,8.458,8.458,8.458,8.458,8.4615,8.4593,8.463,8.463,8.463,8.463,8.5397,8.5765,6.3449,6.5367,6.6842,6.6266,6.5175,6.3898,6.2551,6.0388,5.8445,5.7653,5.7016,5.6785,5.7362,5.7692,5.8346,5.9765,0.0,0.0,0.0,0.0,0.0,0.0,0.0,0.0,0.0,0.0,0.0,0.0,0.0,0.0,0.0,8.1093,8.1093,8.1093,8.1093,8.1093,8.1093,8.1093,8.1093,8.1093,8.1093,8.1093,8.1093,8.1093,8.1093,0.0,0.0,0.0,0.0,8.1093,8.1093,8.1093,8.1093,8.0977,8.0746,8.0254,8.0267,8.0466,7.9944,8.0484,8.1323,8.1323,8.1739,8.224,8.2432,8.1362,8.0312,8.1308,8.1762,8.2163,8.2753,8.3407,8.3984,8.4484,8.5445,8.6324,8.6363,8.6819,8.7072,8.6722,8.7061,8.7487,8.7798,8.8536,8.9255,8.9983,9.0098,9.0252,9.0748,9.0367,9.0021,8.9752,8.8679,8.7245,8.5471,8.4872,8.4584,8.4584,8.4584,8.4584,8.4584,8.4584,8.4872,8.5416,8.5427,8.572,8.6265,8.6265,8.6265,8.6265,8.5967,8.6077,0.0,6.3707,6.5359,6.5154,6.4206,6.3092,6.2267,6.0365,5.8671,5.8346,5.7863,5.7665,5.8187,5.8534,5.9072,6.0127,0.0,0.0,0.0,0.0,0.0,0.0,0.0,0.0,0.0,0.0,0.0,0.0,0.0,0.0,0.0,8.1093,8.1093,8.1093,8.1093,8.1093,8.1093,8.1093,8.1093,8.1093,8.1093,8.1093,8.1093,8.1093,8.1093,0.0,0.0,0.0,0.0,8.1093,8.1093,8.1093,8.1093,8.1093,8.1054,8.0631,8.0746,8.1093,8.0977,8.1516,8.2355,8.267,8.317,8.3664,8.401,8.2978,8.1869,8.2785,8.3285,8.3632,8.3989,8.4714,8.533,8.533,8.6401,8.7396,8.7401,8.7786,8.8094,8.8132,8.8433,8.8782,8.9266,9.0252,9.1171,9.1595,9.1976,9.2168,9.2168,9.2168,9.1976,9.1518,9.0864,8.9876,8.8398,8.6885,8.605,8.6375,8.6632,8.6848,8.6848,8.6848,8.6958,8.7142,8.7142,8.7252,8.7468,8.7142,8.6995,8.6995,8.6779,8.6848,0.0,6.2998,6.4415,6.5157,6.4224,6.2929,6.2175,6.0704,0.0,5.8616,5.8434,5.8404,0.0,0.0,0.0,0.0,0.0,0.0,0.0,0.0,0.0,0.0,0.0,0.0,0.0,0.0,0.0,0.0,0.0,0.0,8.1093,8.1093,8.1093,8.1093,8.1093,8.1093,8.1093,8.1093,8.1093,8.1093,8.1093,8.1093,8.1093,8.1093,8.1093,0.0,0.0,0.0,0.0,8.1093,8.1093,8.1093,8.117,8.117,8.117,8.1246,8.1285,8.1362,8.2124,8.2432,8.2624,8.349,8.3797,8.3951,8.4753,8.4374,8.372,8.3759,8.4335,8.4983,8.4983,8.556,8.6209,8.6209,8.6896,8.7555,8.7568,8.8259,8.8909,8.9025,8.9563,9.0059,9.0252,9.1518,9.2515,9.2592,9.3207,9.3705,9.3705,9.3705,9.3705,9.3705,9.3092,9.2684,9.2682,9.0089,8.8745,8.9408,9.0156,9.0513,9.0476,9.0494,9.0103,8.9408,8.9371,8.904,8.8272,8.7541,8.7178,8.7178,8.7909,8.7872,5.8616,0.0,6.0612,6.0204,6.0742,6.1343,0.0,0.0,0.0,0.0,0.0,0.0,0.0,0.0,0.0,0.0,0.0,0.0,0.0,0.0,0.0,0.0,0.0,0.0,0.0,0.0,0.0,0.0,0.0,8.1093,8.1093,8.1093,8.1093,8.1093,8.1093,8.1093,8.1093,8.1093,8.1093,8.1093,8.1093,8.1093,8.1093,8.1093,8.1093,0.0,0.0,0.0,8.1093,8.1093,8.1093,8.117,8.1778,8.2009,8.2086,8.2771,8.3002,8.3041,8.3233,8.374,8.4407,8.5253,8.5483,8.5522,8.5786,8.5253,8.4714,8.533,8.567,8.5824,8.5824,8.644,8.7089,8.7089,8.8238,8.9316,8.9329,9.0021,9.0598,9.0636,9.0787,9.1133,9.1787,9.2245,9.271,9.3328,9.3597,9.3713,9.3713,9.3713,9.3713,9.3713,9.3099,9.268,9.2678,9.1553,9.0839,9.1068,9.1261,9.1102,9.0524,9.0491,9.0153,8.9421,8.9421,8.9344,8.9113,8.8929,8.8856,8.8856,8.9003,8.9011,5.7461,5.8594,5.9573,5.9973,6.0742,6.142,0.0,0.0,0.0,0.0,0.0,0.0,0.0,0.0,0.0,0.0,0.0,0.0,0.0,0.0,0.0,0.0,0.0,0.0,0.0,0.0,0.0,0.0,0.0,8.1093,8.1093,8.1093,8.1093,8.1093,8.1093,8.1093,8.1093,8.1093,8.1093,8.1093,8.1093,8.1093,8.1093,8.1093,8.1093,0.0,0.0,0.0,8.1093,8.1093,8.1323,8.1701,8.2124,8.2516,8.2978,8.3439,8.3593,8.367,8.4087,8.4747,8.5522,8.5978,8.6094,8.617,8.6555,8.6401,8.6132,8.6555,8.6973,8.7281,8.7281,8.7627,8.7974,8.8017,8.894,8.9898,8.9906,9.0902,9.1787,9.1787,9.2091,9.2515,9.2938,9.34,9.3787,9.4214,9.4674,9.4905,9.4905,9.4905,9.4905,9.4905,9.456,9.4329,9.4329,9.4002,9.3443,9.2693,9.3066,9.2909,9.218,9.2151,9.1657,9.0521,9.0118,8.9934,8.9929,8.9598,8.9381,8.9381,8.9782,8.9713,5.7324,5.8693,6.0333,6.142,6.192,6.2074,0.0,0.0,0.0,0.0,0.0,0.0,0.0,0.0,0.0,0.0,0.0,0.0,0.0,0.0,0.0,0.0,0.0,0.0,0.0,0.0,0.0,0.0,0.0,8.1093,8.1093,8.1093,8.1093,8.1093,8.1093,8.1093,8.1093,8.1093,8.1093,8.1093,8.1093,8.1093,8.1093,8.1093,8.1093,8.1093,0.0,0.0,8.1093,8.1208,8.1701,8.2317,8.2586,8.317,8.3835,8.3951,8.3989,8.4105,8.483,8.5522,8.6094,8.6094,8.6094,8.6247,8.7127,8.7512,8.7627,8.7743,8.8243,8.87,8.87,8.8815,8.8897,8.8871,8.9486,9.0098,9.0098,9.1248,9.2361,9.2441,9.3054,9.3592,9.3823,9.4518,9.5058,9.5174,9.5865,9.6288,9.6288,9.6288,9.6288,9.6288,9.6288,9.6288,9.6288,9.6288,9.5712,9.4329,9.4982,9.4983,9.4161,9.3974,9.3235,9.184,9.1143,9.074,9.074,9.0081,8.9788,8.9788,9.0484,9.0447,5.8742,6.0881,6.2252,6.0353,6.1006,0.0,0.0,0.0,0.0,0.0,0.0,0.0,0.0,0.0,0.0,0.0,0.0,0.0,0.0,0.0,0.0,0.0,0.0,0.0,0.0,0.0,0.0,0.0,0.0,8.1093,8.1093,8.1093,8.1093,8.1093,8.1093,8.1093,8.1093,8.1093,8.1093,8.1093,8.1093,8.1093,8.1093,8.1093,8.1093,8.1093,0.0,8.1093,8.1131,8.1855,8.2201,8.2432,8.3939,8.4599,8.4791,8.5445,8.5747,8.5747,8.5863,8.6017,8.6094,8.6094,8.6094,8.6247,8.7127,8.794,8.864,8.9329,8.9137,8.8679,8.8679,8.9213,8.9713,8.9713,9.0367,9.1018,9.1018,9.121,9.1633,9.2369,9.2601,9.3138,9.4559,9.4905,9.5251,9.6019,9.6211,9.6288,9.6288,9.6288,9.6288,9.6288,9.6288,9.6288,9.6288,9.6288,9.6211,9.598,9.6057,9.5532,9.414,9.3521,9.2757,9.1803,9.1693,9.162,9.162,9.151,9.14,9.14,9.1583,9.1583,5.8504,6.0388,6.1901,6.162,0.0,0.0,0.0,0.0,0.0,0.0,0.0,0.0,0.0,0.0,0.0,0.0,0.0,0.0,0.0,0.0,0.0,0.0,0.0,0.0,0.0,0.0,0.0,0.0,0.0,0.0,8.1093,8.1093,8.1093,8.1093,8.1093,8.1093,8.1093,8.1093,8.1093,8.1093,8.1093,8.1323,8.1778,8.1778,8.1778,8.1778,0.0,8.1778,8.1778,8.2163,8.2855,8.3785,8.4599,8.5176,8.556,8.5978,8.6094,8.6094,8.6094,8.6401,8.6819,8.6819,8.7127,8.7666,8.8507,8.9017,8.9486,9.0367,9.0329,9.0059,9.0059,9.0329,9.0598,9.0598,9.0941,9.121,9.121,9.1556,9.2133,9.3018,9.3559,9.4252,9.5481,9.5674,9.5865,9.6249,9.6288,9.6288,9.6288,9.6288,9.6288,9.6288,9.6288,9.6288,9.6288,9.6288,9.6288,9.6288,9.5942,9.5431,9.475,9.3611,9.2867,9.2464,9.1987,9.1803,9.1803,9.1803,9.1803,9.1803,9.1803,9.1803,5.8588,5.9979,6.1505,0.0,0.0,0.0,0.0,0.0,0.0,0.0,0.0,0.0,0.0,0.0,0.0,0.0,0.0,0.0,0.0,0.0,0.0,0.0,0.0,0.0,0.0,0.0,0.0,0.0,0.0,0.0,8.1093,8.1093,8.1093,8.1093,8.1093,8.1093,8.1093,8.1093,8.1093,8.1093,8.1285,8.1701,8.2317,8.2509,8.2477,8.2324,8.2509,8.2471,8.2317,8.274,8.3708,8.4945,8.5099,8.5709,8.6401,8.6401,8.6517,8.6709,8.6709,8.7166,8.7704,8.7704,8.8166,8.8859,8.9662,8.9898,9.0098,9.0979,9.121,9.121,9.121,9.121,9.121,9.121,9.1364,9.1479,9.1479,9.2207,9.3015,9.3859,9.4518,9.5289,9.6172,9.6288,9.6288,9.6288,9.6288,9.6288,9.6288,9.6288,9.6288,9.6288,9.6288,9.6288,9.6288,9.6288,9.6288,9.6288,9.5751,9.5366,9.5212,9.4157,9.3337,9.2978,9.239,9.195,9.1803,9.1803,9.1803,9.1803,9.1803,9.1803,6.0184,6.1296,0.0,0.0,0.0,0.0,0.0,0.0,0.0,0.0,0.0,0.0,0.0,0.0,0.0,0.0,0.0,0.0,0.0,0.0,0.0,0.0,0.0,0.0,0.0,0.0,0.0,0.0,0.0,0.0,8.1093,8.1093,8.1093,8.1093,8.1093,8.1093,8.1093,8.1093,8.1093,8.1093,8.1855,8.224,8.2317,8.3138,8.3072,8.2342,8.3163,8.3041,8.2432,8.4055,8.4791,8.4983,8.5747,8.6517,8.7319,8.7319,8.782,8.8507,8.8507,8.8546,8.8623,8.8598,8.864,8.8833,8.9675,8.9906,9.0098,9.0979,9.121,9.121,9.121,9.121,9.121,9.121,9.1787,9.2399,9.2399,9.3015,9.3859,9.4741,9.4978,9.5289,9.6172,9.6288,9.6288,9.6288,9.6288,9.6288,9.6288,9.6288,9.6288,9.6288,9.6288,9.6288,9.6288,9.6288,9.6288,9.6288,9.6249,9.5942,9.5212,9.5099,9.4414,9.305,9.2941,9.2537,9.1803,9.1803,9.1803,9.1803,9.1803,9.1803,5.8984,6.0311,0.0,0.0,0.0,0.0,0.0,0.0,0.0,0.0,0.0,0.0,0.0,0.0,0.0,0.0,0.0,0.0,0.0,0.0,0.0,0.0,0.0,0.0,0.0,0.0,0.0,0.0,0.0,0.0,8.1093,8.1093,8.1093,8.1093,8.1093,8.1093,8.1093,8.1093,8.1323,8.1855,8.2163,8.2894,8.3939,8.4253,8.422,8.3951,8.4273,8.4234,8.3978,8.4637,8.5176,8.5709,8.5978,8.6632,8.7396,8.7406,8.7944,8.8675,8.8675,8.9056,8.944,8.9444,8.9829,9.029,9.0598,9.0675,9.0787,9.1133,9.1595,9.2014,9.2014,9.2014,9.213,9.263,9.2977,9.3246,9.3251,9.3482,9.398,9.4826,9.5018,9.5289,9.6172,9.6288,9.6288,9.6288,9.6288,9.6288,9.6288,9.6288,9.6288,9.6288,9.6288,9.6288,9.6288,9.6288,9.6288,9.6288,9.6288,9.6172,9.5903,9.5443,9.4937,9.4402,9.3928,9.3272,9.2537,9.2537,9.2317,9.1803,9.1803,9.1803,5.9033,0.0,0.0,0.0,0.0,0.0,0.0,0.0,0.0,0.0,0.0,0.0,0.0,0.0,0.0,0.0,0.0,0.0,0.0,0.0,0.0,0.0,0.0,0.0,0.0,0.0,0.0,0.0,0.0,0.0,0.0,8.1093,8.1093,8.1093,8.1093,8.1093,8.1093,8.1323,8.1893,8.2733,8.3009,8.3747,8.4907,8.5176,8.5137,8.4907,8.5164,8.5126,8.4945,8.5176,8.5599,8.6094,8.6094,8.6819,8.782,8.7795,8.8525,8.9486,8.9486,8.9867,9.029,9.029,9.0675,9.121,9.121,9.1402,9.1595,9.1595,9.2245,9.2938,9.3246,9.3095,9.3018,9.3592,9.39,9.4095,9.4136,9.4329,9.4712,9.5289,9.5405,9.5597,9.6211,9.6288,9.6288,9.6288,9.6288,9.6288,9.6288,9.6288,9.6288,9.6288,9.6288,9.6288,9.6288,9.6288,9.6288,9.6288,9.6288,9.6288,9.6288,9.5826,9.5443,9.5212,9.4659,9.3961,9.3002,9.2959,9.2574,9.1803,9.1803,9.1803,0.0,0.0,0.0,0.0,0.0,0.0,0.0,0.0,0.0,0.0,0.0,0.0,0.0,0.0,0.0,0.0,0.0,0.0,0.0,0.0,0.0,0.0,0.0,0.0,0.0,0.0,0.0,0.0,0.0,0.0,0.0,8.1093,8.1093,8.1093,8.1093,8.1093,8.1093,8.1893,8.2771,8.3618,8.4478,8.4907,8.4945,8.5747,8.567,8.4983,8.5747,8.5637,8.4983,8.5786,8.6094,8.6094,8.6094,8.7166,8.87,8.8714,8.979,9.121,9.121,9.121,9.121,9.121,9.121,9.121,9.121,9.1787,9.2515,9.2515,9.3092,9.39,9.4751,9.4368,9.3714,9.3714,9.4368,9.502,9.502,9.5674,9.6288,9.6288,9.6288,9.6288,9.6288,9.6288,9.6288,9.6288,9.6288,9.6288,9.6288,9.6288,9.6288,9.6288,9.6288,9.6288,9.6288,9.6288,9.6288,9.6288,9.6288,9.6288,9.6288,9.6288,9.598,9.5212,9.5212,9.4483,9.3024,9.3026,9.2574,9.1803,9.1803,9.1803,0.0,0.0,0.0,0.0,0.0,0.0,0.0,0.0,0.0,0.0,0.0,0.0,0.0,0.0,0.0,0.0,0.0,0.0,0.0,0.0,0.0,0.0,0.0,0.0,0.0,0.0,0.0,0.0,0.0,0.0,0.0,8.1093,8.1093,8.1093,8.1093,8.1093,8.1093,8.1893,8.2708,8.3599,8.4484,8.5214,8.5747,8.5978,8.5978,8.5786,8.6017,8.5978,8.5786,8.6017,8.6094,8.617,8.6781,8.7704,8.8777,8.9329,9.0252,9.121,9.121,9.1595,9.213,9.213,9.213,9.213,9.213,9.2284,9.2515,9.2521,9.352,9.4672,9.4943,9.5251,9.552,9.552,9.5712,9.5942,9.5942,9.6134,9.6288,9.6288,9.6288,9.6288,9.6288,9.6288,9.6288,9.6288,9.6288,9.6288,9.6288,9.6288,9.6288,9.6288,9.6288,9.6288,9.6288,9.6288,9.6288,9.6288,9.6288,9.6288,9.6288,9.6288,9.6211,9.598,9.598,9.5481,9.4521,9.4023,9.3418,9.2611,9.2024,9.1803,0.0,0.0,0.0,0.0,0.0,0.0,0.0,0.0,0.0,0.0,0.0,0.0,0.0,0.0,0.0,0.0,0.0,0.0,0.0,0.0,0.0,0.0,0.0,0.0,0.0,0.0,0.0,0.0,0.0,0.0,0.0,8.14,8.1439,8.1093,8.14,8.14,8.1093,8.1893,8.2747,8.3605,8.445,8.533,8.6094,8.6094,8.6094,8.6094,8.6094,8.6094,8.6094,8.6094,8.6094,8.6209,8.705,8.7935,8.8786,8.9598,9.0444,9.121,9.121,9.1748,9.2515,9.2518,9.2713,9.2979,9.2977,9.3243,9.3477,9.3484,9.4445,9.552,9.552,9.5942,9.6288,9.6288,9.6288,9.6288,9.6288,9.6288,9.6288,9.6288,9.6288,9.6288,9.6288,9.6288,9.6288,9.6288,9.6288,9.6288,9.6288,9.6288,9.6288,9.6288,9.6288,9.6288,9.6288,9.6288,9.6288,9.6288,9.6288,9.6288,9.6288,9.6288,9.6288,9.6288,9.6288,9.5942,9.5212,9.4755,9.401,9.2978,9.2501,9.2133,0.0,0.0,0.0,0.0,0.0,0.0,0.0,0.0,0.0,0.0,0.0,0.0,0.0,0.0,0.0,0.0,0.0,0.0,0.0,0.0,0.0,0.0,0.0,0.0,0.0,0.0,0.0,0.0,0.0,0.0,0.0,8.2009,8.2047,8.1246,8.1932,8.1932,8.1093,8.1893,8.2708,8.349,8.4484,8.5291,8.5978,8.6055,8.6094,8.6094,8.6094,8.6094,8.6094,8.6094,8.617,8.6324,8.7166,8.8055,8.8909,8.9752,9.0521,9.121,9.121,9.1787,9.263,9.2638,9.3139,9.3791,9.3823,9.4359,9.5014,9.5018,9.5635,9.6288,9.6288,9.6288,9.6288,9.6288,9.6288,9.6288,9.6288,9.6288,9.6288,9.6288,9.6288,9.6288,9.6288,9.6288,9.6288,9.6288,9.6288,9.6288,9.6288,9.6288,9.6288,9.6288,9.6288,9.6288,9.6288,9.6288,9.6288,9.6288,9.6288,9.6288,9.6288,9.6288,9.6288,9.6288,9.6288,9.598,9.5289,9.5212,9.4534,9.3218,9.3122,9.2647,0.0,0.0,0.0,0.0,0.0,0.0,0.0,0.0,0.0,0.0,0.0,0.0,0.0,0.0,0.0,0.0,0.0,0.0,0.0,0.0,0.0,0.0,0.0,0.0,0.0,0.0,0.0,0.0,0.0,0.0,8.3079,8.3233,8.2932,8.2073,8.2208,8.1932,8.1093,8.1893,8.2394,0.0,8.4138,8.4983,8.5176,8.5824,8.6094,8.6094,8.6094,8.6094,8.6094,8.6094,8.6478,8.7204,8.8084,8.8936,8.9752,9.0598,9.1056,9.121,9.121,9.2207,9.3438,9.3407,9.4022,9.4712,9.4712,9.4864,9.5018,9.4982,9.5635,9.6288,9.6288,9.6288,9.6288,9.6288,9.6288,9.6288,9.6288,9.6288,9.6288,9.6288,9.6288,9.6288,9.6288,9.6288,9.6288,9.6288,9.6288,9.6288,9.6288,9.6288,9.6288,9.6288,9.6288,9.6288,9.6288,9.6288,9.6288,9.6288,9.6288,9.6288,9.6288,9.6288,9.6288,9.6288,9.6288,9.6211,9.6057,9.5481,9.502,9.47,9.4095,9.3492,0.0,0.0,0.0,0.0,0.0,0.0,0.0,0.0,0.0,0.0,0.0,0.0,0.0,0.0,0.0,0.0,0.0,0.0,0.0,0.0,0.0,0.0,0.0,0.0,0.0,0.0,0.0,0.0,0.0,8.3593,8.3593,8.3978,8.3791,8.2957,8.2901,8.2509,8.1701,8.2086,8.2509,8.2964,8.4279,8.5093,8.5483,8.5901,8.6094,8.6094,8.6094,8.6094,8.6132,8.6555,8.7012,8.7512,8.8782,8.9517,9.0021,9.0902,9.121,9.1248,9.1672,9.263,9.3782,9.4174,9.4905,9.5597,9.5597,9.5597,9.5597,9.5597,9.598,9.6288,9.6288,9.6288,9.6288,9.6288,9.6288,9.6288,9.6288,9.6288,9.6288,9.6288,9.6288,9.6288,9.6288,9.6288,9.6288,9.6288,9.6288,9.6288,9.6288,9.6288,9.6288,9.6288,9.6288,9.6288,9.6288,9.6288,9.6288,9.6288,9.6288,9.6288,9.6288,9.6288,9.6288,9.6288,9.6288,9.6288,9.6288,9.5942,9.552,9.5175,9.4794,9.4235,0.0,0.0,0.0,0.0,0.0,0.0,0.0,0.0,0.0,0.0,0.0,0.0,0.0,0.0,0.0,0.0,0.0,0.0,0.0,0.0,0.0,0.0,0.0,0.0,0.0,0.0,0.0,0.0,0.0,8.4028,8.4028,8.4566,8.4489,8.3643,8.3439,8.2971,8.2086,8.2086,8.2509,8.3394,8.4388,8.5312,8.6094,8.6094,8.6094,8.6094,8.6094,8.6209,8.6363,8.7089,8.7589,8.7974,8.9367,8.9983,9.0213,9.0941,9.1287,9.1518,9.2245,9.313,9.4016,9.4751,9.5597,9.6288,9.6288,9.6288,9.6288,9.6288,9.6288,9.6288,9.6288,9.6288,9.6288,9.6288,9.6288,9.6288,9.6288,9.6288,9.6288,9.6288,9.6288,9.6288,9.6288,9.6288,9.6288,9.6288,9.6288,9.6288,9.6288,9.6288,9.6288,9.6288,9.6288,9.6288,9.6288,9.6288,9.6288,9.6288,9.6288,9.6288,9.6288,9.6288,9.6288,9.6288,9.6288,9.6288,9.6288,9.6288,9.6019,9.5366,9.5366,9.4982,0.0,0.0,0.0,0.0,0.0,0.0,0.0,0.0,0.0,0.0,0.0,0.0,0.0,0.0,0.0,0.0,0.0,0.0,0.0,0.0,0.0,0.0,0.0,0.0,0.0,0.0,0.0,0.0,8.4868,8.5786,8.5786,8.5214,8.4489,8.3643,8.2842,8.2067,8.1285,8.1246,8.1676,8.2496,8.4138,8.5324,8.6094,8.6094,8.6094,8.6094,8.6094,8.6517,8.7242,8.7358,8.8248,8.9598,8.9829,9.0367,9.1056,9.1171,9.1672,9.2361,9.2476,9.3518,9.4828,9.4943,9.5597,9.6288,9.6288,9.6288,9.6288,9.6288,9.6288,9.6288,9.6288,9.6288,9.6288,9.6288,9.6288,9.6288,9.6288,9.6288,9.6288,9.6288,9.6288,9.6288,9.6288,9.6288,9.6288,9.6288,9.6288,9.6288,9.6288,9.6288,9.6288,9.6288,9.6288,9.6288,9.6288,9.6288,9.6288,9.6288,9.6288,9.6288,9.6288,9.6288,9.6288,9.6288,9.6288,9.6288,9.6288,9.6288,9.6249,9.6172,9.6172,9.5751,0.0,0.0,0.0,0.0,0.0,0.0,0.0,0.0,0.0,0.0,0.0,0.0,0.0,0.0,0.0,0.0,0.0,0.0,0.0,0.0,0.0,0.0,0.0,0.0,0.0,0.0,0.0,0.0,8.5137,8.5901,8.5472,8.5517,8.4978,8.3632,8.3247,8.2631,8.1778,8.224,8.3131,8.4412,8.5214,8.5786,8.6094,8.6094,8.6363,8.6858,8.6858,8.7319,8.8161,8.8594,8.9213,8.9944,9.0444,9.0864,9.121,9.121,9.1748,9.2553,9.3018,9.3982,9.5097,9.5558,9.6019,9.6288,9.6288,9.6288,9.6288,9.6288,9.6288,9.6288,9.6288,9.6288,9.6288,9.6288,9.6288,9.6288,9.6288,9.6288,9.6288,9.6288,9.6288,9.6288,9.6288,9.6288,9.6288,9.6288,9.6288,9.6288,9.6288,9.6288,9.6288,9.6288,9.6288,9.6288,9.6288,9.6288,9.6288,9.6288,9.6711,9.6749,9.6326,9.6711,9.6749,9.6326,9.6288,9.6288,9.6288,9.6288,9.6288,9.6288,9.6288,9.6134,0.0,0.0,0.0,0.0,0.0,0.0,0.0,0.0,0.0,0.0,0.0,0.0,0.0,0.0,0.0,0.0,0.0,0.0,0.0,0.0,0.0,0.0,0.0,0.0,0.0,0.0,0.0,0.0,8.5291,8.5747,8.4933,8.528,8.4818,8.3317,8.3048,8.2771,8.2278,8.3356,8.4549,8.5824,8.6017,8.6094,8.6094,8.6324,8.6935,8.7704,8.7478,8.7979,8.9051,8.9636,9.0021,9.029,9.0979,9.1325,9.1518,9.1518,9.2207,9.3207,9.3828,9.4598,9.5443,9.6095,9.6288,9.6288,9.6288,9.6288,9.6288,9.6288,9.6288,9.6288,9.6288,9.6288,9.6288,9.6288,9.6288,9.6288,9.6288,9.6288,9.6288,9.6288,9.6288,9.6288,9.6288,9.6288,9.6288,9.6288,9.6288,9.6288,9.6288,9.6288,9.6288,9.6288,9.6288,9.6288,9.6288,9.6288,9.6403,9.6596,9.7171,9.7326,9.6943,9.7518,9.7556,9.6942,9.6711,9.648,9.6288,9.6288,9.6288,9.6288,9.6288,9.6288,0.0,0.0,0.0,0.0,0.0,0.0,0.0,0.0,0.0,0.0,0.0,0.0,0.0,0.0,0.0,0.0,0.0,0.0,0.0,0.0,0.0,0.0,0.0,0.0,0.0,0.0,0.0,0.0,8.5599,8.5747,8.4933,8.4157,8.3317,8.2419,8.1638,8.1554,8.2278,8.3978,8.4868,8.4983,8.5747,8.6094,8.6132,8.6973,8.7781,8.8584,8.7756,8.8333,8.9829,8.9906,9.0367,9.1133,9.1171,9.1672,9.2438,9.2438,9.3474,9.4895,9.4941,9.5481,9.6249,9.6288,9.6288,9.6288,9.6288,9.6288,9.6288,9.6288,9.6288,9.6288,9.6288,9.6288,9.6288,9.6288,9.6288,9.6288,9.6288,9.6288,9.6288,9.6288,9.6288,9.6288,9.6288,9.6288,9.6288,9.6288,9.6288,9.6288,9.6288,9.6288,9.6288,9.6288,9.6288,9.6288,9.6288,9.6288,9.6634,9.7402,9.7479,9.7865,9.8634,9.8673,9.8709,9.8671,9.7864,9.7094,9.6288,9.6288,9.6288,9.6288,9.6288,9.6288,0.0,0.0,0.0,0.0,0.0,0.0,0.0,0.0,0.0,0.0,0.0,0.0,0.0,0.0,0.0,0.0,0.0,0.0,0.0,0.0,0.0,0.0,0.0,0.0,0.0,0.0,0.0,0.0,0.0,8.5747,8.4939,8.5087,8.4587,8.3176,8.3394,8.3664,8.3978,8.4599,8.5176,8.567,8.5978,8.6094,8.6132,8.7012,8.7863,8.8714,8.8909,8.9675,9.0748,9.0748,9.0941,9.121,9.121,9.171,9.2515,9.2521,9.3559,9.498,9.4982,9.5558,9.6288,9.6288,9.6288,9.6288,9.6288,9.6288,9.6288,9.6288,9.6288,9.6288,9.6288,9.6288,9.6288,9.6288,9.6288,9.6288,9.6288,9.6288,9.6288,9.6288,9.6288,9.6288,9.6288,9.6288,9.6288,9.6288,9.6288,9.6288,9.6288,9.6288,9.6288,9.6288,9.6749,9.7094,9.7094,9.7595,9.8018,9.8324,9.8865,9.9058,9.8827,9.9327,9.9365,9.8789,9.8481,9.7904,9.7094,9.6557,9.6288,9.6288,9.6288,9.6288,0.0,0.0,0.0,0.0,0.0,0.0,0.0,0.0,0.0,0.0,0.0,0.0,0.0,0.0,0.0,0.0,0.0,0.0,0.0,0.0,0.0,0.0,0.0,0.0,0.0,0.0,0.0,0.0,8.5786,0.0,8.4939,8.5434,8.5049,8.3664,8.4433,8.4895,8.4907,8.5176,8.556,8.6094,8.6094,8.6247,8.6555,8.7435,8.8286,8.914,8.9983,9.0636,9.121,9.121,9.1364,9.1633,9.1633,9.2322,9.3323,9.333,9.4214,9.5443,9.5443,9.5826,9.6288,9.6288,9.6288,9.6288,9.6288,9.6288,9.6288,9.6288,9.6288,9.6288,9.6288,9.6288,9.6288,9.6288,9.6288,9.6288,9.6288,9.6288,9.6288,9.6288,9.6288,9.6403,9.6634,9.6673,9.6788,9.7133,9.7171,9.7171,9.7171,9.7171,9.7171,9.7171,9.7633,9.7941,9.7942,9.8442,9.8942,9.9211,9.9788,9.9981,9.9673,10.0211,10.0211,9.9673,9.9365,9.8942,9.8365,9.7519,9.7171,9.7171,9.7171,9.698,0.0,0.0,0.0,0.0,0.0,0.0,0.0,0.0,0.0,0.0,0.0,0.0,0.0,0.0,0.0,0.0,0.0,0.0,0.0,0.0,0.0,0.0,0.0,0.0,0.0,8.4439,8.5247,8.6055,8.6094,8.5747,8.4978,8.4939,8.4555,8.3708,8.4484,8.4945,8.4945,8.5709,8.6094,8.6132,8.6132,8.6594,8.7473,8.8353,8.9167,8.9944,9.0825,9.121,9.121,9.121,9.171,9.2515,9.2515,9.3512,9.501,9.5018,9.552,9.6288,9.6288,9.6288,9.6288,9.6288,9.6288,9.6288,9.6288,9.6288,9.6288,9.6288,9.6288,9.6288,9.6288,9.6288,9.6288,9.6288,9.6288,9.6288,9.6288,9.6326,9.6326,9.6326,9.6326,9.6596,9.7402,9.7556,9.7825,9.8671,9.8825,9.8825,9.8825,9.8825,9.8825,9.8825,9.8825,9.8865,9.8827,9.8865,9.9211,10.0096,10.0096,10.048,10.1289,10.1289,10.1289,10.1289,10.048,10.0096,10.0096,9.9249,9.8825,9.8825,9.8825,9.8326,5.8203,0.0,0.0,0.0,0.0,0.0,0.0,0.0,0.0,0.0,0.0,0.0,0.0,0.0,0.0,0.0,0.0,0.0,0.0,0.0,0.0,0.0,0.0,8.3593,8.4478,8.5286,8.5863,0.0,8.6094,8.6017,8.5786,8.5786,8.567,8.5401,8.5632,8.5786,8.5786,8.5978,8.6401,8.705,8.705,8.7512,8.8392,8.9171,8.9675,8.9944,9.0825,9.121,9.121,9.121,9.171,9.2515,9.2521,9.352,9.5018,9.4982,9.552,9.6288,9.6288,9.6288,9.6288,9.6288,9.6288,9.6288,9.6288,9.6288,9.6288,9.6288,9.6288,9.6288,9.6288,9.6288,9.6288,9.6288,9.6288,9.6288,9.6288,9.6749,9.7171,9.7171,9.7171,9.7441,9.8287,9.8442,9.8519,9.875,9.8789,9.8789,9.8789,9.8789,9.8789,9.8789,9.9327,9.9711,9.975,10.0288,10.0673,10.1019,10.1019,10.1096,10.1289,10.1289,10.1289,10.1289,10.1096,10.1019,10.1019,9.9519,9.8789,9.8789,9.8789,9.8673,0.0,0.0,0.0,0.0,0.0,0.0,0.0,7.1311,0.0,0.0,0.0,0.0,0.0,0.0,0.0,0.0,0.0,0.0,0.0,0.0,0.0,0.0,8.3593,8.4324,8.4863,8.5632,8.6094,8.6094,8.6094,8.6094,8.6094,8.6094,8.6094,8.6094,8.6094,8.6094,8.6094,8.6094,8.6517,8.7396,8.7401,8.8055,8.9244,8.9675,9.0098,9.0444,9.0979,9.1402,9.171,9.171,9.2245,9.2977,9.2984,9.4022,9.552,9.552,9.5865,9.6288,9.6288,9.6288,9.6288,9.6288,9.6288,9.6288,9.6288,9.6288,9.6288,9.6288,9.6288,9.6288,9.6288,9.6288,9.6288,9.6288,9.6288,9.6403,9.6711,9.7171,9.7518,9.7518,9.7788,9.8327,9.9173,9.9327,9.9442,9.9788,9.9865,9.9865,9.9865,9.9865,9.9865,9.9865,10.0288,10.0596,10.0596,10.1019,10.1289,10.1289,10.1289,10.1289,10.1289,10.1289,10.1289,10.1289,10.1289,10.1289,10.1289,10.0288,9.9865,9.9865,9.9865,9.9673,0.0,0.0,0.0,0.0,0.0,0.0,7.0364,7.1248,7.2328,0.0,0.0,0.0,0.0,0.0,0.0,0.0,0.0,0.0,0.0,0.0,8.2747,8.3632,8.4439,8.4939,8.5016,8.567,8.6094,8.6094,8.6094,8.6094,8.6094,8.6094,8.6094,8.6094,8.6209,8.6247,8.6247,8.6324,8.6786,8.7666,8.7679,8.8525,9.0059,9.0136,9.0598,9.1364,9.1441,9.1937,9.263,9.263,9.3092,9.3859,9.3828,9.4866,9.6288,9.6288,9.6288,9.6288,9.6288,9.6288,9.6288,9.6288,9.6288,9.6288,9.6288,9.6288,9.6288,9.6288,9.6288,9.6288,9.6288,9.6288,9.6288,9.6288,9.6365,9.6634,9.7364,9.7672,9.7787,9.7787,9.8404,9.9211,10.0096,10.0211,10.048,10.1212,10.1289,10.1289,10.1289,10.1289,10.1289,10.1289,10.1289,10.1289,10.1289,10.1289,10.1289,10.1289,10.1289,10.1289,10.1289,10.1289,10.1289,10.1289,10.1289,10.1289,10.1289,10.1289,10.1289,10.1289,10.1289,10.0904,6.0195,6.0937,6.1797,0.0,0.0,0.0,0.0,6.6237,6.8229,0.0,0.0,0.0,0.0,0.0,0.0,0.0,0.0,0.0,8.2362,8.3016,8.367,8.4555,8.4786,8.517,8.5786,8.6017,8.6094,8.6094,8.6094,8.6094,8.6094,8.6094,8.6094,8.6094,8.6786,8.7171,8.7171,8.7825,8.8589,8.9426,8.9402,8.9944,9.0979,9.1672,9.2091,9.2284,9.29,9.332,9.3474,9.3443,9.398,9.4779,9.4749,9.5366,9.6288,9.6288,9.6288,9.6288,9.6288,9.6288,9.6288,9.6288,9.6288,9.6288,9.6288,9.6288,9.6288,9.6288,9.6288,9.6288,9.6288,9.6288,9.6288,9.6288,9.6788,9.7325,9.7479,9.8596,9.9596,9.9596,9.975,10.0096,10.0904,10.1096,10.1096,10.1289,10.1289,10.1289,10.1289,10.1289,10.1289,10.1289,10.1289,10.1289,10.1289,10.1289,10.1289,10.1289,10.1289,10.1289,10.1289,10.1289,10.1289,10.1289,10.1289,10.1289,10.1289,10.1289,10.1289,10.1289,10.1289,10.1212,6.0742,6.1367,6.2461,6.289,0.0,0.0,0.0,0.0,0.0,0.0,0.0,0.0,0.0,0.0,0.0,7.6962,7.8824,8.0249,8.0638,8.2753,8.4555,8.5401,8.5517,8.567,8.6055,8.6094,8.6094,8.6094,8.6094,8.6094,8.6094,8.6517,8.6748,8.6748,8.7594,8.8055,8.8021,8.8479,8.9094,8.9898,8.9867,9.0559,9.1825,9.2287,9.271,9.3097,9.3518,9.3941,9.4326,9.4366,9.4864,9.5593,9.5172,9.552,9.6288,9.6288,9.6288,9.6288,9.6288,9.6288,9.6288,9.6288,9.6288,9.6288,9.6288,9.6288,9.6288,9.6288,9.6288,9.6288,9.6288,9.6288,9.6288,9.6288,9.6903,9.7633,9.8057,9.9173,10.0211,10.0596,10.0673,10.0788,10.1212,10.1289,10.1289,10.1289,10.1289,10.1289,10.1289,10.1289,10.1289,10.1289,10.1289,10.1289,10.1289,10.1289,10.1289,10.1289,10.1289,10.1289,10.1289,10.1289,10.1289,10.1289,10.1289,10.1289,10.1289,10.1289,10.1289,10.1289,10.1289,10.1289,0.0,0.0,0.0,0.0,0.0,6.582,0.0,0.0,0.0,0.0,0.0,0.0,0.0,0.0,0.0,0.0,0.0,0.0,0.0,8.1501,0.0,8.4907,8.5401,8.5632,8.567,8.5522,8.5599,8.6055,8.5709,8.5599,8.6094,8.6786,8.7209,8.7401,8.8248,8.8786,8.8906,8.9098,8.9521,9.0136,9.0329,9.1171,9.2515,9.2864,9.3366,9.3945,9.4137,9.4598,9.5251,9.5251,9.5674,9.6249,9.552,9.5674,9.6288,9.6288,9.6288,9.6288,9.6288,9.6288,9.6288,9.6288,9.6288,9.6288,9.6288,9.6288,9.6288,9.6288,9.6288,9.6288,9.6288,9.6403,9.6519,9.6519,9.7287,9.821,9.8904,9.975,10.048,10.1212,10.1289,10.1289,10.1289,10.1289,10.1289,10.1289,10.1289,10.1289,10.1289,10.1289,10.1289,10.1289,10.1289,10.1289,10.1289,10.1289,10.1289,10.1289,10.1289,10.1289,10.1289,10.1289,10.1289,10.1289,10.1289,10.1289,10.1289,10.1289,10.1289,10.1289,10.1289,10.1289,0.0,0.0,0.0,0.0,6.7187,0.0,0.0,0.0,0.0,0.0,0.0,0.0,0.0,0.0,0.0,0.0,0.0,0.0,7.581,7.8138,8.0058,8.0953,8.2721,8.3978,8.4105,8.3418,8.3874,8.594,8.4181,8.3912,8.5978,8.6209,8.6594,8.7363,8.8248,8.9056,8.9787,9.0556,9.0979,9.1056,9.1864,9.229,9.2559,9.402,9.4789,9.4905,9.5674,9.6057,9.6172,9.6172,9.6211,9.6288,9.6211,9.6211,9.6288,9.6288,9.6288,9.6288,9.6288,9.6288,9.6288,9.6288,9.6288,9.6288,9.6288,9.6288,9.6288,9.6288,9.6288,9.6288,9.6288,9.6826,9.7364,9.7364,9.8632,9.9826,9.9904,10.0596,10.1212,10.1289,10.1289,10.1289,10.1289,10.1289,10.1289,10.1289,10.1289,10.1289,10.1289,10.1289,10.1289,10.1289,10.1289,10.1289,10.1289,10.1289,10.1289,10.1289,10.1289,10.1289,10.1289,10.1289,10.1289,10.1289,10.1289,10.1289,10.1289,10.1289,10.1289,10.1289,10.1289,10.1289,0.0,0.0,0.0,0.0,0.0,0.0,0.0,0.0,6.6758,0.0,0.0,0.0,0.0,0.0,0.0,0.0,0.0,0.0,0.0,0.0,7.8088,0.0,0.0,0.0,8.3022,8.3182,8.3791,8.5286,8.3561,8.3292,8.5286,8.5863,8.6748,8.8094,8.894,8.9787,9.0671,9.1018,9.1441,9.1979,9.2326,9.3018,9.398,9.4672,9.5288,9.5751,9.6134,9.6288,9.6288,9.6288,9.6288,9.6288,9.6288,9.6288,9.6288,9.6288,9.6288,9.6288,9.6288,9.6288,9.6288,9.6288,9.6288,9.6288,9.6288,9.6288,9.6288,9.6288,9.6288,9.6403,9.6865,9.7248,9.7633,9.8096,9.9211,10.0096,10.0096,10.0673,10.1289,10.1289,10.1289,10.1289,10.1289,10.1289,10.1289,10.1289,10.1289,10.1289,10.1289,10.1289,10.1289,10.1289,10.1289,10.1289,10.1289,10.1289,10.1289,10.1289,10.1789,10.2097,10.2097,10.2097,10.2097,10.2097,10.1597,10.1289,10.1289,10.1289,10.1289,10.1289,10.1289,10.1289,6.918,0.0,0.0,0.0,0.0,0.0,0.0,0.0,0.0,0.0,0.0,0.0,0.0,0.0,0.0,0.0,0.0,0.0,0.0,0.0,0.0,0.0,0.0,0.0,0.0,8.199,8.267,8.417,8.2439,8.2401,8.4786,8.544,8.6671,8.8632,8.9286,9.0094,9.121,9.121,9.1633,9.2479,9.271,9.3595,9.5018,9.5249,9.5711,9.6288,9.6288,9.6288,9.6288,9.6288,9.6288,9.6288,9.6288,9.6288,9.6288,9.6288,9.6288,9.6288,9.6288,9.6288,9.6288,9.6288,9.6288,9.6288,9.6288,9.6288,9.6288,9.6288,9.6288,9.648,9.7287,9.7673,9.8096,9.8942,9.9827,10.0404,10.0404,10.0904,10.1289,10.1289,10.1289,10.1289,10.1289,10.1289,10.1289,10.1289,10.1289,10.1289,10.1289,10.1289,10.1289,10.1289,10.1289,10.1289,10.1289,10.1289,10.1404,10.1597,10.252,10.3021,10.2981,10.2712,10.2597,10.2597,10.1712,10.1289,10.1289,10.1289,10.1289,10.1289,10.1289,10.1289,0.0,0.0,0.0,7.0312,0.0,0.0,0.0,0.0,6.914,0.0,0.0,0.0,0.0,0.0,0.0,0.0,0.0,0.0,0.0,0.0,0.0,0.0,0.0,0.0,0.0,7.8961,7.93,8.2432,8.0331,8.0645,8.4709,8.4939,8.6094,8.8632,8.8709,8.9517,9.1171,9.121,9.1633,9.2518,9.3287,9.4134,9.5018,9.5865,9.6288,9.6288,9.6288,9.6288,9.6288,9.6288,9.6288,9.6288,9.6288,9.6288,9.6288,9.6288,9.6288,9.6288,9.6288,9.6288,9.6288,9.6288,9.6288,9.6288,9.6288,9.6288,9.6288,9.6288,9.6288,9.648,9.7287,9.8096,9.898,9.9865,10.0673,10.1289,10.1289,10.1289,10.1289,10.1289,10.1289,10.1289,10.1289,10.1289,10.1289,10.1289,10.1289,10.1289,10.1289,10.1289,10.1289,10.1289,10.1289,10.1289,10.1289,10.1289,10.1712,10.252,10.3367,10.3906,10.3901,10.2976,10.2594,10.2597,10.1712,10.1289,10.1289,10.1289,10.1289,10.1289,10.1289,10.1289,0.0,0.0,7.7031,7.3008,0.0,0.0,0.0,0.0,0.0,0.0,0.0,0.0,0.0,0.0,0.0,0.0,0.0,0.0,0.0,0.0,0.0,0.0,0.0,0.0,0.0,0.0,7.979,8.0854,8.0023,8.0523,8.3054,8.3708,8.5209,8.7748,8.8402,8.9479,9.1171,9.121,9.1902,9.3287,9.3557,9.4441,9.5865,9.6172,9.6288,9.6288,9.6288,9.6288,9.6288,9.6288,9.6288,9.6288,9.6288,9.6288,9.6288,9.6288,9.6288,9.6288,9.6288,9.6288,9.6288,9.6288,9.6288,9.6288,9.6288,9.6288,9.6288,9.6288,9.6288,9.6596,9.7979,9.8596,9.9134,10.0596,10.1096,10.1289,10.1289,10.1289,10.1289,10.1289,10.1289,10.1289,10.1289,10.1289,10.1289,10.1289,10.1289,10.1289,10.1289,10.1289,10.1289,10.1289,10.1289,10.1289,10.1289,10.1789,10.2289,10.2594,10.3903,10.4672,10.471,10.3901,10.3518,10.3483,10.1981,10.1289,10.1289,10.1289,10.1289,10.1289,10.1289,10.1597,7.6992,7.8242,0.0,7.5156,7.4648,0.0,7.039,0.0,0.0,0.0,0.0,0.0,0.0,0.0,0.0,0.0,0.0,0.0,0.0,0.0,0.0,0.0,0.0,0.0,0.0,0.0,7.8282,7.9969,7.9138,7.9638,0.0,8.3401,8.5093,8.7325,8.8517,8.9787,9.121,9.121,9.2056,9.371,9.371,9.4595,9.6288,9.6288,9.6288,9.6288,9.6288,9.6288,9.6288,9.6288,9.6288,9.6288,9.6288,9.6288,9.6288,9.6288,9.6288,9.6288,9.6288,9.6288,9.6288,9.6288,9.6288,9.6288,9.6288,9.6288,9.6288,9.6288,9.6519,9.7056,9.844,9.9019,9.9634,10.1019,10.1289,10.1289,10.1289,10.1289,10.1289,10.1289,10.1289,10.1289,10.1289,10.1289,10.1289,10.1289,10.1289,10.1289,10.1289,10.1289,10.1289,10.1289,10.1289,10.1289,10.1289,10.2405,10.3097,10.3091,10.4593,10.5595,10.5595,10.4826,10.4172,10.3907,10.252,10.1597,10.1289,10.1289,10.1481,10.1789,10.1789,10.2405]},{"header":{"parameterUnit":"m.s-1","parameterCategory":1,"la1":30.6,"la2":29.2853,"lo1":-89.7004,"lo2":-87.6739,"dy":0.0162,"dx":0.0183,"nx":112,"ny":82,"refTime":"2026-02-20T12:00:00:Z","depth":0,"parameterNumber":3,"parameterNumberName":"V-component_of_WINDS"},"data":[0.0,0.0,0.0,0.0,0.0,0.0,0.0,0.0,0.0,0.0,0.0,0.0,0.0,0.0,0.0,0.0,0.0,0.0,0.0,0.0,0.0,0.0,0.0,0.0,0.0,0.0,0.0,0.0,0.0,0.0,0.0,0.0,0.0,0.0,0.0,0.0,0.0,0.0,0.0,0.0,0.0,0.0,0.0,0.0,0.0,0.0,0.0,0.0,0.0,0.0,0.0,0.0,0.0,0.0,0.0,0.0,0.0,0.0,0.0,0.0,0.0,0.0,0.0,0.0,0.0,0.0,0.0,0.0,0.0,0.0,0.0,0.0,0.0,0.0,0.0,0.0,0.0,0.0,0.0,0.0,0.0,0.0,0.0,0.0,0.0,0.0,0.0,0.0,0.0,0.0,0.0,-1.7488,-2.1508,-2.4302,-2.4556,-2.4262,-2.2615,-1.937,0.0,0.0,0.0,0.0,0.0,0.0,0.0,0.0,0.0,0.0,0.0,0.0,0.0,0.0,0.0,0.0,0.0,0.0,0.0,0.0,0.0,0.0,0.0,0.0,0.0,0.0,0.0,0.0,0.0,0.0,0.0,0.0,0.0,0.0,0.0,0.0,0.0,0.0,0.0,0.0,0.0,0.0,0.0,0.0,0.0,0.0,0.0,0.0,0.0,0.0,0.0,0.0,0.0,0.0,0.0,0.0,0.0,0.0,0.0,0.0,0.0,0.0,0.0,0.0,0.0,0.0,0.0,0.0,0.0,0.0,0.0,0.0,0.0,0.0,0.0,0.0,0.0,0.0,0.0,0.0,0.0,0.0,0.0,0.0,0.0,0.0,0.0,0.0,0.0,0.0,0.0,0.0,0.0,0.0,0.0,0.0,0.0,0.0,0.0,0.0,0.0,0.0,0.0,0.0,-1.7133,-2.1424,-2.3271,-2.4222,-2.4262,-2.3768,-2.1761,-1.7847,0.0,0.0,0.0,0.0,0.0,0.0,0.0,0.0,0.0,0.0,0.0,0.0,0.0,0.0,0.0,0.0,0.0,0.0,0.0,0.0,0.0,0.0,0.0,0.0,0.0,0.0,0.0,0.0,0.0,0.0,0.0,0.0,0.0,0.0,0.0,0.0,0.0,0.0,0.0,0.0,0.0,0.0,0.0,0.0,0.0,0.0,0.0,0.0,0.0,0.0,0.0,0.0,0.0,0.0,0.0,0.0,0.0,0.0,0.0,0.0,0.0,0.0,0.0,0.0,0.0,0.0,0.0,0.0,0.0,0.0,0.0,0.0,0.0,0.0,0.0,0.0,0.0,0.0,0.0,0.0,0.0,0.0,0.0,0.0,0.0,0.0,0.0,0.0,0.0,0.0,0.0,0.0,0.0,0.0,0.0,0.0,0.0,0.0,0.0,0.0,0.0,0.0,0.0,-1.5207,-1.7757,-2.2625,-2.3621,-2.4035,-2.4195,-2.3808,-2.1697,-1.7442,-1.7908,0.0,0.0,0.0,0.0,0.0,0.0,0.0,0.0,0.0,0.0,0.0,0.0,0.0,0.0,0.0,0.0,0.0,0.0,0.0,0.0,0.0,0.0,0.0,0.0,0.0,0.0,0.0,0.0,0.0,0.0,0.0,0.0,0.0,0.0,0.0,0.0,0.0,0.0,0.0,0.0,0.0,0.0,0.0,0.0,0.0,0.0,0.0,0.0,0.0,0.0,0.0,0.0,0.0,0.0,0.0,0.0,0.0,0.0,0.0,0.0,0.0,0.0,0.0,0.0,0.0,0.0,0.0,0.0,0.0,0.0,0.0,0.0,0.0,0.0,0.0,0.0,0.0,0.0,0.0,0.0,0.0,0.0,0.0,0.0,0.0,0.0,0.0,0.0,0.0,0.0,0.0,0.0,0.0,0.0,0.0,0.0,0.0,0.0,0.0,0.0,0.0,0.0,-1.6965,-1.89,-2.277,-2.3554,-2.3861,-2.4075,-2.3768,-2.1938,-1.7905,-1.7794,0.0,0.0,0.0,0.0,0.0,0.0,0.0,0.0,0.0,0.0,0.0,0.0,0.0,0.0,0.0,0.0,0.0,0.0,0.0,0.0,0.0,0.0,0.0,0.0,0.0,0.0,0.0,0.0,0.0,0.0,0.0,0.0,0.0,0.0,0.0,0.0,0.0,0.0,0.0,0.0,0.0,0.0,0.0,0.0,0.0,0.0,0.0,0.0,0.0,0.0,0.0,0.0,0.0,0.0,0.0,0.0,0.0,0.0,0.0,0.0,0.0,0.0,0.0,0.0,0.0,0.0,0.0,0.0,0.0,0.0,0.0,0.0,0.0,0.0,0.0,0.0,0.0,0.0,0.0,0.0,0.0,0.0,0.0,0.0,0.0,0.0,0.0,0.0,0.0,0.0,0.0,0.0,0.0,0.0,0.0,0.0,0.0,0.0,0.0,0.0,0.0,0.0,-1.9261,-2.1872,-2.2819,-2.342,-2.3781,-2.3794,-2.326,-2.1849,-1.9256,-1.7982,0.0,0.0,0.0,0.0,0.0,0.0,0.0,0.0,0.0,0.0,0.0,0.0,0.0,0.0,0.0,0.0,0.0,0.0,0.0,0.0,0.0,0.0,0.0,0.0,0.0,0.0,0.0,0.0,0.0,0.0,0.0,0.0,0.0,0.0,0.0,0.0,0.0,0.0,0.0,0.0,0.0,0.0,0.0,0.0,0.0,0.0,0.0,0.0,0.0,0.0,0.0,0.0,0.0,0.0,0.0,0.0,0.0,0.0,0.0,0.0,0.0,0.0,0.0,0.0,0.0,0.0,0.0,0.0,0.0,0.0,0.0,0.0,0.0,0.0,0.0,0.0,0.0,0.0,0.0,0.0,0.0,0.0,0.0,0.0,0.0,0.0,0.0,0.0,0.0,0.0,0.0,0.0,0.0,0.0,0.0,0.0,0.0,0.0,0.0,0.0,0.0,0.0,-1.8606,-2.1194,0.0,-2.3634,-2.3848,-2.4022,-2.35,-2.1569,-1.8027,0.0,0.0,0.0,0.0,0.0,0.0,0.0,0.0,0.0,0.0,0.0,0.0,0.0,0.0,0.0,0.0,0.0,0.0,0.0,0.0,0.0,0.0,0.0,0.0,0.0,0.0,0.0,0.0,0.0,0.0,0.0,0.0,0.0,0.0,0.0,0.0,0.0,0.0,0.0,0.0,0.0,0.0,0.0,0.0,0.0,0.0,0.0,0.0,0.0,0.0,0.0,0.0,0.0,0.0,0.0,0.0,0.0,0.0,0.0,0.0,0.0,0.0,0.0,0.0,0.0,0.0,0.0,0.0,0.0,0.0,0.0,0.0,0.0,0.0,0.0,0.0,0.0,0.0,0.0,0.0,0.0,0.0,0.0,0.0,0.0,0.0,0.0,0.0,0.0,0.0,0.0,0.0,0.0,0.0,0.0,0.0,0.0,0.0,0.0,0.0,0.0,0.0,-1.5972,-1.8724,-2.1225,0.0,-2.3848,-2.3981,-2.4182,-2.3567,-2.1556,-1.7773,0.0,0.0,0.0,0.0,0.0,0.0,0.0,0.0,0.0,0.0,0.0,0.0,0.0,0.0,0.0,0.0,0.0,0.0,0.0,0.0,0.0,0.0,0.0,0.0,0.0,0.0,0.0,0.0,0.0,0.0,0.0,0.0,0.0,0.0,0.0,0.0,0.0,0.0,0.0,0.0,0.0,0.0,0.0,0.0,0.0,0.0,0.0,0.0,0.0,0.0,0.0,0.0,0.0,0.0,0.0,0.0,0.0,0.0,0.0,0.0,0.0,0.0,0.0,0.0,0.0,0.0,0.0,0.0,0.0,0.0,0.0,0.0,0.0,0.0,0.0,0.0,0.0,0.0,0.0,0.0,0.0,0.0,0.0,0.0,0.0,0.0,0.0,0.0,0.0,0.0,0.0,0.0,0.0,0.0,0.0,0.0,0.0,0.0,0.0,0.0,0.0,0.0,-1.6139,-1.983,-2.2779,-2.3688,-2.4035,-2.4209,-2.4209,-2.338,-2.1815,0.0,0.0,0.0,0.0,0.0,0.0,0.0,0.0,0.0,0.0,0.0,0.0,0.0,0.0,0.0,0.0,0.0,0.0,0.0,0.0,0.0,0.0,0.0,0.0,0.0,0.0,0.0,0.0,0.0,0.0,0.0,0.0,0.0,0.0,0.0,0.0,0.0,0.0,0.0,0.0,0.0,0.0,0.0,0.0,0.0,0.0,0.0,0.0,0.0,0.0,0.0,0.0,0.0,0.0,0.0,0.0,0.0,0.0,0.0,0.0,0.0,0.0,0.0,0.0,0.0,0.0,0.0,0.0,0.0,0.0,0.0,0.0,0.0,0.0,0.0,0.0,0.0,0.0,0.0,0.0,0.0,0.0,0.0,0.0,0.0,0.0,0.0,0.0,0.0,0.0,0.0,0.0,0.0,0.0,0.0,0.0,0.0,0.0,0.0,0.0,0.0,0.0,0.0,0.0,-2.027,-2.3227,-2.4289,-2.4434,-2.4461,-2.4489,-2.3714,-2.2089,-1.9382,0.0,0.0,0.0,0.0,0.0,0.0,0.0,0.0,0.0,0.0,0.0,0.0,0.0,0.0,0.0,0.0,0.0,0.0,0.0,0.0,0.0,0.0,0.0,0.0,0.0,0.0,0.0,0.0,0.0,0.0,0.0,0.0,0.0,0.0,0.0,0.0,0.0,0.0,0.0,0.0,0.0,0.0,0.0,0.0,0.0,0.0,0.0,0.0,0.0,0.0,0.0,0.0,0.0,0.0,0.0,0.0,0.0,0.0,0.0,0.0,0.0,0.0,0.0,0.0,0.0,0.0,0.0,0.0,0.0,0.0,0.0,0.0,0.0,0.0,0.0,0.0,0.0,0.0,0.0,0.0,0.0,0.0,0.0,0.0,0.0,0.0,0.0,0.0,0.0,0.0,0.0,0.0,0.0,0.0,0.0,0.0,0.0,0.0,0.0,0.0,0.0,0.0,-1.6157,-2.0171,-2.339,-2.4541,-2.4556,-2.4649,-2.4621,-2.4179,-2.3131,-2.1267,0.0,0.0,0.0,0.0,0.0,0.0,0.0,0.0,0.0,0.0,0.0,0.0,0.0,0.0,0.0,0.0,0.0,0.0,0.0,0.0,0.0,0.0,0.0,0.0,0.0,0.0,0.0,0.0,0.0,0.0,0.0,0.0,0.0,0.0,0.0,0.0,0.0,0.0,0.0,0.0,0.0,0.0,0.0,0.0,0.0,0.0,0.0,0.0,0.0,0.0,0.0,0.0,0.0,0.0,0.0,0.0,0.0,0.0,0.0,0.0,0.0,0.0,0.0,0.0,0.0,0.0,0.0,0.0,0.0,0.0,0.0,0.0,0.0,0.0,0.0,0.0,0.0,0.0,0.0,0.0,0.0,0.0,0.0,0.0,0.0,0.0,0.0,0.0,0.0,0.0,0.0,0.0,0.0,0.0,0.0,0.0,0.0,0.0,0.0,0.0,0.0,0.0,-1.5337,-2.0035,-2.3314,-2.4416,-2.4634,-2.4756,-2.4547,-2.462,-2.4358,-2.3882,0.0,0.0,0.0,0.0,0.0,0.0,0.0,0.0,0.0,0.0,0.0,0.0,0.0,0.0,0.0,0.0,0.0,0.0,0.0,0.0,0.0,0.0,0.0,0.0,0.0,0.0,0.0,0.0,0.0,0.0,0.0,0.0,0.0,0.0,0.0,0.0,0.0,0.0,0.0,0.0,0.0,0.0,0.0,0.0,0.0,0.0,0.0,0.0,0.0,0.0,0.0,0.0,0.0,0.0,0.0,0.0,0.0,0.0,0.0,0.0,-1.2956,0.0,0.0,0.0,0.0,0.0,0.0,0.0,0.0,0.0,0.0,0.0,0.0,0.0,0.0,0.0,0.0,0.0,0.0,0.0,0.0,0.0,0.0,0.0,0.0,0.0,0.0,0.0,0.0,0.0,0.0,0.0,0.0,0.0,0.0,0.0,0.0,0.0,0.0,0.0,0.0,0.0,-1.5228,-2.0042,-2.3301,-2.4488,-2.5511,-2.5607,-2.471,-2.4649,-2.4593,-2.4381,0.0,0.0,0.0,0.0,0.0,0.0,0.0,0.0,0.0,0.0,0.0,0.0,0.0,0.0,0.0,0.0,0.0,0.0,0.0,0.0,0.0,0.0,0.0,0.0,0.0,0.0,0.0,0.0,0.0,0.0,0.0,0.0,0.0,0.0,0.0,0.0,0.0,0.0,0.0,0.0,0.0,0.0,0.0,0.0,0.0,0.0,0.0,0.0,0.0,0.0,0.0,0.0,0.0,0.0,0.0,0.0,0.0,0.0,0.0,0.0,0.0,-1.4114,0.0,0.0,0.0,0.0,0.0,0.0,0.0,0.0,0.0,0.0,0.0,0.0,0.0,0.0,0.0,0.0,0.0,0.0,0.0,0.0,0.0,0.0,0.0,0.0,0.0,0.0,0.0,0.0,0.0,0.0,0.0,0.0,0.0,0.0,0.0,0.0,0.0,0.0,0.0,0.0,-1.8291,-2.1919,-2.3931,-2.4468,-2.5106,-2.52,-2.4609,-2.5161,-2.5152,-2.4606,-2.1779,0.0,0.0,0.0,0.0,0.0,0.0,0.0,0.0,0.0,0.0,0.0,0.0,0.0,0.0,0.0,0.0,0.0,0.0,0.0,0.0,0.0,0.0,0.0,0.0,0.0,0.0,0.0,0.0,0.0,0.0,0.0,0.0,0.0,0.0,0.0,0.0,0.0,0.0,0.0,0.0,0.0,0.0,0.0,0.0,0.0,0.0,0.0,0.0,0.0,0.0,0.0,0.0,0.0,-1.6563,-1.6863,-1.7074,-1.7119,-1.8233,-1.9854,-1.7725,-1.7405,-1.8037,0.0,0.0,0.0,0.0,0.0,0.0,0.0,0.0,0.0,0.0,0.0,0.0,0.0,0.0,0.0,0.0,0.0,0.0,0.0,0.0,0.0,0.0,0.0,0.0,0.0,-1.8831,-1.9608,0.0,0.0,0.0,0.0,0.0,0.0,0.0,0.0,0.0,0.0,0.0,0.0,-2.1692,-2.3845,-2.4539,-2.4631,-2.4717,-2.4961,-2.4856,-2.5869,-2.589,-2.4734,-2.2606,-2.0856,0.0,0.0,0.0,0.0,0.0,0.0,0.0,0.0,0.0,0.0,0.0,0.0,0.0,0.0,0.0,0.0,0.0,0.0,0.0,0.0,0.0,0.0,0.0,0.0,0.0,0.0,0.0,0.0,0.0,0.0,0.0,0.0,-1.2958,-1.438,0.0,0.0,0.0,0.0,0.0,0.0,0.0,0.0,0.0,0.0,0.0,0.0,0.0,-1.5276,-1.5792,-1.7451,-1.8451,-1.8486,-2.0497,-2.1541,-2.1593,-2.1841,-2.2159,-2.2413,-2.2382,0.0,-1.9112,-1.843,0.0,0.0,0.0,0.0,0.0,0.0,0.0,0.0,0.0,0.0,0.0,0.0,0.0,0.0,0.0,0.0,0.0,0.0,0.0,0.0,0.0,0.0,-2.0248,-2.0302,-2.1494,-2.239,0.0,-2.0232,-1.9813,-2.0892,-1.4432,0.0,0.0,0.0,0.0,0.0,0.0,0.0,-2.1687,-2.3873,-2.4616,-2.4534,-2.5609,-2.6171,-2.6087,-2.6254,-2.588,-2.4663,-2.3327,-2.2151,-2.0954,-2.0011,0.0,0.0,0.0,0.0,0.0,0.0,0.0,0.0,0.0,0.0,0.0,0.0,0.0,0.0,0.0,0.0,0.0,0.0,0.0,0.0,0.0,0.0,0.0,0.0,0.0,0.0,0.0,0.0,0.0,-1.2299,-1.2675,-1.3498,-1.2166,-1.1012,0.0,0.0,0.0,0.0,0.0,0.0,0.0,0.0,0.0,-1.7349,-1.7634,-1.8279,-1.948,-2.0661,-2.1219,-2.1398,-2.2466,-2.302,-2.318,-2.3313,-2.346,-2.3621,-2.3754,-2.309,-2.1987,-2.027,-1.8243,-1.6043,0.0,0.0,0.0,0.0,-1.4094,-1.452,-1.6695,-1.7326,0.0,-1.6334,0.0,0.0,0.0,0.0,0.0,0.0,0.0,0.0,0.0,0.0,-1.5788,-2.0047,-2.2553,-2.3814,-2.3844,-2.2996,-2.2025,0.0,-1.8594,-1.5785,-1.5772,0.0,0.0,0.0,0.0,0.0,-2.227,-2.3899,-2.4674,-2.4553,-2.5661,-2.6432,-2.6329,-2.6361,-2.5882,-2.4727,-2.4098,-2.3305,-2.2198,-2.2107,-2.0165,0.0,0.0,0.0,0.0,0.0,0.0,0.0,0.0,0.0,0.0,0.0,0.0,0.0,0.0,0.0,0.0,0.0,0.0,0.0,0.0,0.0,0.0,0.0,0.0,0.0,0.0,0.0,0.0,-1.2812,-1.3324,-1.3184,-1.3323,-1.2773,0.0,0.0,0.0,0.0,0.0,0.0,-1.6385,-1.6407,-1.7519,-1.9801,-2.0166,-2.1073,-2.2752,-2.2979,-2.3207,-2.3447,-2.3514,-2.3674,-2.3888,-2.3955,-2.4115,-2.4315,-2.4315,-2.4275,-2.3984,-2.1887,-2.0331,-1.9018,-1.7345,-1.6316,-1.596,-1.6328,-1.656,-1.713,-1.9232,-1.9924,-1.9813,-1.9646,0.0,-1.6915,-1.5502,0.0,0.0,0.0,0.0,-1.7063,-1.699,-1.5119,-1.4671,-2.0653,-2.3298,-2.4624,-2.4556,-2.3977,-2.2343,0.0,-1.9927,-2.1115,-2.1123,0.0,0.0,0.0,0.0,-2.1582,-2.3199,-2.4131,-2.4543,-2.457,-2.5684,-2.6416,-2.641,-2.6343,-2.5908,-2.475,-2.4647,-2.4263,-2.3399,-2.3283,-2.2724,-2.1642,0.0,0.0,0.0,0.0,0.0,0.0,0.0,0.0,0.0,0.0,0.0,0.0,0.0,0.0,0.0,0.0,0.0,0.0,0.0,0.0,0.0,0.0,0.0,0.0,0.0,0.0,0.0,0.0,0.0,-1.538,-1.591,0.0,0.0,0.0,0.0,-1.5366,-1.5366,-1.6418,-1.8673,-1.8709,-1.998,-2.2589,-2.2792,-2.3086,-2.3701,-2.3714,-2.3728,-2.3754,-2.4022,-2.4168,-2.4195,-2.4462,-2.4596,-2.4609,-2.4609,-2.4462,-2.4182,-2.3834,-2.2179,-1.9975,-1.9448,-1.7882,-1.635,-1.8105,-1.8875,-1.9446,-2.1035,-2.1797,-2.2141,-2.1888,-1.917,-1.6529,-1.9736,-1.5157,0.0,0.0,-1.5533,-2.2549,-2.2525,-2.2415,-2.2639,-2.4008,-2.4528,-2.4529,-2.458,-2.4562,-2.1815,0.0,-1.6573,-2.1111,-2.1074,0.0,-1.1553,-1.9312,-2.0851,-2.1988,-2.4275,-2.4616,-2.4543,-2.457,-2.5684,-2.6348,-2.6466,-2.6389,-2.5908,-2.475,-2.4676,-2.4512,-2.4499,-2.4537,-2.3997,-2.2882,-2.1276,0.0,0.0,0.0,0.0,0.0,0.0,0.0,0.0,0.0,0.0,0.0,0.0,0.0,0.0,0.0,0.0,0.0,0.0,0.0,0.0,0.0,0.0,0.0,0.0,0.0,0.0,0.0,0.0,-1.6222,-1.7862,0.0,0.0,-1.7307,-1.8058,-1.7966,-1.9169,-2.0441,-2.1662,-2.17,-2.2258,-2.342,-2.3634,-2.3834,-2.4048,-2.4235,-2.4329,-2.4329,-2.4436,-2.4476,-2.4489,-2.4596,-2.4636,-2.4636,-2.4636,-2.4583,-2.4476,-2.4369,-2.3628,-2.2396,-2.2009,-2.1419,-2.0959,-2.1293,-2.1569,-2.1849,-2.2665,-2.3192,-2.3213,-2.2775,-2.1015,-1.9638,-2.162,-2.019,-1.7855,-1.7851,-2.0265,-2.2951,-2.2953,-2.3394,-2.4039,-2.4444,-2.4596,-2.4609,-2.4663,-2.4634,-2.3576,-2.0283,-2.102,-2.2311,-2.2198,-1.9193,-1.8063,-2.1639,-2.2298,-2.2783,-2.4355,-2.4616,-2.4663,-2.4665,-2.5745,-2.6392,-2.6348,-2.5742,-2.502,-2.4586,-2.4541,-2.4649,-2.4649,-2.4589,-2.4396,-2.4038,-2.2791,-2.1685,0.0,0.0,0.0,0.0,0.0,0.0,0.0,0.0,0.0,0.0,0.0,0.0,0.0,0.0,0.0,0.0,0.0,0.0,0.0,0.0,0.0,0.0,0.0,0.0,0.0,0.0,-1.8699,-1.6707,-1.9487,-2.0452,-1.8049,-1.9627,-2.0781,-2.0781,-2.1945,-2.2953,-2.3447,-2.3474,-2.3607,-2.3915,-2.4102,-2.4249,-2.4342,-2.4543,-2.4636,-2.4636,-2.4636,-2.4636,-2.4636,-2.4636,-2.4636,-2.4636,-2.4636,-2.4636,-2.4636,-2.4636,-2.4409,-2.4035,-2.3897,-2.3674,-2.343,-2.3232,-2.3182,-2.3301,-2.3918,-2.4088,-2.387,-2.3134,-2.2303,-2.1831,-2.2726,-2.2887,-2.2928,-2.2957,-2.2876,-2.2862,-2.2854,-2.3776,-2.4671,-2.4593,-2.4663,-2.4636,-2.4636,-2.4649,-2.4647,-2.4553,-2.3722,-2.2942,-2.289,-2.2258,-2.2015,-2.275,-2.3268,-2.3688,-2.4487,-2.4634,-2.4581,-2.4547,-2.5254,-2.5841,-2.5854,-2.5064,-2.4661,-2.4621,-2.4542,-2.463,-2.4539,-2.4528,-2.4553,-2.4616,-2.3539,-2.1977,-1.9915,0.0,0.0,0.0,0.0,0.0,0.0,0.0,0.0,0.0,0.0,0.0,0.0,0.0,0.0,0.0,0.0,0.0,0.0,0.0,0.0,0.0,0.0,0.0,-1.5794,-1.7931,-1.8816,-1.7224,-2.0931,-2.2871,-2.0488,-2.2025,-2.3213,-2.3354,-2.3354,-2.3487,-2.3781,-2.3794,-2.3928,-2.4209,-2.4222,-2.4356,-2.4636,-2.4636,-2.4636,-2.4636,-2.4636,-2.4636,-2.4636,-2.4636,-2.4636,-2.4636,-2.4636,-2.4636,-2.4636,-2.4636,-2.4636,-2.4609,-2.4647,-2.4206,-2.3625,-2.3781,-2.3811,-2.3931,-2.4382,-2.4593,-2.4419,-2.3287,-2.2881,-2.2873,-2.2859,-2.2859,-2.2859,-2.2859,-2.2873,-2.2855,-2.2962,-2.3768,-2.4583,-2.4663,-2.4636,-2.4636,-2.4636,-2.4636,-2.4556,-2.4607,-2.3667,-2.2962,-2.2993,-2.2907,-2.2897,-2.301,-2.3594,0.0,-2.4548,-2.4569,-2.4581,-2.4534,-2.456,-2.456,-2.456,-2.4541,-2.4542,-2.4209,-2.4341,-2.447,-2.4442,-2.4493,-2.4487,-2.4452,-2.3345,-2.1122,-1.7694,0.0,0.0,0.0,0.0,0.0,0.0,0.0,0.0,0.0,0.0,0.0,0.0,0.0,0.0,0.0,0.0,0.0,0.0,0.0,0.0,0.0,0.0,-1.7989,-1.8047,-1.9287,-2.0653,-2.171,-2.2125,-2.2422,-2.3028,-2.2244,-2.2331,-2.3811,-2.3968,-2.4088,-2.4382,-2.4396,-2.4436,-2.4516,-2.4516,-2.4556,-2.4636,-2.4636,-2.4636,-2.4636,-2.4636,-2.4636,-2.4636,-2.4636,-2.4636,-2.4636,-2.4636,-2.4636,-2.4636,-2.4636,-2.4636,-2.4636,-2.4556,-2.4476,-2.4236,-2.4396,-2.4449,-2.4369,-2.4609,-2.4569,-2.4377,-2.3197,-2.2871,-2.2849,-2.2926,-2.2859,-2.2859,-2.2859,-2.2868,-2.2968,-2.2873,-2.3758,-2.4657,-2.4556,-2.4636,-2.4636,-2.4636,-2.4636,-2.4609,-2.4543,-2.4302,-2.4195,-2.4099,-2.3492,-2.3132,-2.3964,-1.9083,0.0,-2.3784,-2.4569,-2.4636,-2.4623,-2.4623,-2.4555,-2.4591,-2.4636,-2.1764,-1.4907,-2.0152,-2.3025,-2.2078,-2.2115,-2.1685,-2.0808,-2.128,-2.1149,0.0,0.0,0.0,0.0,0.0,0.0,0.0,0.0,0.0,0.0,0.0,0.0,0.0,0.0,0.0,0.0,0.0,0.0,0.0,0.0,0.0,0.0,-1.6364,-1.8562,-1.9586,-2.0979,-2.2149,-2.2582,-2.2852,-2.2744,-2.2705,-2.2718,-2.3184,-2.4236,-2.4382,-2.4462,-2.4623,-2.4636,-2.4636,-2.4636,-2.4636,-2.4636,-2.4636,-2.4636,-2.4636,-2.4636,-2.4636,-2.4636,-2.4636,-2.4636,-2.4636,0.0,-2.4636,-2.4636,-2.4636,-2.4636,-2.4636,0.0,0.0,0.0,0.0,0.0,-2.4636,-2.4636,-2.4636,-2.4609,-2.4499,-2.3838,-2.3337,-2.2828,-2.2948,-2.2953,-2.2886,-2.2868,-2.2875,-2.2959,-2.3522,-2.4075,-2.4607,-2.4569,-2.4636,-2.4636,-2.4636,-2.4636,-2.4636,-2.4636,-2.4636,0.0,-2.4526,-2.3984,-2.3813,-2.4458,-2.0241,-1.8927,-2.3888,-2.4555,-2.4621,-2.4568,-2.1347,-1.918,-1.9156,-2.2905,0.0,0.0,0.0,-2.2052,-2.1808,-2.1914,0.0,0.0,0.0,0.0,0.0,0.0,0.0,0.0,-1.8951,-1.9082,0.0,0.0,0.0,0.0,0.0,0.0,0.0,0.0,0.0,0.0,0.0,0.0,0.0,0.0,0.0,0.0,-1.639,-1.7986,-2.0104,-2.2425,-2.3287,-2.1726,-2.3041,-2.3179,-2.1314,-2.2843,-2.4084,-2.4528,-2.4528,-2.4663,-2.4636,0.0,0.0,0.0,0.0,-2.4636,-2.4636,-2.4636,-2.4636,-2.4636,-2.4636,-2.4636,-2.4636,-2.4636,-2.4636,-2.4636,-2.4636,-2.4636,-2.4636,-2.4636,-2.4636,-2.4636,-2.4636,-2.4636,-2.4636,-2.4636,-2.4636,-2.4636,-2.4636,0.0,0.0,-2.4553,-2.3861,-2.31,-2.292,-2.2875,-2.2868,-2.2841,-2.2933,-2.3386,-2.439,-2.4566,-2.4647,-2.4583,-2.4636,-2.4636,-2.4636,-2.4636,-2.4636,-2.4636,-2.4636,-2.4649,-2.4528,-2.4649,-2.4529,-2.463,-2.4569,-2.4609,-2.4543,-2.4674,-2.4586,-2.4763,0.0,0.0,-1.3319,-2.1279,-2.5828,-2.4647,-2.2666,-2.191,-2.2889,-2.2841,-2.2855,-2.2957,-2.2982,-2.3134,-2.3153,-2.3153,-2.3143,-2.3054,-2.1957,-2.1484,0.0,0.0,0.0,0.0,0.0,0.0,0.0,0.0,0.0,0.0,0.0,0.0,0.0,0.0,0.0,-1.1934,-1.4428,-1.7318,-1.8448,-2.2019,-2.437,-2.3967,-2.1414,-2.0781,-2.3554,-2.1425,-2.1182,-2.4344,-2.4644,-2.4552,-2.4649,-2.4636,0.0,-2.4636,-2.4636,-2.4636,-2.4636,-2.4636,-2.4636,-2.4636,0.0,0.0,-2.4636,-2.4636,-2.4636,-2.4636,-2.4636,-2.4636,-2.4636,-2.4636,-2.4636,-2.4636,-2.4636,-2.4636,-2.4636,-2.4636,-2.4636,-2.4636,-2.4636,-2.4609,-2.4529,-2.4607,-2.4458,-2.4152,-2.3119,-2.2847,0.0,-2.2873,-2.3535,-2.4377,-2.4512,-2.4555,-2.4569,-2.4623,-2.4636,-2.4636,-2.4636,-2.4636,-2.4636,-2.4636,-2.4636,-2.4555,-2.4618,-2.4621,-2.4609,-2.4543,-2.4596,-2.4555,-2.4591,-2.4534,-2.4966,-2.5951,-2.4479,-2.3579,-2.3458,-2.5371,-2.5937,-2.4741,-2.417,-2.3665,-2.2858,-2.2872,-2.2947,-2.2879,-2.3813,-2.4222,-2.4223,-2.4223,-2.4209,-2.4284,-2.3958,-2.3983,0.0,0.0,0.0,0.0,0.0,0.0,0.0,0.0,0.0,0.0,0.0,-1.399,0.0,0.0,-1.6014,-1.6138,-1.6945,-1.7605,-1.8329,-2.1974,-2.3965,-2.2035,-2.1699,-2.0779,-1.8687,-2.1013,-2.3304,-2.5312,-2.494,-2.4657,-2.4586,-2.4573,-2.4671,-2.4539,-2.4525,-2.4525,-2.4525,-2.4525,-2.4591,-2.4573,-2.4573,-2.4573,-2.4573,-2.4573,-2.4573,-2.456,-2.4591,-2.4605,-2.4573,-2.4573,-2.4573,-2.456,-2.4578,-2.4595,-2.4636,-2.4636,-2.4636,-2.4636,-2.4636,-2.4636,-2.4609,-2.4636,-2.4647,-2.4499,-2.3877,-2.3731,-2.3794,-2.3785,-2.4102,-2.4566,-2.4555,-2.4543,-2.4636,-2.4636,-2.4581,-2.4525,-2.4525,-2.4525,-2.4565,-2.4547,-2.4618,-2.4618,-2.4566,-2.517,-2.5254,-2.4737,-2.4573,-2.4625,-2.4592,-2.508,-2.5725,-2.6334,-2.6471,-2.6439,-2.6418,-2.6375,-2.6088,-2.5483,-2.4918,-2.4596,-2.4596,-2.4716,-2.4703,-2.4688,-2.5202,-2.5446,-2.5431,-2.5431,-2.5567,-2.5504,-2.5568,-2.5458,0.0,0.0,0.0,0.0,0.0,0.0,0.0,0.0,-1.3302,-1.441,-1.4617,-1.4958,-1.595,-1.6176,-1.7581,-2.1765,-2.0672,-1.9018,-1.7719,-2.0379,-2.193,-2.0612,-2.3043,-2.2443,-1.5814,-2.0398,-2.3885,-2.3835,-2.4532,-2.4946,-2.4905,-2.4892,-2.4953,-2.4895,-2.4678,-2.4639,-2.4639,-2.4816,-2.4935,-2.4993,-2.4993,-2.4993,-2.4993,-2.4993,-2.4993,-2.498,-2.4744,-2.477,-2.4993,-2.4993,-2.4993,-2.4967,-2.4921,-2.4847,-2.4621,-2.4528,-2.4636,-2.4636,-2.4636,-2.4636,-2.4636,-2.4636,-2.4636,-2.462,-2.462,-2.4616,-2.4638,-2.4553,-2.462,-2.4661,-2.4583,-2.4528,-2.4568,-2.4568,-2.4605,-2.4652,-2.4829,-2.498,-2.4882,-2.4609,-2.4809,-2.4921,-2.5019,-2.5765,-2.6099,-2.5172,-2.4993,-2.5006,-2.4905,-2.5798,-2.6337,-2.6391,-2.6464,-2.6466,-2.6466,-2.6391,-2.6443,-2.6389,-2.5469,-2.5348,-2.6281,-2.6446,-2.646,-2.6364,-2.6377,-2.632,-2.6384,-2.6384,-2.6337,-2.6383,-2.6383,-2.6405,-1.0333,-1.0729,0.0,-1.43,-1.4626,-1.5731,0.0,0.0,-1.728,-2.014,-2.0446,-2.026,-2.0402,-2.0427,-2.12,-2.3931,-2.4039,-2.1517,-1.4882,-1.4396,-1.7297,-2.4763,-2.5937,-2.5757,-2.4874,-1.8756,-1.482,-1.4837,-2.1862,-2.6276,-2.6175,-2.6162,-2.6148,-2.6275,-2.5212,-2.4609,-2.4609,-2.5644,-2.6183,-2.6211,-2.6211,-2.6211,-2.6211,-2.6211,-2.6211,-2.6197,-2.5119,-2.5146,-2.6211,-2.6211,-2.6211,-2.6211,-2.617,-2.5604,-2.4657,-2.4661,-2.4636,-2.4636,-2.4636,-2.4636,-2.4636,-2.4636,-2.4623,-2.4596,-2.4596,-2.4569,-2.4556,-2.4583,-2.4596,-2.4596,-2.4636,-2.4661,-2.4534,-2.4534,-2.4566,-2.494,-2.599,-2.617,-2.5824,-2.4814,-2.5491,-2.6252,-2.6202,-2.6256,-2.6343,-2.6252,-2.6211,-2.6139,-2.6216,-2.6283,-2.6405,-2.6319,-2.6414,-2.6413,-2.6413,-2.636,-2.6387,-2.6477,-2.6294,-2.6241,-2.6441,-2.6479,-2.6436,-2.6462,-2.6462,-2.6475,-2.6339,-2.6339,-2.6352,-2.6379,-2.6379,-2.641,-1.663,0.0,0.0,0.0,-1.7134,-1.7746,-1.9584,-1.8709,-1.8186,-2.1267,-2.1515,-2.1309,-2.2017,-2.2688,-2.1882,0.0,-1.7808,-1.7069,-1.3895,-1.336,-1.6606,-2.5435,-2.1871,-1.8789,-1.8894,-1.5472,-1.5448,-2.0502,-2.4368,-2.4258,-1.9045,-1.8778,-2.121,-2.6276,-2.5879,-2.5604,-2.5604,-2.6121,-2.6384,-2.6378,-2.6378,-2.6378,-2.6378,-2.6378,-2.6452,-2.6316,-2.5932,-2.5932,-2.6471,-2.6466,-2.6378,-2.6364,-2.6371,-2.6121,-2.5551,-2.4796,-2.4534,-2.4591,-2.4586,-2.4534,-2.4591,-2.4586,-2.4534,-2.4565,-2.4565,-2.4608,-2.4663,-2.4674,-2.4565,-2.4591,-2.4599,-2.4566,-2.4809,-2.5496,-2.5725,-2.5772,-2.6289,-2.6457,-2.6175,-2.5803,-2.6061,-2.6384,-2.6343,-2.6383,-2.6397,-2.645,-2.6472,-2.6418,-2.637,-2.636,-2.6387,-2.6331,-2.7014,-2.7446,-2.7446,-2.6716,-2.6462,-2.6357,-2.7014,-2.7446,-2.7446,-2.7391,-2.7445,-2.7445,-2.7445,-2.7445,-2.7445,-2.7445,-2.7445,-2.7445,-2.7445,-2.7472,-1.9236,0.0,0.0,-1.7748,-1.8956,-1.9776,-1.9781,-1.9101,-1.9328,-2.175,-2.1836,-2.1821,-2.2767,-2.1963,0.0,-1.3428,-1.2956,-1.3359,-1.3332,-1.544,-1.8513,-2.2316,-1.7091,-1.3152,-1.3384,-1.3404,-1.5967,-2.2419,-2.278,-2.0079,-1.381,-1.3374,-1.7449,-2.6136,-2.6397,-2.6445,-2.6343,-2.6343,-2.6437,-2.6466,-2.6466,-2.644,-2.6386,-2.6386,-2.645,-2.6432,-2.6464,-2.6437,-2.6445,-2.6464,-2.6386,-2.6373,-2.6343,-2.6418,-2.6235,-2.5476,-2.5159,-2.5059,-2.4749,-2.4862,-2.5073,-2.5106,-2.504,-2.5033,-2.4691,-2.4547,-2.4591,-2.4625,-2.4855,-2.5086,-2.5119,-2.5058,-2.5291,-2.6167,-2.6384,-2.6418,-2.6418,-2.6418,-2.6472,-2.636,-2.6397,-2.6356,-2.6453,-2.6334,-2.6427,-2.6357,-2.676,-2.68,-2.6441,-2.664,-2.6879,-2.6967,-2.7743,-2.814,-2.814,-2.7388,-2.683,-2.683,-2.7743,-2.8167,-2.8235,-2.8249,-2.8249,-2.8249,-2.8249,-2.8249,-2.8249,-2.8249,-2.8249,-2.8249,-2.8249,-2.8179,0.0,0.0,-1.546,-1.7183,-1.9844,-2.1932,-2.1887,-2.1393,-2.1291,-2.255,-2.2897,-2.2898,-2.2879,-1.737,-1.2721,-1.2527,-1.2958,-1.3436,-1.3336,-2.0607,-2.298,-1.4822,-1.3116,-1.2742,0.0,-1.3384,-1.3575,-1.3753,-1.3753,-1.3746,-1.3404,-1.3322,-1.7315,-2.6112,-2.6414,-2.6466,-2.6334,-2.6334,-2.6347,-2.6347,-2.6347,-2.6414,-2.6386,-2.6386,-2.6386,-2.6373,-2.6386,-2.6386,-2.6373,-2.6386,-2.6386,-2.6386,-2.6373,-2.6373,-2.6373,-2.636,-2.6351,-2.6197,-2.4993,-2.5338,-2.6364,-2.6377,-2.6377,-2.6183,-2.498,-2.4635,-2.4622,-2.4635,-2.5491,-2.6364,-2.6377,-2.6416,-2.6297,-2.6452,-2.6343,-2.6373,-2.6373,-2.6373,-2.6373,-2.6386,-2.6386,-2.6466,-2.64,-2.6439,-2.637,-2.6457,-2.7418,-2.7785,-2.6509,-2.7431,-2.8112,-2.8207,-2.8234,-2.8247,-2.8247,-2.8234,-2.8068,-2.8068,-2.8234,-2.819,-2.8278,-2.8123,-2.8123,-2.8123,-2.8123,-2.8123,-2.8123,-2.8123,-2.8123,-2.8123,-2.8123,-2.8123,0.0,0.0,-1.6343,-1.9638,-2.1833,-2.32,-2.3245,-2.2666,-2.2461,-2.2806,-1.8871,-1.5404,-1.5443,-1.388,-1.2496,-1.256,-1.2998,-1.5377,-2.1231,-1.9558,-1.6529,-1.3276,-1.2661,0.0,0.0,0.0,0.0,-1.3342,-1.3349,-1.3349,-1.3349,-1.3418,-1.7448,-2.613,-2.6423,-2.6318,-2.6384,-2.0695,-1.7718,-1.7796,-2.3707,-2.6453,-2.6386,-2.6386,-2.6386,-2.6386,-2.6386,-2.6386,-2.6386,-2.6386,-2.6386,-2.6386,-2.6386,-2.6386,-2.6386,-2.6386,-2.6437,-2.6276,-2.5923,-2.6128,-2.6371,-2.6391,-2.6324,-2.633,-2.598,-2.5832,-2.5738,-2.5758,-2.6148,-2.6384,-2.6391,-2.6356,-2.6464,-2.648,-2.6427,-2.6373,-2.6384,-2.6423,-2.6423,-2.6423,-2.6423,-2.6449,-2.6365,-2.7108,-2.7581,-2.7522,-2.7948,-2.8071,-2.77,-2.7933,-2.822,-2.8157,-2.8184,-2.8184,-2.8184,-2.8184,-2.8184,-2.8184,-2.8184,-2.8224,-2.8136,-2.8136,-2.8136,-2.8136,-2.8136,-2.8136,-2.8136,-2.8136,-2.8136,-2.8136,-2.8136,-2.8136,0.0,-1.8804,-1.902,-2.1622,-2.3232,-2.4112,-2.4062,-2.3838,-2.3535,-2.3466,-1.9288,-1.4662,-1.1566,-1.144,-1.294,-1.6283,-1.752,-1.8926,-2.1329,-1.6956,-1.3212,-1.2874,-1.2575,0.0,0.0,0.0,0.0,-1.3308,-1.3322,-1.3342,-1.3397,-1.3466,-1.5967,-2.1534,-2.1741,-2.1687,-2.1741,-1.6195,-1.4946,-1.804,-2.3756,-2.6453,-2.6386,-2.6386,-2.6386,-2.6386,-2.6386,-2.6386,-2.6386,-2.6386,-2.6386,-2.6386,-2.6386,-2.6386,-2.6386,-2.6386,-2.6386,-2.6386,-2.6386,-2.6437,-2.6329,-2.6333,-2.6437,-2.6459,-2.6459,-2.6337,-2.6398,-2.6405,-2.637,-2.6477,-2.6321,-2.6441,-2.6386,-2.6397,-2.6786,-2.7028,-2.7038,-2.7078,-2.7078,-2.7078,-2.7078,-2.7105,-2.7033,-2.7687,-2.8207,-2.8203,-2.8247,-2.8207,-2.8203,-2.823,-2.813,-2.8123,-2.8136,-2.8136,-2.8136,-2.8136,-2.8136,-2.8136,-2.8136,-2.8136,-2.8136,-2.8136,-2.8136,-2.8136,-2.8136,-2.8136,-2.8136,-2.8136,-2.8136,-2.8136,-2.8136,-2.8136,-1.9923,-2.1603,-2.2955,-2.3012,-2.3838,-2.462,-2.4556,-2.4569,-2.463,-2.448,-2.3687,-2.0161,0.0,0.0,-1.3612,-2.2456,-2.4945,-2.2754,-1.4548,-1.3418,-1.3354,0.0,0.0,0.0,0.0,0.0,0.0,-1.3315,0.0,-1.3404,-1.339,-1.3473,-1.3418,-1.3418,-1.3336,-1.3329,-1.3418,-1.3411,-1.762,-2.5762,-2.6265,-2.6414,-2.6386,-2.6386,-2.64,-2.64,-2.64,-2.64,-2.64,-2.64,-2.64,-2.6413,-2.64,-2.64,-2.6413,-2.6413,-2.6413,-2.6413,-2.6413,-2.64,-2.6386,-2.6386,-2.6386,-2.6386,-2.6386,-2.64,-2.6413,-2.6413,-2.6441,-2.6479,-2.6479,-2.6502,-2.6522,-2.6535,-2.7295,-2.8221,-2.8221,-2.8235,-2.8235,-2.8235,-2.8235,-2.8153,-2.8234,-2.8144,-2.8136,-2.8136,-2.8136,-2.8136,-2.8136,-2.8136,-2.8136,-2.8136,-2.8136,-2.8136,-2.8136,-2.8136,-2.8136,-2.8136,-2.8136,-2.8136,-2.8136,-2.8136,-2.8136,-2.8136,-2.8136,-2.8136,-2.8136,-2.8136,-2.8136,-2.8136,-2.8136,-2.8136,-2.1827,-2.2592,-2.3113,-2.3968,-2.4329,-2.4649,-2.4674,-2.4575,-2.4364,-2.3457,-2.3051,-2.0285,0.0,0.0,0.0,-1.373,-1.4952,0.0,-1.2936,-1.318,0.0,0.0,0.0,-1.2481,-1.2575,-1.2569,0.0,0.0,-1.3173,-1.3404,-1.339,-1.3376,-1.3363,-1.3363,-1.3342,-1.3336,-1.3363,-1.3446,-1.4542,-1.6811,-2.3246,-2.6414,-2.6386,-2.6386,-2.6466,-2.6441,-2.6441,-2.6441,-2.6441,-2.6441,-2.648,-2.6334,-2.6466,-2.6348,-2.636,-2.636,-2.636,-2.636,-2.636,-2.6387,-2.6386,-2.6386,-2.6386,-2.6386,-2.6386,-2.6361,-2.636,-2.636,-2.6384,-2.6593,-2.7514,-2.7758,-2.7689,-2.7727,-2.796,-2.8207,-2.8244,-2.8284,-2.8284,-2.8284,-2.8284,-2.813,-2.8197,-2.8265,-2.8136,-2.8136,-2.8136,-2.8136,-2.8136,-2.8136,-2.8136,-2.8136,-2.8136,-2.8136,-2.8136,-2.8136,-2.8136,-2.8136,-2.8136,-2.8136,-2.8136,-2.8136,-2.8136,-2.8136,-2.8136,-2.8136,-2.8136,-2.8136,-2.8136,-2.8136,-2.8136,-2.8136,-2.2753,-2.322,-2.3838,-2.4485,-2.4647,-2.4528,-2.4638,-2.4227,-2.3583,-2.2364,-1.947,0.0,0.0,0.0,0.0,0.0,0.0,0.0,-1.2802,-1.3132,-1.32,0.0,-1.295,0.0,-1.2963,-1.2956,-1.2856,0.0,-1.3173,-1.3404,-1.339,-1.3403,-1.3403,-1.3403,-1.3464,-1.3331,-1.3331,-1.3376,-1.3432,-1.3499,-2.2196,-2.6452,-2.6361,-2.6441,-2.64,-2.6183,0.0,-2.0716,-2.1005,-2.4789,-2.641,-2.6449,-2.7015,-2.6867,-2.6462,-2.6462,-2.6664,-2.7203,-2.7203,-2.6894,-2.6386,-2.6441,-2.648,-2.64,-2.64,-2.6344,-2.6475,-2.7014,-2.7228,-2.7277,-2.8016,-2.8125,-2.8247,-2.823,-2.8257,-2.813,-2.8278,-2.8136,-2.8136,-2.8136,-2.8136,-2.8136,-2.8136,-2.8136,-2.8136,-2.8136,-2.8136,-2.8136,-2.8136,-2.8136,-2.8136,-2.8136,-2.8136,-2.8136,-2.8136,-2.8136,-2.8136,-2.8136,-2.8136,-2.8136,-2.8136,-2.8136,-2.8136,-2.8136,-2.8136,-2.8136,-2.8136,-2.8136,-2.8136,-2.8136,-2.8136,-2.8136,-2.3036,-2.3917,-2.4553,-2.458,-2.4566,-2.4575,-2.441,-2.273,-2.0822,-1.9771,0.0,0.0,-0.9837,0.0,-1.0219,-1.1561,0.0,-1.3363,-1.3418,-1.3429,-1.3394,-1.3356,-1.3429,-1.3353,-1.3353,-1.3353,-1.3401,-1.3363,-1.3391,-1.3446,-1.3397,-1.3403,-1.341,-1.3431,-1.3405,-1.3485,-1.3479,-1.3358,-1.3403,-1.3473,-2.1095,-2.4698,-2.4715,-2.5801,-2.5753,-2.4196,-1.676,0.0,-1.4102,-2.3024,-2.6587,-2.6803,-2.7867,-2.7499,-2.6587,-2.6587,-2.7321,-2.8249,-2.8249,-2.7525,-2.6587,-2.6624,-2.6677,-2.6698,-2.6698,-2.6561,-2.6941,-2.788,-2.8276,-2.8135,-2.8135,-2.8144,-2.8136,-2.8136,-2.8136,-2.8136,-2.8136,-2.8136,-2.8136,-2.8136,-2.8177,-2.8203,-2.8203,-2.823,-2.8243,-2.8243,-2.8243,-2.8243,-2.8243,-2.819,-2.8136,-2.8136,-2.8136,-2.8136,-2.8136,-2.8136,-2.8136,-2.8136,-2.8136,-2.8136,-2.8136,-2.8136,-2.8136,-2.8136,-2.8177,-2.8203,-2.8203,-2.823,-2.8243,-2.8243,-2.8243,-2.8243,-2.3977,-2.4417,-2.4593,-2.4663,-2.4555,-2.435,-2.3354,-1.7465,0.0,0.0,0.0,-0.9821,-0.9761,-0.9843,0.0,-1.2122,0.0,0.0,0.0,0.0,0.0,0.0,0.0,0.0,0.0,0.0,0.0,0.0,0.0,-1.3338,-1.3403,-1.3403,-1.3458,-1.3412,-1.3906,-1.3981,-1.3449,-1.3429,-1.3369,-1.3445,-1.5011,-1.5638,-1.5854,-2.3143,-2.2521,-1.5524,-1.4638,0.0,-1.4168,-2.3798,-2.7835,-2.7896,-2.8041,-2.8139,-2.7821,-2.7821,-2.8,-2.8193,-2.8193,-2.7982,-2.7896,-2.7921,-2.7948,-2.7826,-2.7826,-2.7811,-2.7987,-2.8179,-2.8217,-2.8238,-2.8238,-2.8278,-2.8136,-2.8136,-2.8136,-2.8136,-2.8136,-2.8136,-2.8136,-2.8136,-2.8154,-2.8142,-2.8142,-2.8155,-2.8113,-2.8113,-2.8113,-2.8113,-2.8113,-2.8247,-2.8136,-2.8136,-2.8136,-2.8136,-2.8136,-2.8136,-2.8136,-2.8136,-2.8136,-2.8136,-2.8136,-2.8136,-2.8136,-2.8136,-2.8207,-2.8142,-2.8142,-2.8181,-2.8113,-2.8113,-2.8113,-2.8113,-2.4417,-2.4647,-2.4622,-2.4609,-2.4526,-2.4227,-2.3228,0.0,0.0,0.0,0.0,-0.9863,-0.9829,0.0,0.0,0.0,0.0,0.0,0.0,0.0,0.0,0.0,0.0,0.0,0.0,0.0,0.0,0.0,0.0,-1.333,-1.3358,-1.3418,-1.3526,-1.3851,-1.4201,-1.4235,-1.3787,-1.3885,-1.3817,-1.3947,-1.3947,-1.3899,-1.3978,-1.8255,-1.7809,-1.381,-1.4138,0.0,-1.427,-1.9029,-2.0968,-2.149,-2.6393,-2.819,-2.8123,-2.8123,-2.8224,-2.813,-2.813,-2.8211,-2.8265,-2.819,-2.8275,-2.8275,-2.8275,-2.819,-2.813,-2.813,-2.8211,-2.8136,-2.8136,-2.8136,-2.8136,-2.8136,-2.8136,-2.8136,-2.8136,-2.8257,-2.8193,-2.8193,-2.8234,-2.8432,-2.9017,-2.9138,-2.9045,-2.9045,-2.9045,-2.9045,-2.9045,-2.899,-2.8816,-2.8221,-2.8221,-2.8221,-2.8221,-2.8221,-2.8221,-2.8221,-2.8221,-2.8221,-2.8221,-2.8221,-2.8221,-2.8221,-2.8181,-2.8446,-2.9044,-2.9165,-2.9045,-2.9045,-2.9045,-2.9045,-2.4593,-2.4663,-2.4636,-2.4636,-2.4548,-2.4247,-2.2781,-1.5944,0.0,0.0,0.0,0.0,-0.9822,0.0,0.0,0.0,0.0,0.0,0.0,0.0,0.0,0.0,0.0,0.0,0.0,0.0,0.0,0.0,0.0,0.0,-1.3512,-1.3633,-1.3767,-1.4249,-1.434,-1.4354,-1.4297,-1.4354,-1.4298,-1.4298,-1.4298,-1.4256,-1.4358,-1.4263,-1.4319,-1.4347,-1.4312,0.0,0.0,-1.4222,-1.4354,-1.5068,-2.2383,-2.527,-2.5446,-2.7525,-2.8154,-2.8136,-2.8136,-2.8136,-2.8136,-2.8136,-2.8136,-2.8136,-2.8136,-2.8136,-2.8136,-2.8136,-2.8136,-2.8136,-2.8136,-2.8177,-2.823,-2.8283,-2.8127,-2.8127,-2.814,-2.8221,-2.8233,-2.8525,-2.8578,-2.8815,-2.9743,-2.9973,-2.9852,-2.9907,-2.9907,-2.9947,-2.9866,-2.9975,-2.9542,-2.8608,-2.8588,-2.8644,-2.8644,-2.8644,-2.8644,-2.8644,-2.8644,-2.8644,-2.8644,-2.8644,-2.8644,-2.8644,-2.8522,-2.895,-2.9932,-2.9986,-2.9839,-2.9839,-2.9893,-2.9893,-2.4541,-2.4581,-2.4636,-2.4636,-2.462,-2.4012,-2.1765,0.0,0.0,0.0,0.0,-0.9822,-0.9822,0.0,0.0,0.0,0.0,0.0,0.0,0.0,0.0,0.0,0.0,0.0,0.0,0.0,0.0,0.0,0.0,0.0,-1.4187,-1.4146,-1.4235,-1.4249,-1.4373,-1.4265,-1.4278,-1.4265,-1.4258,-1.4258,-1.4258,-1.4258,-1.4245,-1.4258,-1.4258,-1.4265,-1.4258,0.0,0.0,-1.4272,-1.438,-1.4465,-1.5191,-1.5594,-1.6641,-2.5068,-2.8154,-2.8136,-2.8136,-2.8136,-2.8136,-2.8136,-2.8136,-2.8136,-2.8136,-2.8136,-2.8136,-2.8136,-2.8136,-2.8136,-2.8136,-2.8114,-2.8155,-2.8207,-2.8273,-2.8286,-2.8165,-2.814,-2.851,-2.9487,-2.9812,-2.9713,-2.988,-2.9864,-2.9913,-2.9933,-2.996,-2.9924,-2.999,-2.986,-2.9858,-2.9717,-2.9659,-2.9822,-2.9822,-2.9822,-2.9822,-2.9822,-2.9822,-2.9822,-2.9822,-2.9822,-2.9822,-2.9822,-2.9704,-2.9839,-2.9853,-2.9904,-2.9847,-2.9847,-2.9907,-2.9893,-2.3273,-2.4578,-2.4644,-2.4644,-2.4647,-2.3012,-1.6783,0.0,0.0,-0.9767,-0.9822,-0.9822,-0.9822,-0.9747,0.0,0.0,0.0,0.0,0.0,0.0,0.0,0.0,0.0,0.0,0.0,0.0,0.0,0.0,0.0,0.0,-1.4297,-1.4352,-1.4386,-1.4386,-1.4272,-1.4299,-1.4299,-1.4299,-1.4299,-1.4299,-1.4299,-1.4299,-1.4299,-1.4299,-1.4299,-1.4299,-1.4299,0.0,0.0,-1.4299,-1.4272,-1.4231,-1.4231,-1.4311,-1.5421,-2.4718,-2.8234,-2.8155,-2.8207,-2.8247,-2.8168,-2.8168,-2.8168,-2.8142,-2.8207,-2.8243,-2.8163,-2.8127,-2.8167,-2.8167,-2.8167,-2.4075,-2.1179,-2.6785,-2.8693,-2.7637,-2.1686,-2.5086,-2.7546,-2.2142,-2.5865,-2.996,-2.9818,-2.986,-2.9912,-2.9961,-2.4868,-2.1123,-2.1067,-2.1357,-2.3655,-2.9314,-2.9933,-2.9961,-2.9961,-2.9961,-2.9961,-2.9961,-2.9961,-2.9961,-2.9961,-2.9961,-2.9864,-2.9833,-2.994,-2.9893,-2.9871,-2.9964,-2.9937,-2.9973,-2.9873,-3.0252,-1.943,-2.0968,-2.1023,-2.1023,-2.0997,-1.9267,0.0,0.0,-0.9784,-0.9754,-0.9822,-0.9822,-0.9822,-0.9856,-0.9848,0.0,0.0,0.0,0.0,0.0,0.0,0.0,0.0,0.0,0.0,0.0,0.0,0.0,0.0,0.0,0.0,-1.4299,-1.4299,-1.4299,-1.4299,-1.4299,-1.4299,-1.4299,-1.4299,-1.4299,-1.4299,-1.4299,-1.4299,-1.4299,-1.4299,-1.4299,-1.4299,0.0,0.0,-1.4299,-1.4299,-1.4299,-1.4299,-1.4231,-1.5017,-2.17,-2.5784,-2.7823,-2.5015,-2.4098,-2.4028,-2.4028,-2.4028,-2.4016,-2.4121,-2.4143,-2.4585,-2.7393,-2.6167,-2.4143,-2.4028,-1.9214,-1.5926,-2.2768,-2.5046,-2.3623,-1.6767,-2.0658,-2.4415,-2.0259,-2.515,-3.0083,-3.0399,-2.795,-2.5738,-2.575,-1.9889,-1.5561,-1.5445,-1.5786,-1.8666,-2.505,-2.8506,-3.0261,-2.9973,-2.996,-2.996,-2.996,-2.996,-2.996,-2.996,-2.996,-2.9871,-2.986,-3.0278,-3.0385,-3.0386,-3.0386,-3.0478,-3.0488,-3.0149,-3.0597,-1.2401,-1.2678,-1.2684,-1.2684,-1.2564,-1.2309,0.0,-1.0199,-0.9832,-0.9787,-0.9822,-0.9822,-0.9822,-0.9814,-0.9837,-0.9862,0.0,0.0,0.0,0.0,0.0,0.0,0.0,0.0,0.0,0.0,0.0,0.0,0.0,0.0,0.0,-1.4299,-1.4299,-1.4299,-1.4299,-1.4299,-1.4299,-1.4299,-1.4299,-1.4299,-1.4299,-1.4299,-1.4299,-1.4299,-1.4299,0.0,0.0,0.0,0.0,-1.4299,-1.4299,-1.4299,-1.4299,-1.4231,-1.4304,-1.4479,-2.025,-2.6883,-1.756,-1.4499,-1.4499,-1.4499,-1.4499,-1.452,-1.4451,-1.4409,-1.6294,-2.555,-2.1567,-1.4393,-1.4503,-1.4373,-1.4468,-1.5104,-1.5357,-1.5364,-1.5216,-1.521,-1.8217,-2.7891,-2.984,-3.0311,-3.141,-2.3102,-1.6306,-1.6237,-1.6252,-1.6152,-1.6014,-1.6022,-1.611,-1.625,-2.5527,-3.1248,-2.9977,-2.9951,-2.9951,-2.9951,-2.9951,-2.9951,-2.9951,-2.9951,-2.9951,-2.9951,-3.1006,-3.1628,-3.1642,-3.1642,-3.1642,-3.1642,-3.0451,-3.0582,-1.219,-1.2558,-1.2539,-1.2431,-1.2521,-1.2131,-1.1029,-1.0241,-0.978,-0.9777,-0.9797,-0.9757,-0.9857,-0.9784,-0.9895,-1.0404,0.0,0.0,0.0,0.0,0.0,0.0,0.0,0.0,0.0,0.0,0.0,0.0,0.0,0.0,0.0,-1.4299,-1.4299,-1.4299,-1.4299,-1.4299,-1.4299,-1.4299,-1.4299,-1.4299,-1.4299,-1.4299,-1.4299,-1.4299,-1.4299,0.0,0.0,0.0,0.0,-1.4299,-1.4299,-1.4299,-1.4299,-1.4278,-1.4238,-1.4331,-1.6148,-1.8207,-1.5359,-1.4373,-1.434,-1.434,-1.4229,-1.4316,-1.435,-1.4346,-1.4885,-1.784,-1.6635,-1.4303,-1.4778,-1.4895,-1.4998,-1.5087,-1.5259,-1.5221,-1.5228,-1.5113,-1.6138,-1.9226,-2.5995,-2.9061,-2.2298,-1.8214,-1.614,-1.6069,-1.6089,-1.6117,-1.6001,-1.6138,-1.6076,-1.6028,-1.9052,-2.3786,-3.0477,-3.1101,-3.1205,-3.1205,-3.1205,-3.1205,-3.1205,-3.1205,-3.1101,-3.1089,-3.1516,-3.1624,-3.1611,-3.1611,-3.1611,-3.1611,-3.1289,-3.133,0.0,-1.1664,-1.1525,-1.1782,-1.1755,-1.1551,-1.0839,-1.0373,-1.0082,-0.9895,-0.9943,-1.0168,-1.0129,-1.0189,-1.0283,-1.0602,0.0,0.0,0.0,0.0,0.0,0.0,0.0,0.0,0.0,0.0,0.0,0.0,0.0,0.0,0.0,-1.4299,-1.4299,-1.4299,-1.4299,-1.4299,-1.4299,-1.4299,-1.4299,-1.4299,-1.4299,-1.4299,-1.4299,-1.4299,-1.4299,0.0,0.0,0.0,0.0,-1.4299,-1.4299,-1.4299,-1.4299,-1.4299,-1.4292,-1.4217,-1.4238,-1.4299,-1.4278,-1.4373,-1.4336,-1.4577,-1.4665,-1.4564,-1.4624,-1.4631,-1.462,-1.4597,-1.4685,-1.4746,-1.5188,-1.5128,-1.5238,-1.5238,-1.5235,-1.5214,-1.5411,-1.5479,-1.5533,-1.554,-2.1027,-2.3789,-1.7149,-1.6117,-1.6076,-1.6151,-1.6011,-1.6045,-1.6045,-1.6045,-1.6011,-1.6137,-1.6022,-2.0337,-3.087,-3.1623,-3.1745,-3.1652,-3.1746,-3.161,-3.161,-3.161,-3.165,-3.1717,-3.1717,-3.1757,-3.162,-3.1717,-3.1664,-3.1664,-3.1799,-3.161,0.0,-1.026,-1.0058,-1.0611,-1.0747,-1.0672,-1.0684,-1.0704,0.0,-0.994,-1.0304,-1.0693,0.0,0.0,0.0,0.0,0.0,0.0,0.0,0.0,0.0,0.0,0.0,0.0,0.0,0.0,0.0,0.0,0.0,0.0,-1.4299,-1.4299,-1.4299,-1.4299,-1.4299,-1.4299,-1.4299,-1.4299,-1.4299,-1.4299,-1.4299,-1.4299,-1.4299,-1.4299,-1.4299,0.0,0.0,0.0,0.0,-1.4299,-1.4299,-1.4299,-1.4312,-1.4312,-1.4312,-1.4326,-1.4333,-1.4346,-1.4296,-1.435,-1.4383,-1.5097,-1.5153,-1.5181,-1.5135,-1.5257,-1.5139,-1.5146,-1.525,-1.5176,-1.5176,-1.5279,-1.5201,-1.5201,-1.5127,-1.5438,-1.6032,-1.6159,-1.6077,-1.6098,-1.6196,-1.6083,-1.6117,-1.6137,-1.6105,-1.6118,-1.6225,-1.6101,-1.6101,-1.6101,-1.6101,-1.6101,-1.6205,-2.0124,-2.9891,-3.124,-3.1644,-3.1881,-3.1043,-3.0725,-3.0712,-3.1381,-3.1907,-3.1881,-3.1868,-3.1749,-3.1693,-3.1646,-3.173,-3.173,-3.1779,-3.1766,-0.994,0.0,-1.0551,-1.0616,-1.0711,-1.0678,0.0,0.0,0.0,0.0,0.0,0.0,0.0,0.0,0.0,0.0,0.0,0.0,0.0,0.0,0.0,0.0,0.0,0.0,0.0,0.0,0.0,0.0,0.0,-1.4299,-1.4299,-1.4299,-1.4299,-1.4299,-1.4299,-1.4299,-1.4299,-1.4299,-1.4299,-1.4299,-1.4299,-1.4299,-1.4299,-1.4299,-1.4299,0.0,0.0,0.0,-1.4299,-1.4299,-1.4299,-1.4312,-1.4236,-1.4276,-1.4289,-1.4223,-1.4262,-1.4269,-1.4302,-1.4577,-1.5073,-1.5224,-1.5265,-1.5272,-1.5126,-1.5224,-1.5128,-1.5238,-1.5106,-1.5133,-1.5133,-1.5242,-1.516,-1.516,-1.5162,-1.5347,-1.5952,-1.6076,-1.6179,-1.6186,-1.6008,-1.6069,-1.6185,-1.6058,-1.6347,-1.6666,-1.6714,-1.6735,-1.6735,-1.6735,-1.6735,-1.6735,-1.6835,-1.7805,-2.0334,-2.7337,-3.2168,-3.2921,-2.5095,-2.0405,-2.0483,-2.8532,-3.3036,-3.2989,-3.2989,-3.2519,-3.1776,-3.171,-3.1684,-3.1684,-3.1736,-3.2177,-0.9745,-1.0068,-1.037,-1.0575,-1.0711,-1.0692,0.0,0.0,0.0,0.0,0.0,0.0,0.0,0.0,0.0,0.0,0.0,0.0,0.0,0.0,0.0,0.0,0.0,0.0,0.0,0.0,0.0,0.0,0.0,-1.4299,-1.4299,-1.4299,-1.4299,-1.4299,-1.4299,-1.4299,-1.4299,-1.4299,-1.4299,-1.4299,-1.4299,-1.4299,-1.4299,-1.4299,-1.4299,0.0,0.0,0.0,-1.4299,-1.4299,-1.434,-1.4222,-1.4296,-1.455,-1.4631,-1.4713,-1.474,-1.4753,-1.4638,-1.4943,-1.5272,-1.516,-1.5181,-1.5194,-1.5262,-1.5235,-1.5187,-1.5262,-1.514,-1.5194,-1.5194,-1.5254,-1.5314,-1.552,-1.5683,-1.5649,-1.6055,-1.6029,-1.6185,-1.6185,-1.6031,-1.6105,-1.6179,-1.6259,-1.6537,-1.7037,-1.6907,-1.6948,-1.6948,-1.6948,-1.6948,-1.6948,-1.7099,-1.7058,-1.7058,-2.1918,-2.5257,-2.5924,-2.0207,-1.701,-1.7085,-2.7515,-3.336,-3.3395,-3.347,-3.3178,-3.2509,-3.239,-3.2532,-3.2532,-3.2456,-3.2875,-0.985,-0.9954,-1.0096,-1.0692,-1.0779,-1.0806,0.0,0.0,0.0,0.0,0.0,0.0,0.0,0.0,0.0,0.0,0.0,0.0,0.0,0.0,0.0,0.0,0.0,0.0,0.0,0.0,0.0,0.0,0.0,-1.4299,-1.4299,-1.4299,-1.4299,-1.4299,-1.4299,-1.4299,-1.4299,-1.4299,-1.4299,-1.4299,-1.4299,-1.4299,-1.4299,-1.4299,-1.4299,-1.4299,0.0,0.0,-1.4299,-1.4319,-1.4222,-1.433,-1.4376,-1.4665,-1.516,-1.5181,-1.5188,-1.5209,-1.5149,-1.5272,-1.5181,-1.5181,-1.5181,-1.5208,-1.5167,-1.5234,-1.5254,-1.5274,-1.5361,-1.5241,-1.5241,-1.5261,-1.5475,-1.607,-1.6182,-1.6089,-1.6089,-1.609,-1.6078,-1.63,-1.6199,-1.6292,-1.6333,-1.6666,-1.6975,-1.6996,-1.6904,-1.6978,-1.6978,-1.6978,-1.6978,-1.6978,-1.6978,-1.6978,-1.6978,-1.6978,-1.7092,-1.7058,-1.6962,-1.7819,-1.9371,-2.8507,-3.3475,-3.3427,-3.3399,-3.3476,-3.3476,-3.3456,-3.3347,-3.3347,-3.3381,-3.3368,-1.0358,-1.0598,-1.0697,-1.1322,-1.1445,0.0,0.0,0.0,0.0,0.0,0.0,0.0,0.0,0.0,0.0,0.0,0.0,0.0,0.0,0.0,0.0,0.0,0.0,0.0,0.0,0.0,0.0,0.0,0.0,-1.4299,-1.4299,-1.4299,-1.4299,-1.4299,-1.4299,-1.4299,-1.4299,-1.4299,-1.4299,-1.4299,-1.4299,-1.4299,-1.4299,-1.4299,-1.4299,-1.4299,0.0,-1.4299,-1.4306,-1.4249,-1.4309,-1.435,-1.4801,-1.5107,-1.5142,-1.5259,-1.512,-1.512,-1.514,-1.5167,-1.5181,-1.5181,-1.5181,-1.5208,-1.5167,-1.5506,-1.6029,-1.5952,-1.5918,-1.6036,-1.6036,-1.5932,-1.6021,-1.6021,-1.6138,-1.6049,-1.6049,-1.6083,-1.6157,-1.6703,-1.6954,-1.6842,-1.6886,-1.6948,-1.701,-1.6931,-1.6965,-1.6978,-1.6978,-1.6978,-1.6978,-1.6978,-1.6978,-1.6978,-1.6978,-1.6978,-1.6965,-1.6924,-1.6937,-2.1179,-3.0588,-3.243,-3.3303,-3.3414,-3.3374,-3.3347,-3.3347,-3.3307,-3.3493,-3.3493,-3.3334,-3.3334,-1.0579,-1.092,-1.1333,-1.1978,0.0,0.0,0.0,0.0,0.0,0.0,0.0,0.0,0.0,0.0,0.0,0.0,0.0,0.0,0.0,0.0,0.0,0.0,0.0,0.0,0.0,0.0,0.0,0.0,0.0,0.0,-1.4299,-1.4299,-1.4299,-1.4299,-1.4299,-1.4299,-1.4299,-1.4299,-1.4299,-1.4299,-1.4299,-1.434,-1.4236,-1.4236,-1.4236,-1.4236,0.0,-1.4236,-1.4236,-1.4303,-1.4423,-1.4774,-1.5107,-1.521,-1.5279,-1.516,-1.5181,-1.5181,-1.5181,-1.5235,-1.5113,-1.5113,-1.5167,-1.5261,-1.5208,-1.5696,-1.6182,-1.6138,-1.6131,-1.6083,-1.6083,-1.6131,-1.6179,-1.6179,-1.6035,-1.6083,-1.6083,-1.6144,-1.6246,-1.6402,-1.6707,-1.7044,-1.7051,-1.7085,-1.6904,-1.6971,-1.6978,-1.6978,-1.6978,-1.6978,-1.6978,-1.6978,-1.6978,-1.6978,-1.6978,-1.6978,-1.6978,-1.6978,-1.6917,-1.9199,-2.4284,-3.019,-3.3343,-3.3426,-3.348,-3.3414,-3.3414,-3.3414,-3.3414,-3.3414,-3.3414,-3.3414,-1.0331,-1.0981,-1.1538,0.0,0.0,0.0,0.0,0.0,0.0,0.0,0.0,0.0,0.0,0.0,0.0,0.0,0.0,0.0,0.0,0.0,0.0,0.0,0.0,0.0,0.0,0.0,0.0,0.0,0.0,0.0,-1.4299,-1.4299,-1.4299,-1.4299,-1.4299,-1.4299,-1.4299,-1.4299,-1.4299,-1.4299,-1.4333,-1.4222,-1.433,-1.4363,-1.4543,-1.4516,-1.4363,-1.4356,-1.433,-1.4403,-1.476,-1.5169,-1.5197,-1.5113,-1.5235,-1.5235,-1.5255,-1.5289,-1.5289,-1.5174,-1.5267,-1.5267,-1.5348,-1.5468,-1.5407,-1.5649,-1.6089,-1.6042,-1.6083,-1.6083,-1.6083,-1.6083,-1.6083,-1.6083,-1.611,-1.613,-1.613,-1.6051,-1.6192,-1.6128,-1.6666,-1.7016,-1.6958,-1.6978,-1.6978,-1.6978,-1.6978,-1.6978,-1.6978,-1.6978,-1.6978,-1.6978,-1.6978,-1.6978,-1.6978,-1.6978,-1.6978,-1.6978,-1.7099,-1.703,-1.7003,-2.5009,-3.0778,-3.3382,-3.3399,-3.3467,-3.3414,-3.3414,-3.3414,-3.3414,-3.3414,-3.3414,-0.9802,-1.0257,0.0,0.0,0.0,0.0,0.0,0.0,0.0,0.0,0.0,0.0,0.0,0.0,0.0,0.0,0.0,0.0,0.0,0.0,0.0,0.0,0.0,0.0,0.0,0.0,0.0,0.0,0.0,0.0,-1.4299,-1.4299,-1.4299,-1.4299,-1.4299,-1.4299,-1.4299,-1.4299,-1.4299,-1.4299,-1.4249,-1.4316,-1.433,-1.4847,-1.5209,-1.5075,-1.4477,-1.4269,-1.435,-1.4821,-1.5142,-1.5176,-1.512,-1.5255,-1.52,-1.52,-1.5288,-1.5208,-1.5208,-1.5215,-1.5228,-1.5822,-1.6029,-1.6064,-1.6014,-1.6055,-1.6089,-1.6042,-1.6083,-1.6083,-1.6083,-1.6083,-1.6083,-1.6083,-1.6185,-1.6085,-1.6085,-1.6192,-1.6128,-1.6067,-1.6534,-1.7016,-1.6958,-1.6978,-1.6978,-1.6978,-1.6978,-1.6978,-1.6978,-1.6978,-1.6978,-1.6978,-1.6978,-1.6978,-1.6978,-1.6978,-1.6978,-1.6978,-1.6971,-1.6917,-1.7003,-1.784,-2.2885,-3.3179,-3.3369,-3.3452,-3.3414,-3.3414,-3.3414,-3.3414,-3.3414,-3.3414,-0.9871,-1.0228,0.0,0.0,0.0,0.0,0.0,0.0,0.0,0.0,0.0,0.0,0.0,0.0,0.0,0.0,0.0,0.0,0.0,0.0,0.0,0.0,0.0,0.0,0.0,0.0,0.0,0.0,0.0,0.0,-1.4299,-1.4299,-1.4299,-1.4299,-1.4299,-1.4299,-1.4299,-1.4299,-1.434,-1.4249,-1.4303,-1.443,-1.4801,-1.5046,-1.5229,-1.5181,-1.4481,-1.4474,-1.4808,-1.5114,-1.521,-1.5113,-1.516,-1.5276,-1.5214,-1.5609,-1.5705,-1.5835,-1.5835,-1.5703,-1.5771,-1.5973,-1.6041,-1.6124,-1.6179,-1.6192,-1.6008,-1.6069,-1.6151,-1.6018,-1.6018,-1.6018,-1.6038,-1.6125,-1.6185,-1.6232,-1.6653,-1.6694,-1.6571,-1.672,-1.6754,-1.7016,-1.6958,-1.6978,-1.6978,-1.6978,-1.6978,-1.6978,-1.6978,-1.6978,-1.6978,-1.6978,-1.6978,-1.6978,-1.6978,-1.6978,-1.6978,-1.6978,-1.6978,-1.6958,-1.691,-1.7044,-1.8884,-2.31,-2.9841,-3.3488,-3.3452,-3.3452,-3.3373,-3.3414,-3.3414,-3.3414,-0.7379,0.0,0.0,0.0,0.0,0.0,0.0,0.0,0.0,0.0,0.0,0.0,0.0,0.0,0.0,0.0,0.0,0.0,0.0,0.0,0.0,0.0,0.0,0.0,0.0,0.0,0.0,0.0,0.0,0.0,0.0,-1.4299,-1.4299,-1.4299,-1.4299,-1.4299,-1.4299,-1.434,-1.4256,-1.4216,-1.445,-1.4767,-1.5162,-1.521,-1.5204,-1.5162,-1.4825,-1.4819,-1.5169,-1.521,-1.5286,-1.5181,-1.5181,-1.5113,-1.5288,-1.5876,-1.6008,-1.6182,-1.6182,-1.6048,-1.6124,-1.6124,-1.6192,-1.6083,-1.6083,-1.6117,-1.6151,-1.6151,-1.6058,-1.6179,-1.6232,-1.6415,-1.6402,-1.6292,-1.6346,-1.6592,-1.681,-1.7058,-1.6913,-1.7016,-1.7037,-1.7071,-1.6965,-1.6978,-1.6978,-1.6978,-1.6978,-1.6978,-1.6978,-1.6978,-1.6978,-1.6978,-1.6978,-1.6978,-1.6978,-1.6978,-1.6978,-1.6978,-1.6978,-1.6978,-1.6978,-1.6897,-1.7044,-1.7003,-2.448,-2.8279,-2.8212,-3.1782,-3.3466,-3.3414,-3.3414,-3.3414,0.0,0.0,0.0,0.0,0.0,0.0,0.0,0.0,0.0,0.0,0.0,0.0,0.0,0.0,0.0,0.0,0.0,0.0,0.0,0.0,0.0,0.0,0.0,0.0,0.0,0.0,0.0,0.0,0.0,0.0,0.0,-1.4299,-1.4299,-1.4299,-1.4299,-1.4299,-1.4299,-1.4256,-1.4223,-1.4368,-1.4896,-1.5162,-1.5169,-1.512,-1.5106,-1.5176,-1.512,-1.5293,-1.5176,-1.5126,-1.5181,-1.5181,-1.5181,-1.5174,-1.5241,-1.5842,-1.6035,-1.6083,-1.6083,-1.6083,-1.6083,-1.6083,-1.6083,-1.6083,-1.6083,-1.6185,-1.6105,-1.6105,-1.6205,-1.6346,-1.692,-1.7064,-1.6946,-1.6946,-1.7064,-1.6968,-1.6968,-1.7085,-1.6978,-1.6978,-1.6978,-1.6978,-1.6978,-1.6978,-1.6978,-1.6978,-1.6978,-1.6978,-1.6978,-1.6978,-1.6978,-1.6978,-1.6978,-1.6978,-1.6978,-1.6978,-1.6978,-1.6978,-1.6978,-1.6978,-1.6978,-1.6978,-1.6924,-1.7003,-1.7003,-1.7085,-1.7031,-2.7998,-3.3466,-3.3414,-3.3414,-3.3414,0.0,0.0,0.0,0.0,0.0,0.0,0.0,0.0,0.0,0.0,0.0,0.0,0.0,0.0,0.0,0.0,0.0,0.0,0.0,0.0,0.0,0.0,0.0,0.0,0.0,0.0,0.0,0.0,0.0,0.0,0.0,-1.4299,-1.4299,-1.4299,-1.4299,-1.4299,-1.4299,-1.4256,-1.4584,-1.4929,-1.5087,-1.5217,-1.512,-1.516,-1.516,-1.5126,-1.5167,-1.516,-1.5126,-1.5167,-1.5181,-1.5194,-1.5107,-1.5267,-1.5255,-1.5952,-1.6117,-1.6083,-1.6083,-1.6151,-1.6038,-1.6038,-1.6038,-1.6038,-1.6038,-1.6065,-1.6105,-1.6522,-1.6701,-1.6693,-1.6955,-1.701,-1.7058,-1.7058,-1.7092,-1.6917,-1.6917,-1.6951,-1.6978,-1.6978,-1.6978,-1.6978,-1.6978,-1.6978,-1.6978,-1.6978,-1.6978,-1.6978,-1.6978,-1.6978,-1.6978,-1.6978,-1.6978,-1.6978,-1.6978,-1.6978,-1.6978,-1.6978,-1.6978,-1.6978,-1.6978,-1.6978,-1.6965,-1.6924,-1.6924,-1.7051,-1.7092,-2.8074,-3.3311,-3.3479,-3.3494,-3.3414,0.0,0.0,0.0,0.0,0.0,0.0,0.0,0.0,0.0,0.0,0.0,0.0,0.0,0.0,0.0,0.0,0.0,0.0,0.0,0.0,0.0,0.0,0.0,0.0,0.0,0.0,0.0,0.0,0.0,0.0,0.0,-1.4353,-1.436,-1.4299,-1.4353,-1.4353,-1.4299,-1.4256,-1.459,-1.5118,-1.5271,-1.5238,-1.5181,-1.5181,-1.5181,-1.5181,-1.5181,-1.5181,-1.5181,-1.5181,-1.5181,-1.5201,-1.5154,-1.5308,-1.5655,-1.6,-1.6151,-1.6083,-1.6083,-1.6178,-1.6105,-1.6313,-1.6556,-1.6395,-1.6185,-1.6022,-1.6272,-1.6905,-1.7078,-1.7058,-1.7058,-1.6917,-1.6978,-1.6978,-1.6978,-1.6978,-1.6978,-1.6978,-1.6978,-1.6978,-1.6978,-1.6978,-1.6978,-1.6978,-1.6978,-1.6978,-1.6978,-1.6978,-1.6978,-1.6978,-1.6978,-1.6978,-1.6978,-1.6978,-1.6978,-1.6978,-1.6978,-1.6978,-1.6978,-1.6978,-1.6978,-1.6978,-1.6978,-1.6978,-1.6978,-1.6917,-1.7003,-2.3625,-2.9191,-3.3382,-3.3439,-3.3306,0.0,0.0,0.0,0.0,0.0,0.0,0.0,0.0,0.0,0.0,0.0,0.0,0.0,0.0,0.0,0.0,0.0,0.0,0.0,0.0,0.0,0.0,0.0,0.0,0.0,0.0,0.0,0.0,0.0,0.0,0.0,-1.4276,-1.4283,-1.4326,-1.4263,-1.4263,-1.4299,-1.4256,-1.4584,-1.5097,-1.5087,-1.5231,-1.516,-1.5174,-1.5181,-1.5181,-1.5181,-1.5181,-1.5181,-1.5181,-1.5194,-1.5221,-1.5174,-1.5527,-1.6077,-1.6028,-1.6165,-1.6083,-1.6083,-1.6185,-1.6125,-1.6752,-1.7052,-1.696,-1.6333,-1.6214,-1.6326,-1.6754,-1.7078,-1.6978,-1.6978,-1.6978,-1.6978,-1.6978,-1.6978,-1.6978,-1.6978,-1.6978,-1.6978,-1.6978,-1.6978,-1.6978,-1.6978,-1.6978,-1.6978,-1.6978,-1.6978,-1.6978,-1.6978,-1.6978,-1.6978,-1.6978,-1.6978,-1.6978,-1.6978,-1.6978,-1.6978,-1.6978,-1.6978,-1.6978,-1.6978,-1.6978,-1.6978,-1.6978,-1.6978,-1.6924,-1.7016,-1.7003,-2.2042,-3.187,-3.2976,-3.3492,0.0,0.0,0.0,0.0,0.0,0.0,0.0,0.0,0.0,0.0,0.0,0.0,0.0,0.0,0.0,0.0,0.0,0.0,0.0,0.0,0.0,0.0,0.0,0.0,0.0,0.0,0.0,0.0,0.0,0.0,-1.4276,-1.4302,-1.4437,-1.5026,-1.4496,-1.4263,-1.4299,-1.4256,-1.4343,0.0,-1.5025,-1.5176,-1.521,-1.5133,-1.5181,-1.5181,-1.5181,-1.5181,-1.5181,-1.5181,-1.5248,-1.518,-1.5136,-1.5482,-1.6028,-1.6179,-1.6056,-1.6083,-1.6083,-1.6051,-1.6266,-1.6891,-1.7002,-1.6913,-1.6913,-1.6727,-1.6754,-1.6962,-1.7078,-1.6978,-1.6978,-1.6978,-1.6978,-1.6978,-1.6978,-1.6978,-1.6978,-1.6978,-1.6978,-1.6978,-1.6978,-1.6978,-1.6978,-1.6978,-1.6978,-1.6978,-1.6978,-1.6978,-1.6978,-1.6978,-1.6978,-1.6978,-1.6978,-1.6978,-1.6978,-1.6978,-1.6978,-1.6978,-1.6978,-1.6978,-1.6978,-1.6978,-1.6978,-1.6978,-1.6978,-1.6965,-1.6937,-1.7051,-1.8255,-2.0778,-2.9442,-3.3337,0.0,0.0,0.0,0.0,0.0,0.0,0.0,0.0,0.0,0.0,0.0,0.0,0.0,0.0,0.0,0.0,0.0,0.0,0.0,0.0,0.0,0.0,0.0,0.0,0.0,0.0,0.0,0.0,0.0,-1.474,-1.474,-1.4808,-1.4963,-1.5188,-1.4618,-1.4363,-1.4222,-1.4289,-1.4363,-1.4256,-1.4671,-1.5004,-1.5265,-1.5147,-1.5181,-1.5181,-1.5181,-1.5181,-1.5187,-1.5262,-1.5147,-1.5234,-1.5455,-1.5784,-1.6076,-1.6029,-1.6083,-1.609,-1.6164,-1.6125,-1.6115,-1.6817,-1.6948,-1.7071,-1.7071,-1.7071,-1.7071,-1.7071,-1.6924,-1.6978,-1.6978,-1.6978,-1.6978,-1.6978,-1.6978,-1.6978,-1.6978,-1.6978,-1.6978,-1.6978,-1.6978,-1.6978,-1.6978,-1.6978,-1.6978,-1.6978,-1.6978,-1.6978,-1.6978,-1.6978,-1.6978,-1.6978,-1.6978,-1.6978,-1.6978,-1.6978,-1.6978,-1.6978,-1.6978,-1.6978,-1.6978,-1.6978,-1.6978,-1.6978,-1.6978,-1.6978,-1.6978,-1.6917,-1.7058,-1.721,-2.2977,-2.5471,0.0,0.0,0.0,0.0,0.0,0.0,0.0,0.0,0.0,0.0,0.0,0.0,0.0,0.0,0.0,0.0,0.0,0.0,0.0,0.0,0.0,0.0,0.0,0.0,0.0,0.0,0.0,0.0,0.0,-1.5195,-1.5195,-1.5292,-1.5278,-1.5125,-1.4713,-1.4443,-1.4289,-1.4289,-1.4363,-1.4517,-1.4501,-1.4659,-1.5181,-1.5181,-1.5181,-1.5181,-1.5181,-1.5201,-1.5228,-1.516,-1.5247,-1.5314,-1.5959,-1.6069,-1.611,-1.6035,-1.6096,-1.6137,-1.6058,-1.6212,-1.6366,-1.692,-1.7071,-1.6978,-1.6978,-1.6978,-1.6978,-1.6978,-1.6978,-1.6978,-1.6978,-1.6978,-1.6978,-1.6978,-1.6978,-1.6978,-1.6978,-1.6978,-1.6978,-1.6978,-1.6978,-1.6978,-1.6978,-1.6978,-1.6978,-1.6978,-1.6978,-1.6978,-1.6978,-1.6978,-1.6978,-1.6978,-1.6978,-1.6978,-1.6978,-1.6978,-1.6978,-1.6978,-1.6978,-1.6978,-1.6978,-1.6978,-1.6978,-1.6978,-1.6978,-1.6978,-1.6978,-1.6978,-1.6931,-1.703,-1.703,-1.6962,0.0,0.0,0.0,0.0,0.0,0.0,0.0,0.0,0.0,0.0,0.0,0.0,0.0,0.0,0.0,0.0,0.0,0.0,0.0,0.0,0.0,0.0,0.0,0.0,0.0,0.0,0.0,0.0,-1.5156,-1.5126,-1.5126,-1.5217,-1.5278,-1.5125,-1.5167,-1.484,-1.4333,-1.4326,-1.4586,-1.5104,-1.5025,-1.5045,-1.5181,-1.5181,-1.5181,-1.5181,-1.5181,-1.5255,-1.5187,-1.5207,-1.556,-1.6,-1.6041,-1.6138,-1.6056,-1.6076,-1.6164,-1.6078,-1.6098,-1.649,-1.6934,-1.6955,-1.7071,-1.6978,-1.6978,-1.6978,-1.6978,-1.6978,-1.6978,-1.6978,-1.6978,-1.6978,-1.6978,-1.6978,-1.6978,-1.6978,-1.6978,-1.6978,-1.6978,-1.6978,-1.6978,-1.6978,-1.6978,-1.6978,-1.6978,-1.6978,-1.6978,-1.6978,-1.6978,-1.6978,-1.6978,-1.6978,-1.6978,-1.6978,-1.6978,-1.6978,-1.6978,-1.6978,-1.6978,-1.6978,-1.6978,-1.6978,-1.6978,-1.6978,-1.6978,-1.6978,-1.6978,-1.6978,-1.6971,-1.6958,-1.6958,-1.7099,0.0,0.0,0.0,0.0,0.0,0.0,0.0,0.0,0.0,0.0,0.0,0.0,0.0,0.0,0.0,0.0,0.0,0.0,0.0,0.0,0.0,0.0,0.0,0.0,0.0,0.0,0.0,0.0,-1.5204,-1.5147,-1.4879,-1.5079,-1.4984,-1.4746,-1.4679,-1.457,-1.4236,-1.4316,-1.4658,-1.5264,-1.5217,-1.5126,-1.5181,-1.5181,-1.5228,-1.512,-1.512,-1.52,-1.5149,-1.5622,-1.5932,-1.6062,-1.6151,-1.6022,-1.6083,-1.6083,-1.6178,-1.6112,-1.6402,-1.6783,-1.6982,-1.7065,-1.6931,-1.6978,-1.6978,-1.6978,-1.6978,-1.6978,-1.6978,-1.6978,-1.6978,-1.6978,-1.6978,-1.6978,-1.6978,-1.6978,-1.6978,-1.6978,-1.6978,-1.6978,-1.6978,-1.6978,-1.6978,-1.6978,-1.6978,-1.6978,-1.6978,-1.6978,-1.6978,-1.6978,-1.6978,-1.6978,-1.6978,-1.6978,-1.6978,-1.6978,-1.6978,-1.6978,-1.7053,-1.706,-1.6985,-1.7053,-1.706,-1.6985,-1.6978,-1.6978,-1.6978,-1.6978,-1.6978,-1.6978,-1.6978,-1.6951,0.0,0.0,0.0,0.0,0.0,0.0,0.0,0.0,0.0,0.0,0.0,0.0,0.0,0.0,0.0,0.0,0.0,0.0,0.0,0.0,0.0,0.0,0.0,0.0,0.0,0.0,0.0,0.0,-1.5231,-1.512,-1.4785,-1.4845,-1.4765,-1.4504,-1.4457,-1.4223,-1.4323,-1.451,-1.4718,-1.5133,-1.5167,-1.5181,-1.5181,-1.5221,-1.5133,-1.5267,-1.5425,-1.5513,-1.5502,-1.6007,-1.6076,-1.6124,-1.6042,-1.6103,-1.6137,-1.6137,-1.6051,-1.6225,-1.6756,-1.7106,-1.7044,-1.6944,-1.6978,-1.6978,-1.6978,-1.6978,-1.6978,-1.6978,-1.6978,-1.6978,-1.6978,-1.6978,-1.6978,-1.6978,-1.6978,-1.6978,-1.6978,-1.6978,-1.6978,-1.6978,-1.6978,-1.6978,-1.6978,-1.6978,-1.6978,-1.6978,-1.6978,-1.6978,-1.6978,-1.6978,-1.6978,-1.6978,-1.6978,-1.6978,-1.6978,-1.6978,-1.6998,-1.7032,-1.6915,-1.7161,-1.7312,-1.6976,-1.6982,-1.7093,-1.7053,-1.7012,-1.6978,-1.6978,-1.6978,-1.6978,-1.6978,-1.6978,0.0,0.0,0.0,0.0,0.0,0.0,0.0,0.0,0.0,0.0,0.0,0.0,0.0,0.0,0.0,0.0,0.0,0.0,0.0,0.0,0.0,0.0,0.0,0.0,0.0,0.0,0.0,0.0,-1.5286,-1.512,-1.4785,-1.4461,-1.4504,-1.509,-1.4579,-1.438,-1.4323,-1.4808,-1.5156,-1.5176,-1.512,-1.5181,-1.5187,-1.514,-1.5281,-1.5222,-1.5869,-1.5973,-1.6041,-1.6055,-1.6138,-1.6069,-1.6076,-1.6164,-1.6091,-1.6091,-1.6062,-1.6093,-1.6741,-1.7051,-1.6971,-1.6978,-1.6978,-1.6978,-1.6978,-1.6978,-1.6978,-1.6978,-1.6978,-1.6978,-1.6978,-1.6978,-1.6978,-1.6978,-1.6978,-1.6978,-1.6978,-1.6978,-1.6978,-1.6978,-1.6978,-1.6978,-1.6978,-1.6978,-1.6978,-1.6978,-1.6978,-1.6978,-1.6978,-1.6978,-1.6978,-1.6978,-1.6978,-1.6978,-1.6978,-1.6978,-1.7039,-1.6956,-1.6969,-1.7256,-1.7836,-1.7399,-1.6961,-1.6955,-1.7036,-1.6902,-1.6978,-1.6978,-1.6978,-1.6978,-1.6978,-1.6978,0.0,0.0,0.0,0.0,0.0,0.0,0.0,0.0,0.0,0.0,0.0,0.0,0.0,0.0,0.0,0.0,0.0,0.0,0.0,0.0,0.0,0.0,0.0,0.0,0.0,0.0,0.0,0.0,0.0,-1.512,-1.4977,-1.4812,-1.4725,-1.4853,-1.4517,-1.4564,-1.4808,-1.5107,-1.521,-1.5106,-1.516,-1.5181,-1.5187,-1.5147,-1.5493,-1.5842,-1.6077,-1.6014,-1.6001,-1.6001,-1.6035,-1.6083,-1.6083,-1.6171,-1.6105,-1.6522,-1.6707,-1.6748,-1.6962,-1.7065,-1.6978,-1.6978,-1.6978,-1.6978,-1.6978,-1.6978,-1.6978,-1.6978,-1.6978,-1.6978,-1.6978,-1.6978,-1.6978,-1.6978,-1.6978,-1.6978,-1.6978,-1.6978,-1.6978,-1.6978,-1.6978,-1.6978,-1.6978,-1.6978,-1.6978,-1.6978,-1.6978,-1.6978,-1.6978,-1.6978,-1.6978,-1.6978,-1.706,-1.6902,-1.6902,-1.6989,-1.7063,-1.6895,-1.7433,-1.7689,-1.7871,-1.7738,-1.7521,-1.7641,-1.7586,-1.7483,-1.6902,-1.7026,-1.6978,-1.6978,-1.6978,-1.6978,0.0,0.0,0.0,0.0,0.0,0.0,0.0,0.0,0.0,0.0,0.0,0.0,0.0,0.0,0.0,0.0,0.0,0.0,0.0,0.0,0.0,0.0,0.0,0.0,0.0,0.0,0.0,0.0,-1.5126,0.0,-1.4977,-1.4872,-1.4805,-1.4564,-1.4698,-1.4778,-1.5162,-1.521,-1.5279,-1.5181,-1.5181,-1.5208,-1.5262,-1.5221,-1.5567,-1.6119,-1.6069,-1.6186,-1.6083,-1.6083,-1.611,-1.6157,-1.6157,-1.6071,-1.6245,-1.6877,-1.7037,-1.7044,-1.7044,-1.6897,-1.6978,-1.6978,-1.6978,-1.6978,-1.6978,-1.6978,-1.6978,-1.6978,-1.6978,-1.6978,-1.6978,-1.6978,-1.6978,-1.6978,-1.6978,-1.6978,-1.6978,-1.6978,-1.6978,-1.6978,-1.6978,-1.6998,-1.7039,-1.7046,-1.7066,-1.6909,-1.6915,-1.6915,-1.6915,-1.6915,-1.6915,-1.6915,-1.6996,-1.7049,-1.727,-1.7358,-1.7224,-1.727,-1.7595,-1.7854,-1.7799,-1.7895,-1.7895,-1.7799,-1.7968,-1.7669,-1.7344,-1.7195,-1.6915,-1.6915,-1.6915,-1.71,0.0,0.0,0.0,0.0,0.0,0.0,0.0,0.0,0.0,0.0,0.0,0.0,0.0,0.0,0.0,0.0,0.0,0.0,0.0,0.0,0.0,0.0,0.0,0.0,0.0,-1.4889,-1.5031,-1.5174,-1.5181,-1.512,-1.4984,-1.4977,-1.4909,-1.476,-1.5087,-1.5169,-1.5169,-1.5113,-1.5181,-1.5187,-1.5187,-1.5269,-1.5227,-1.5182,-1.5522,-1.6062,-1.6015,-1.6083,-1.6083,-1.6083,-1.6171,-1.6105,-1.6105,-1.6068,-1.6112,-1.6754,-1.7058,-1.6978,-1.6978,-1.6978,-1.6978,-1.6978,-1.6978,-1.6978,-1.6978,-1.6978,-1.6978,-1.6978,-1.6978,-1.6978,-1.6978,-1.6978,-1.6978,-1.6978,-1.6978,-1.6978,-1.6978,-1.6985,-1.6985,-1.6985,-1.6985,-1.7032,-1.6956,-1.6982,-1.7029,-1.6955,-1.6981,-1.6981,-1.6981,-1.6981,-1.6981,-1.6981,-1.6981,-1.721,-1.7871,-1.7878,-1.794,-1.7875,-1.7875,-1.7944,-1.786,-1.786,-1.786,-1.786,-1.7944,-1.7875,-1.7875,-1.7277,-1.6981,-1.6981,-1.6981,-1.7116,0.0,0.0,0.0,0.0,0.0,0.0,0.0,0.0,0.0,0.0,0.0,0.0,0.0,0.0,0.0,0.0,0.0,0.0,0.0,0.0,0.0,0.0,0.0,-1.474,-1.4896,-1.5038,-1.514,0.0,-1.5181,-1.5167,-1.5126,-1.5126,-1.5106,-1.5059,-1.5099,-1.5126,-1.5126,-1.516,-1.5235,-1.5154,-1.5154,-1.5234,-1.5188,-1.5723,-1.6014,-1.6062,-1.6015,-1.6083,-1.6083,-1.6083,-1.6171,-1.6105,-1.6522,-1.6701,-1.6754,-1.6962,-1.7058,-1.6978,-1.6978,-1.6978,-1.6978,-1.6978,-1.6978,-1.6978,-1.6978,-1.6978,-1.6978,-1.6978,-1.6978,-1.6978,-1.6978,-1.6978,-1.6978,-1.6978,-1.6978,-1.6978,-1.6978,-1.706,-1.6915,-1.6915,-1.6915,-1.6962,-1.711,-1.7358,-1.7593,-1.7635,-1.7641,-1.7641,-1.7641,-1.7641,-1.7641,-1.7641,-1.7738,-1.7806,-1.7813,-1.7909,-1.7978,-1.7812,-1.7812,-1.7826,-1.786,-1.786,-1.786,-1.786,-1.7826,-1.7812,-1.7812,-1.7772,-1.7641,-1.7641,-1.7641,-1.7621,0.0,0.0,0.0,0.0,0.0,0.0,0.0,-0.6866,0.0,0.0,0.0,0.0,0.0,0.0,0.0,0.0,0.0,0.0,0.0,0.0,0.0,0.0,-1.474,-1.4869,-1.4964,-1.5099,-1.5181,-1.5181,-1.5181,-1.5181,-1.5181,-1.5181,-1.5181,-1.5181,-1.5181,-1.5181,-1.5181,-1.5181,-1.5255,-1.5214,-1.5411,-1.5527,-1.5535,-1.6014,-1.6089,-1.6151,-1.6042,-1.6117,-1.6171,-1.6171,-1.6058,-1.6185,-1.6814,-1.7002,-1.7058,-1.7058,-1.6904,-1.6978,-1.6978,-1.6978,-1.6978,-1.6978,-1.6978,-1.6978,-1.6978,-1.6978,-1.6978,-1.6978,-1.6978,-1.6978,-1.6978,-1.6978,-1.6978,-1.6978,-1.6978,-1.6998,-1.7053,-1.6915,-1.6976,-1.6976,-1.7243,-1.7338,-1.7487,-1.7738,-1.7982,-1.782,-1.7834,-1.7834,-1.7834,-1.7834,-1.7834,-1.7834,-1.7909,-1.7964,-1.7964,-1.7812,-1.786,-1.786,-1.786,-1.786,-1.786,-1.786,-1.786,-1.786,-1.786,-1.786,-1.786,-1.7909,-1.7834,-1.7834,-1.7834,-1.7799,0.0,0.0,0.0,0.0,0.0,0.0,-0.5075,-0.6704,-0.8721,0.0,0.0,0.0,0.0,0.0,0.0,0.0,0.0,0.0,0.0,0.0,-1.459,-1.4746,-1.4889,-1.4977,-1.4991,-1.5106,-1.5181,-1.5181,-1.5181,-1.5181,-1.5181,-1.5181,-1.5181,-1.5181,-1.5201,-1.5208,-1.5208,-1.5221,-1.5303,-1.5261,-1.5855,-1.6008,-1.6083,-1.6096,-1.6179,-1.611,-1.6123,-1.6004,-1.6125,-1.6125,-1.6205,-1.6128,-1.6756,-1.6941,-1.6978,-1.6978,-1.6978,-1.6978,-1.6978,-1.6978,-1.6978,-1.6978,-1.6978,-1.6978,-1.6978,-1.6978,-1.6978,-1.6978,-1.6978,-1.6978,-1.6978,-1.6978,-1.6978,-1.6978,-1.6992,-1.7039,-1.6949,-1.7003,-1.7023,-1.7023,-1.7573,-1.794,-1.7875,-1.7895,-1.7944,-1.7846,-1.786,-1.786,-1.786,-1.786,-1.786,-1.786,-1.786,-1.786,-1.786,-1.786,-1.786,-1.786,-1.786,-1.786,-1.786,-1.786,-1.786,-1.786,-1.786,-1.786,-1.786,-1.786,-1.786,-1.786,-1.786,-1.7792,0.0,0.0,0.0,0.0,0.0,0.0,0.0,-0.6962,-1.2338,0.0,0.0,0.0,0.0,0.0,0.0,0.0,0.0,0.0,-1.4523,-1.4638,-1.4753,-1.4909,-1.495,-1.5018,-1.5126,-1.5167,-1.5181,-1.5181,-1.5181,-1.5181,-1.5181,-1.5181,-1.5181,-1.5181,-1.5303,-1.5371,-1.5371,-1.5486,-1.5421,-1.5165,-1.5764,-1.6062,-1.6042,-1.6164,-1.6031,-1.6065,-1.6172,-1.6035,-1.6062,-1.6687,-1.6571,-1.6073,-1.6707,-1.703,-1.6978,-1.6978,-1.6978,-1.6978,-1.6978,-1.6978,-1.6978,-1.6978,-1.6978,-1.6978,-1.6978,-1.6978,-1.6978,-1.6978,-1.6978,-1.6978,-1.6978,-1.6978,-1.6978,-1.6978,-1.7066,-1.6942,-1.6969,-1.7385,-1.7786,-1.7786,-1.7813,-1.7875,-1.7792,-1.7826,-1.7826,-1.786,-1.786,-1.786,-1.786,-1.786,-1.786,-1.786,-1.786,-1.786,-1.786,-1.786,-1.786,-1.786,-1.786,-1.786,-1.786,-1.786,-1.786,-1.786,-1.786,-1.786,-1.786,-1.786,-1.786,-1.786,-1.786,-1.7846,0.0,0.0,0.0,0.0,0.0,0.0,0.0,0.0,0.0,0.0,0.0,0.0,0.0,0.0,0.0,-1.0645,-1.1429,-1.271,-1.44,-1.4778,-1.4909,-1.5059,-1.5079,-1.5106,-1.5174,-1.5181,-1.5181,-1.5181,-1.5181,-1.5181,-1.5181,-1.5255,-1.5296,-1.5296,-1.5445,-1.5527,-1.5719,-1.5601,-1.571,-1.5649,-1.6048,-1.6172,-1.6191,-1.6273,-1.6347,-1.6625,-1.649,-1.6564,-1.6632,-1.6852,-1.6727,-1.6641,-1.6781,-1.7058,-1.6978,-1.6978,-1.6978,-1.6978,-1.6978,-1.6978,-1.6978,-1.6978,-1.6978,-1.6978,-1.6978,-1.6978,-1.6978,-1.6978,-1.6978,-1.6978,-1.6978,-1.6978,-1.6978,-1.6978,-1.7087,-1.6996,-1.729,-1.771,-1.7895,-1.7964,-1.7978,-1.7998,-1.7846,-1.786,-1.786,-1.786,-1.786,-1.786,-1.786,-1.786,-1.786,-1.786,-1.786,-1.786,-1.786,-1.786,-1.786,-1.786,-1.786,-1.786,-1.786,-1.786,-1.786,-1.786,-1.786,-1.786,-1.786,-1.786,-1.786,-1.786,-1.786,-1.786,0.0,0.0,0.0,0.0,0.0,0.0,0.0,0.0,0.0,0.0,0.0,0.0,0.0,0.0,0.0,0.0,0.0,0.0,0.0,-1.4004,0.0,-1.5162,-1.5059,-1.5099,-1.5106,-1.5272,-1.5286,-1.5174,-1.5113,-1.5286,-1.5181,-1.5303,-1.5377,-1.5411,-1.556,-1.5655,-1.5877,-1.5911,-1.5986,-1.6096,-1.6131,-1.6076,-1.6105,-1.6374,-1.6673,-1.6988,-1.7023,-1.7106,-1.701,-1.701,-1.7085,-1.6971,-1.7058,-1.7085,-1.6978,-1.6978,-1.6978,-1.6978,-1.6978,-1.6978,-1.6978,-1.6978,-1.6978,-1.6978,-1.6978,-1.6978,-1.6978,-1.6978,-1.6978,-1.6978,-1.6978,-1.6998,-1.7019,-1.7019,-1.6936,-1.7096,-1.7662,-1.7813,-1.7944,-1.7846,-1.786,-1.786,-1.786,-1.786,-1.786,-1.786,-1.786,-1.786,-1.786,-1.786,-1.786,-1.786,-1.786,-1.786,-1.786,-1.786,-1.786,-1.786,-1.786,-1.786,-1.786,-1.786,-1.786,-1.786,-1.786,-1.786,-1.786,-1.786,-1.786,-1.786,-1.786,-1.786,0.0,0.0,0.0,0.0,0.0,0.0,0.0,0.0,0.0,0.0,0.0,0.0,0.0,0.0,0.0,0.0,0.0,0.0,-1.388,-1.0982,-1.0185,-1.4639,-1.4958,-1.4808,-1.5209,-1.5272,-1.5167,-1.5153,-1.5222,-1.5174,-1.516,-1.5201,-1.5269,-1.5404,-1.556,-1.5703,-1.5832,-1.5967,-1.6042,-1.6056,-1.6198,-1.6481,-1.6529,-1.679,-1.6927,-1.6948,-1.7085,-1.6937,-1.6958,-1.6958,-1.6965,-1.6978,-1.6965,-1.6965,-1.6978,-1.6978,-1.6978,-1.6978,-1.6978,-1.6978,-1.6978,-1.6978,-1.6978,-1.6978,-1.6978,-1.6978,-1.6978,-1.6978,-1.6978,-1.6978,-1.6978,-1.7073,-1.6949,-1.6949,-1.6948,-1.7153,-1.7841,-1.7964,-1.7846,-1.786,-1.786,-1.786,-1.786,-1.786,-1.786,-1.786,-1.786,-1.786,-1.786,-1.786,-1.786,-1.786,-1.786,-1.786,-1.786,-1.786,-1.786,-1.786,-1.786,-1.786,-1.786,-1.786,-1.786,-1.786,-1.786,-1.786,-1.786,-1.786,-1.786,-1.786,-1.786,-1.786,0.0,0.0,0.0,0.0,0.0,0.0,0.0,0.0,0.0,0.0,0.0,0.0,0.0,0.0,0.0,0.0,0.0,0.0,0.0,0.0,-0.9242,0.0,0.0,0.0,-1.4826,-1.5042,-1.4963,-1.5038,-1.4922,-1.4874,-1.5038,-1.514,-1.5296,-1.5533,-1.5683,-1.5832,-1.5988,-1.6049,-1.6123,-1.6218,-1.6279,-1.6402,-1.6571,-1.6693,-1.6802,-1.7099,-1.6951,-1.6978,-1.6978,-1.6978,-1.6978,-1.6978,-1.6978,-1.6978,-1.6978,-1.6978,-1.6978,-1.6978,-1.6978,-1.6978,-1.6978,-1.6978,-1.6978,-1.6978,-1.6978,-1.6978,-1.6978,-1.6978,-1.6978,-1.6998,-1.708,-1.6929,-1.6996,-1.7518,-1.7494,-1.765,-1.7875,-1.7978,-1.786,-1.786,-1.786,-1.786,-1.786,-1.786,-1.786,-1.786,-1.786,-1.786,-1.786,-1.786,-1.786,-1.786,-1.786,-1.786,-1.786,-1.786,-1.786,-1.786,-1.7948,-1.8002,-1.8002,-1.8002,-1.8002,-1.8002,-1.7914,-1.786,-1.786,-1.786,-1.786,-1.786,-1.786,-1.786,0.0,0.0,0.0,0.0,0.0,0.0,0.0,0.0,0.0,0.0,0.0,0.0,0.0,0.0,0.0,0.0,0.0,0.0,0.0,0.0,0.0,0.0,0.0,0.0,0.0,-1.4826,-1.4577,-1.4841,-1.4536,-1.4529,-1.495,-1.5065,-1.5282,-1.5628,-1.5744,-1.5886,-1.6083,-1.6083,-1.6157,-1.6307,-1.6347,-1.6503,-1.6754,-1.6795,-1.6876,-1.6978,-1.6978,-1.6978,-1.6978,-1.6978,-1.6978,-1.6978,-1.6978,-1.6978,-1.6978,-1.6978,-1.6978,-1.6978,-1.6978,-1.6978,-1.6978,-1.6978,-1.6978,-1.6978,-1.6978,-1.6978,-1.6978,-1.6978,-1.6978,-1.7012,-1.6936,-1.7222,-1.7297,-1.7892,-1.7827,-1.793,-1.793,-1.7792,-1.786,-1.786,-1.786,-1.786,-1.786,-1.786,-1.786,-1.786,-1.786,-1.786,-1.786,-1.786,-1.786,-1.786,-1.786,-1.786,-1.786,-1.786,-1.788,-1.7914,-1.7847,-1.7934,-1.8158,-1.8111,-1.8091,-1.786,-1.7935,-1.786,-1.786,-1.786,-1.786,-1.786,-1.786,-1.786,0.0,0.0,0.0,0.0,0.0,0.0,0.0,0.0,0.0,0.0,0.0,0.0,0.0,0.0,0.0,0.0,0.0,0.0,0.0,0.0,0.0,0.0,0.0,0.0,0.0,-1.4456,-1.434,-1.435,-1.4345,-1.4583,-1.4936,-1.4977,-1.5181,-1.5628,-1.5642,-1.5784,-1.6076,-1.6083,-1.6157,-1.6313,-1.6449,-1.6598,-1.6754,-1.6904,-1.6978,-1.6978,-1.6978,-1.6978,-1.6978,-1.6978,-1.6978,-1.6978,-1.6978,-1.6978,-1.6978,-1.6978,-1.6978,-1.6978,-1.6978,-1.6978,-1.6978,-1.6978,-1.6978,-1.6978,-1.6978,-1.6978,-1.6978,-1.6978,-1.6978,-1.7012,-1.6936,-1.7518,-1.7899,-1.7834,-1.7978,-1.786,-1.786,-1.786,-1.786,-1.786,-1.786,-1.786,-1.786,-1.786,-1.786,-1.786,-1.786,-1.786,-1.786,-1.786,-1.786,-1.786,-1.786,-1.786,-1.786,-1.786,-1.7935,-1.7847,-1.7994,-1.8088,-1.8788,-1.8853,-1.8552,-1.786,-1.7935,-1.786,-1.786,-1.786,-1.786,-1.786,-1.786,-1.786,0.0,0.0,0.0,0.0,0.0,0.0,0.0,0.0,0.0,0.0,0.0,0.0,0.0,0.0,0.0,0.0,0.0,0.0,0.0,0.0,0.0,0.0,0.0,0.0,0.0,0.0,-1.2103,-1.4075,-1.429,-1.438,-1.4645,-1.476,-1.5025,-1.5472,-1.5588,-1.5778,-1.6076,-1.6083,-1.6205,-1.6449,-1.6497,-1.6653,-1.6904,-1.6958,-1.6978,-1.6978,-1.6978,-1.6978,-1.6978,-1.6978,-1.6978,-1.6978,-1.6978,-1.6978,-1.6978,-1.6978,-1.6978,-1.6978,-1.6978,-1.6978,-1.6978,-1.6978,-1.6978,-1.6978,-1.6978,-1.6978,-1.6978,-1.6978,-1.6978,-1.7032,-1.7056,-1.7385,-1.7926,-1.7964,-1.7826,-1.786,-1.786,-1.786,-1.786,-1.786,-1.786,-1.786,-1.786,-1.786,-1.786,-1.786,-1.786,-1.786,-1.786,-1.786,-1.786,-1.786,-1.786,-1.786,-1.786,-1.7948,-1.8036,-1.8552,-1.8555,-1.8692,-1.8699,-1.8788,-1.8486,-1.8014,-1.7982,-1.786,-1.786,-1.786,-1.786,-1.786,-1.786,-1.7914,0.0,0.0,0.0,0.0,0.0,0.0,0.0,0.0,0.0,0.0,0.0,0.0,0.0,0.0,0.0,0.0,0.0,0.0,0.0,0.0,0.0,0.0,0.0,0.0,0.0,0.0,-0.8573,-1.3921,-1.4132,-1.4222,0.0,-1.4706,-1.5004,-1.5398,-1.5608,-1.5832,-1.6083,-1.6083,-1.6232,-1.6524,-1.6524,-1.668,-1.6978,-1.6978,-1.6978,-1.6978,-1.6978,-1.6978,-1.6978,-1.6978,-1.6978,-1.6978,-1.6978,-1.6978,-1.6978,-1.6978,-1.6978,-1.6978,-1.6978,-1.6978,-1.6978,-1.6978,-1.6978,-1.6978,-1.6978,-1.6978,-1.6978,-1.6978,-1.7019,-1.6895,-1.6915,-1.746,-1.7792,-1.7812,-1.786,-1.786,-1.786,-1.786,-1.786,-1.786,-1.786,-1.786,-1.786,-1.786,-1.786,-1.786,-1.786,-1.786,-1.786,-1.786,-1.786,-1.786,-1.786,-1.786,-1.786,-1.7827,-1.8179,-1.8874,-1.8913,-1.8857,-1.8857,-1.872,-1.8603,-1.7854,-1.7847,-1.7914,-1.786,-1.786,-1.7894,-1.7948,-1.7948,-1.7827]}]]